﻿<?xml version="1.0" encoding="utf-8"?><gpx creator="Garmin Desktop App" version="1.1" xsi:schemaLocation="http://www.topografix.com/GPX/1/1 http://www.topografix.com/GPX/1/1/gpx.xsd http://www.garmin.com/xmlschemas/WaypointExtension/v1 http://www8.garmin.com/xmlschemas/WaypointExtensionv1.xsd http://www.garmin.com/xmlschemas/TrackPointExtension/v1 http://www.garmin.com/xmlschemas/TrackPointExtensionv1.xsd http://www.garmin.com/xmlschemas/GpxExtensions/v3 http://www8.garmin.com/xmlschemas/GpxExtensionsv3.xsd http://www.garmin.com/xmlschemas/ActivityExtension/v1 http://www8.garmin.com/xmlschemas/ActivityExtensionv1.xsd http://www.garmin.com/xmlschemas/AdventuresExtensions/v1 http://www8.garmin.com/xmlschemas/AdventuresExtensionv1.xsd http://www.garmin.com/xmlschemas/PressureExtension/v1 http://www.garmin.com/xmlschemas/PressureExtensionv1.xsd http://www.garmin.com/xmlschemas/TripExtensions/v1 http://www.garmin.com/xmlschemas/TripExtensionsv1.xsd http://www.garmin.com/xmlschemas/TripMetaDataExtensions/v1 http://www.garmin.com/xmlschemas/TripMetaDataExtensionsv1.xsd http://www.garmin.com/xmlschemas/ViaPointTransportationModeExtensions/v1 http://www.garmin.com/xmlschemas/ViaPointTransportationModeExtensionsv1.xsd http://www.garmin.com/xmlschemas/CreationTimeExtension/v1 http://www.garmin.com/xmlschemas/CreationTimeExtensionsv1.xsd http://www.garmin.com/xmlschemas/AccelerationExtension/v1 http://www.garmin.com/xmlschemas/AccelerationExtensionv1.xsd http://www.garmin.com/xmlschemas/PowerExtension/v1 http://www.garmin.com/xmlschemas/PowerExtensionv1.xsd http://www.garmin.com/xmlschemas/VideoExtension/v1 http://www.garmin.com/xmlschemas/VideoExtensionv1.xsd" xmlns="http://www.topografix.com/GPX/1/1" xmlns:xsi="http://www.w3.org/2001/XMLSchema-instance" xmlns:wptx1="http://www.garmin.com/xmlschemas/WaypointExtension/v1" xmlns:gpxtrx="http://www.garmin.com/xmlschemas/GpxExtensions/v3" xmlns:gpxtpx="http://www.garmin.com/xmlschemas/TrackPointExtension/v1" xmlns:gpxx="http://www.garmin.com/xmlschemas/GpxExtensions/v3" xmlns:trp="http://www.garmin.com/xmlschemas/TripExtensions/v1" xmlns:adv="http://www.garmin.com/xmlschemas/AdventuresExtensions/v1" xmlns:prs="http://www.garmin.com/xmlschemas/PressureExtension/v1" xmlns:tmd="http://www.garmin.com/xmlschemas/TripMetaDataExtensions/v1" xmlns:vptm="http://www.garmin.com/xmlschemas/ViaPointTransportationModeExtensions/v1" xmlns:ctx="http://www.garmin.com/xmlschemas/CreationTimeExtension/v1" xmlns:gpxacc="http://www.garmin.com/xmlschemas/AccelerationExtension/v1" xmlns:gpxpx="http://www.garmin.com/xmlschemas/PowerExtension/v1" xmlns:vidx1="http://www.garmin.com/xmlschemas/VideoExtension/v1">

  <metadata>
    <link href="http://www.garmin.com">
      <text>Garmin International</text>
    </link>
    <time>2020-09-16T05:21:19Z</time>
    <bounds maxlat="45.873708296567202" maxlon="9.469963638111949" minlat="45.853073224425316" minlon="9.4475600682199" />
  </metadata>

  <trk>
    <name>creste del resegone2020-09-13</name>
    <extensions>
      <gpxx:TrackExtension>
        <gpxx:DisplayColor>Yellow</gpxx:DisplayColor>
      </gpxx:TrackExtension>
      <gpxtrkx:TrackStatsExtension xmlns:gpxtrkx="http://www.garmin.com/xmlschemas/TrackStatsExtension/v1">
        <gpxtrkx:Distance>9399</gpxtrkx:Distance>
        <gpxtrkx:TotalElapsedTime>24476</gpxtrkx:TotalElapsedTime>
        <gpxtrkx:MovingTime>14400</gpxtrkx:MovingTime>
        <gpxtrkx:StoppedTime>9571</gpxtrkx:StoppedTime>
        <gpxtrkx:MovingSpeed>1</gpxtrkx:MovingSpeed>
        <gpxtrkx:MaxSpeed>2</gpxtrkx:MaxSpeed>
        <gpxtrkx:MaxElevation>1843</gpxtrkx:MaxElevation>
        <gpxtrkx:MinElevation>1217</gpxtrkx:MinElevation>
        <gpxtrkx:Ascent>864</gpxtrkx:Ascent>
        <gpxtrkx:Descent>885</gpxtrkx:Descent>
        <gpxtrkx:AvgAscentRate>0</gpxtrkx:AvgAscentRate>
        <gpxtrkx:MaxAscentRate>0</gpxtrkx:MaxAscentRate>
        <gpxtrkx:AvgDescentRate>0</gpxtrkx:AvgDescentRate>
        <gpxtrkx:MaxDescentRate>-0</gpxtrkx:MaxDescentRate>
      </gpxtrkx:TrackStatsExtension>
    </extensions>
    <trkseg>
      <trkpt lat="45.86443891748786" lon="9.447561912238598">
        <ele>1344.26</ele>
        <time>2020-09-13T07:02:36Z</time>
      </trkpt>
      <trkpt lat="45.864441767334938" lon="9.447562247514725">
        <ele>1344.26</ele>
        <time>2020-09-13T07:02:37Z</time>
      </trkpt>
      <trkpt lat="45.864442940801382" lon="9.447561493143439">
        <ele>1323.46</ele>
        <time>2020-09-13T07:02:40Z</time>
      </trkpt>
      <trkpt lat="45.864409161731601" lon="9.4475600682199">
        <ele>1323.5</ele>
        <time>2020-09-13T07:02:51Z</time>
      </trkpt>
      <trkpt lat="45.864328192546964" lon="9.447569539770484">
        <ele>1323.3099999999999</ele>
        <time>2020-09-13T07:03:04Z</time>
      </trkpt>
      <trkpt lat="45.864319810643792" lon="9.447606503963471">
        <ele>1323.4400000000001</ele>
        <time>2020-09-13T07:03:30Z</time>
      </trkpt>
      <trkpt lat="45.86423221975565" lon="9.447672637179494">
        <ele>1323.25</ele>
        <time>2020-09-13T07:03:43Z</time>
      </trkpt>
      <trkpt lat="45.864190561696887" lon="9.447700632736087">
        <ele>1322.6900000000001</ele>
        <time>2020-09-13T07:03:49Z</time>
      </trkpt>
      <trkpt lat="45.864071203395724" lon="9.447779506444931">
        <ele>1319.78</ele>
        <time>2020-09-13T07:04:05Z</time>
      </trkpt>
      <trkpt lat="45.864005321636796" lon="9.447834827005863">
        <ele>1318.4300000000001</ele>
        <time>2020-09-13T07:04:14Z</time>
      </trkpt>
      <trkpt lat="45.863983109593391" lon="9.447889225557447">
        <ele>1317.99</ele>
        <time>2020-09-13T07:04:18Z</time>
      </trkpt>
      <trkpt lat="45.86399769410491" lon="9.447984108701348">
        <ele>1317.3399999999999</ele>
        <time>2020-09-13T07:04:25Z</time>
      </trkpt>
      <trkpt lat="45.864024767652154" lon="9.448002800345421">
        <ele>1316.97</ele>
        <time>2020-09-13T07:04:28Z</time>
      </trkpt>
      <trkpt lat="45.864035412669182" lon="9.448002884164453">
        <ele>1316.9100000000001</ele>
        <time>2020-09-13T07:04:29Z</time>
      </trkpt>
      <trkpt lat="45.864234566688538" lon="9.447926105931401">
        <ele>1314.6300000000001</ele>
        <time>2020-09-13T07:04:48Z</time>
      </trkpt>
      <trkpt lat="45.864326767623425" lon="9.447874976322055">
        <ele>1313.1700000000001</ele>
        <time>2020-09-13T07:04:58Z</time>
      </trkpt>
      <trkpt lat="45.864336239174008" lon="9.447866007685661">
        <ele>1313.0999999999999</ele>
        <time>2020-09-13T07:04:59Z</time>
      </trkpt>
      <trkpt lat="45.864347387105227" lon="9.447861313819885">
        <ele>1312.99</ele>
        <time>2020-09-13T07:05:00Z</time>
      </trkpt>
      <trkpt lat="45.864357277750969" lon="9.447857206687331">
        <ele>1312.8699999999999</ele>
        <time>2020-09-13T07:05:01Z</time>
      </trkpt>
      <trkpt lat="45.864407988265157" lon="9.447849998250604">
        <ele>1312.26</ele>
        <time>2020-09-13T07:05:07Z</time>
      </trkpt>
      <trkpt lat="45.864506894722581" lon="9.447941109538078">
        <ele>1311.53</ele>
        <time>2020-09-13T07:05:18Z</time>
      </trkpt>
      <trkpt lat="45.86458601988852" lon="9.448083350434899">
        <ele>1310.1700000000001</ele>
        <time>2020-09-13T07:05:30Z</time>
      </trkpt>
      <trkpt lat="45.864658858627081" lon="9.448290131986141">
        <ele>1307.5899999999999</ele>
        <time>2020-09-13T07:05:46Z</time>
      </trkpt>
      <trkpt lat="45.864746365696192" lon="9.448519796133041">
        <ele>1305.2</ele>
        <time>2020-09-13T07:06:03Z</time>
      </trkpt>
      <trkpt lat="45.864828173071146" lon="9.448689697310329">
        <ele>1303.5899999999999</ele>
        <time>2020-09-13T07:06:17Z</time>
      </trkpt>
      <trkpt lat="45.864869328215718" lon="9.44874937646091">
        <ele>1303.1700000000001</ele>
        <time>2020-09-13T07:06:22Z</time>
      </trkpt>
      <trkpt lat="45.864882152527571" lon="9.44877477362752">
        <ele>1302.97</ele>
        <time>2020-09-13T07:06:24Z</time>
      </trkpt>
      <trkpt lat="45.864886092022061" lon="9.448790112510324">
        <ele>1302.8900000000001</ele>
        <time>2020-09-13T07:06:25Z</time>
      </trkpt>
      <trkpt lat="45.864891540259123" lon="9.448804697021842">
        <ele>1302.78</ele>
        <time>2020-09-13T07:06:26Z</time>
      </trkpt>
      <trkpt lat="45.864898832514882" lon="9.448819030076265">
        <ele>1302.5799999999999</ele>
        <time>2020-09-13T07:06:27Z</time>
      </trkpt>
      <trkpt lat="45.864907884970307" lon="9.448832608759403">
        <ele>1302.6199999999999</ele>
        <time>2020-09-13T07:06:28Z</time>
      </trkpt>
      <trkpt lat="45.865007294341922" lon="9.449026063084602">
        <ele>1302.04</ele>
        <time>2020-09-13T07:06:42Z</time>
      </trkpt>
      <trkpt lat="45.865147607401013" lon="9.44924290291965">
        <ele>1301.04</ele>
        <time>2020-09-13T07:06:59Z</time>
      </trkpt>
      <trkpt lat="45.865306193009019" lon="9.449424203485251">
        <ele>1299.6099999999999</ele>
        <time>2020-09-13T07:07:16Z</time>
      </trkpt>
      <trkpt lat="45.865449607372284" lon="9.449574742466211">
        <ele>1298.4400000000001</ele>
        <time>2020-09-13T07:07:31Z</time>
      </trkpt>
      <trkpt lat="45.865645576268435" lon="9.449666021391749">
        <ele>1296.5999999999999</ele>
        <time>2020-09-13T07:07:49Z</time>
      </trkpt>
      <trkpt lat="45.86584716103971" lon="9.449743553996086">
        <ele>1294.4400000000001</ele>
        <time>2020-09-13T07:08:08Z</time>
      </trkpt>
      <trkpt lat="45.865991413593292" lon="9.449835168197751">
        <ele>1292.6700000000001</ele>
        <time>2020-09-13T07:08:23Z</time>
      </trkpt>
      <trkpt lat="45.866108424961567" lon="9.44993625395">
        <ele>1291.3099999999999</ele>
        <time>2020-09-13T07:08:35Z</time>
      </trkpt>
      <trkpt lat="45.866267932578921" lon="9.450094420462847">
        <ele>1289.5599999999999</ele>
        <time>2020-09-13T07:08:50Z</time>
      </trkpt>
      <trkpt lat="45.86630892008543" lon="9.450164828449488">
        <ele>1288.95</ele>
        <time>2020-09-13T07:09:03Z</time>
      </trkpt>
      <trkpt lat="45.866314955055714" lon="9.450180418789387">
        <ele>1288.8599999999999</ele>
        <time>2020-09-13T07:09:14Z</time>
      </trkpt>
      <trkpt lat="45.866316212341189" lon="9.450190057978034">
        <ele>1288.8599999999999</ele>
        <time>2020-09-13T07:09:26Z</time>
      </trkpt>
      <trkpt lat="45.866328366100788" lon="9.450209001079202">
        <ele>1288.8699999999999</ele>
        <time>2020-09-13T07:09:46Z</time>
      </trkpt>
      <trkpt lat="45.866332137957215" lon="9.450205061584711">
        <ele>1288.8399999999999</ele>
        <time>2020-09-13T07:10:11Z</time>
      </trkpt>
      <trkpt lat="45.86633482016623" lon="9.450223837047815">
        <ele>1289.03</ele>
        <time>2020-09-13T07:10:37Z</time>
      </trkpt>
      <trkpt lat="45.866336328908801" lon="9.450238840654492">
        <ele>1289.02</ele>
        <time>2020-09-13T07:10:38Z</time>
      </trkpt>
      <trkpt lat="45.866342531517148" lon="9.450319726020098">
        <ele>1289.1500000000001</ele>
        <time>2020-09-13T07:10:49Z</time>
      </trkpt>
      <trkpt lat="45.866336915642023" lon="9.45036725141108">
        <ele>1289.49</ele>
        <time>2020-09-13T07:10:54Z</time>
      </trkpt>
      <trkpt lat="45.866343704983592" lon="9.450537571683526">
        <ele>1290.3099999999999</ele>
        <time>2020-09-13T07:11:08Z</time>
      </trkpt>
      <trkpt lat="45.866348901763558" lon="9.45056171156466">
        <ele>1290.49</ele>
        <time>2020-09-13T07:11:12Z</time>
      </trkpt>
      <trkpt lat="45.866354266181588" lon="9.450574619695544">
        <ele>1290.6199999999999</ele>
        <time>2020-09-13T07:11:13Z</time>
      </trkpt>
      <trkpt lat="45.86644135415554" lon="9.450758686289191">
        <ele>1292.1900000000001</ele>
        <time>2020-09-13T07:11:29Z</time>
      </trkpt>
      <trkpt lat="45.866543781012297" lon="9.450882654637098">
        <ele>1293.49</ele>
        <time>2020-09-13T07:11:43Z</time>
      </trkpt>
      <trkpt lat="45.86667344905436" lon="9.451029254123569">
        <ele>1295.1400000000001</ele>
        <time>2020-09-13T07:12:00Z</time>
      </trkpt>
      <trkpt lat="45.866779647767544" lon="9.451122460886836">
        <ele>1297.55</ele>
        <time>2020-09-13T07:12:15Z</time>
      </trkpt>
      <trkpt lat="45.866885427385569" lon="9.451201586052775">
        <ele>1299.3599999999999</ele>
        <time>2020-09-13T07:12:29Z</time>
      </trkpt>
      <trkpt lat="45.867000678554177" lon="9.451283058151603">
        <ele>1300.9000000000001</ele>
        <time>2020-09-13T07:12:43Z</time>
      </trkpt>
      <trkpt lat="45.867123976349831" lon="9.451363272964954">
        <ele>1302.5699999999999</ele>
        <time>2020-09-13T07:12:58Z</time>
      </trkpt>
      <trkpt lat="45.867267139256001" lon="9.451480284333229">
        <ele>1305.1400000000001</ele>
        <time>2020-09-13T07:13:18Z</time>
      </trkpt>
      <trkpt lat="45.86737509816885" lon="9.451581872999668">
        <ele>1308.0899999999999</ele>
        <time>2020-09-13T07:13:36Z</time>
      </trkpt>
      <trkpt lat="45.867425054311752" lon="9.451631242409349">
        <ele>1309.1199999999999</ele>
        <time>2020-09-13T07:13:43Z</time>
      </trkpt>
      <trkpt lat="45.867509292438626" lon="9.451791923493147">
        <ele>1311.28</ele>
        <time>2020-09-13T07:13:59Z</time>
      </trkpt>
      <trkpt lat="45.867565618827939" lon="9.451958807185292">
        <ele>1312.9300000000001</ele>
        <time>2020-09-13T07:14:14Z</time>
      </trkpt>
      <trkpt lat="45.867590680718422" lon="9.452017061412334">
        <ele>1313.6300000000001</ele>
        <time>2020-09-13T07:14:27Z</time>
      </trkpt>
      <trkpt lat="45.867631332948804" lon="9.452085876837373">
        <ele>1314.26</ele>
        <time>2020-09-13T07:14:48Z</time>
      </trkpt>
      <trkpt lat="45.867721438407898" lon="9.452263657003641">
        <ele>1316.1300000000001</ele>
        <time>2020-09-13T07:15:03Z</time>
      </trkpt>
      <trkpt lat="45.867840964347124" lon="9.452466582879424">
        <ele>1317.5899999999999</ele>
        <time>2020-09-13T07:15:21Z</time>
      </trkpt>
      <trkpt lat="45.867954371497035" lon="9.452594574540854">
        <ele>1319.0799999999999</ele>
        <time>2020-09-13T07:15:36Z</time>
      </trkpt>
      <trkpt lat="45.868113962933421" lon="9.452677639201284">
        <ele>1319.45</ele>
        <time>2020-09-13T07:15:51Z</time>
      </trkpt>
      <trkpt lat="45.868290904909372" lon="9.45277126505971">
        <ele>1320.0999999999999</ele>
        <time>2020-09-13T07:16:08Z</time>
      </trkpt>
      <trkpt lat="45.868495088070631" lon="9.452910488471389">
        <ele>1320.5899999999999</ele>
        <time>2020-09-13T07:16:28Z</time>
      </trkpt>
      <trkpt lat="45.868630120530725" lon="9.453028254210949">
        <ele>1321.5899999999999</ele>
        <time>2020-09-13T07:16:43Z</time>
      </trkpt>
      <trkpt lat="45.868797590956092" lon="9.45320569910109">
        <ele>1322.7</ele>
        <time>2020-09-13T07:17:01Z</time>
      </trkpt>
      <trkpt lat="45.868924492970109" lon="9.453249117359519">
        <ele>1323.8599999999999</ele>
        <time>2020-09-13T07:17:14Z</time>
      </trkpt>
      <trkpt lat="45.869052316993475" lon="9.45324576459825">
        <ele>1325.3499999999999</ele>
        <time>2020-09-13T07:17:26Z</time>
      </trkpt>
      <trkpt lat="45.869123563170433" lon="9.453278286382556">
        <ele>1326.77</ele>
        <time>2020-09-13T07:17:34Z</time>
      </trkpt>
      <trkpt lat="45.869199670851231" lon="9.453381383791566">
        <ele>1328.6700000000001</ele>
        <time>2020-09-13T07:17:46Z</time>
      </trkpt>
      <trkpt lat="45.869266474619508" lon="9.453541226685047">
        <ele>1330.46</ele>
        <time>2020-09-13T07:18:01Z</time>
      </trkpt>
      <trkpt lat="45.869304025545716" lon="9.453697632998228">
        <ele>1332.98</ele>
        <time>2020-09-13T07:18:17Z</time>
      </trkpt>
      <trkpt lat="45.86934132501483" lon="9.453830234706402">
        <ele>1335.5899999999999</ele>
        <time>2020-09-13T07:18:34Z</time>
      </trkpt>
      <trkpt lat="45.869375355541706" lon="9.453955125063658">
        <ele>1338.1500000000001</ele>
        <time>2020-09-13T07:18:51Z</time>
      </trkpt>
      <trkpt lat="45.869400668889284" lon="9.4540686160326">
        <ele>1340.25</ele>
        <time>2020-09-13T07:19:08Z</time>
      </trkpt>
      <trkpt lat="45.869409050792456" lon="9.454195601865649">
        <ele>1342.8599999999999</ele>
        <time>2020-09-13T07:19:25Z</time>
      </trkpt>
      <trkpt lat="45.86942438967526" lon="9.454298447817564">
        <ele>1345.22</ele>
        <time>2020-09-13T07:19:39Z</time>
      </trkpt>
      <trkpt lat="45.86942195892334" lon="9.454372292384505">
        <ele>1346.8800000000001</ele>
        <time>2020-09-13T07:19:51Z</time>
      </trkpt>
      <trkpt lat="45.86942539550364" lon="9.454478407278657">
        <ele>1349.48</ele>
        <time>2020-09-13T07:20:06Z</time>
      </trkpt>
      <trkpt lat="45.869426568970084" lon="9.454562896862626">
        <ele>1351.3800000000001</ele>
        <time>2020-09-13T07:20:19Z</time>
      </trkpt>
      <trkpt lat="45.869447020813823" lon="9.454668844118714">
        <ele>1353.5799999999999</ele>
        <time>2020-09-13T07:20:34Z</time>
      </trkpt>
      <trkpt lat="45.869500916451216" lon="9.454805720597506">
        <ele>1355.54</ele>
        <time>2020-09-13T07:20:50Z</time>
      </trkpt>
      <trkpt lat="45.869539473205805" lon="9.454936143010855">
        <ele>1357.1199999999999</ele>
        <time>2020-09-13T07:21:04Z</time>
      </trkpt>
      <trkpt lat="45.869600996375084" lon="9.455069582909346">
        <ele>1357.4300000000001</ele>
        <time>2020-09-13T07:21:16Z</time>
      </trkpt>
      <trkpt lat="45.869672829285264" lon="9.455219954252243">
        <ele>1356.5699999999999</ele>
        <time>2020-09-13T07:21:29Z</time>
      </trkpt>
      <trkpt lat="45.869717421010137" lon="9.455340066924691">
        <ele>1357.4200000000001</ele>
        <time>2020-09-13T07:21:40Z</time>
      </trkpt>
      <trkpt lat="45.869753127917647" lon="9.455379126593471">
        <ele>1358.0999999999999</ele>
        <time>2020-09-13T07:21:52Z</time>
      </trkpt>
      <trkpt lat="45.86976058781147" lon="9.455391280353069">
        <ele>1357.9300000000001</ele>
        <time>2020-09-13T07:22:06Z</time>
      </trkpt>
      <trkpt lat="45.869775507599115" lon="9.455394297838211">
        <ele>1357.6500000000001</ele>
        <time>2020-09-13T07:22:24Z</time>
      </trkpt>
      <trkpt lat="45.869809286668897" lon="9.455447690561414">
        <ele>1358.29</ele>
        <time>2020-09-13T07:22:37Z</time>
      </trkpt>
      <trkpt lat="45.869836863130331" lon="9.455501418560743">
        <ele>1358.8</ele>
        <time>2020-09-13T07:22:42Z</time>
      </trkpt>
      <trkpt lat="45.869844574481249" lon="9.455678779631853">
        <ele>1360.9000000000001</ele>
        <time>2020-09-13T07:22:55Z</time>
      </trkpt>
      <trkpt lat="45.869846334680915" lon="9.455869300290942">
        <ele>1362.95</ele>
        <time>2020-09-13T07:23:10Z</time>
      </trkpt>
      <trkpt lat="45.869848513975739" lon="9.455991508439183">
        <ele>1365.4400000000001</ele>
        <time>2020-09-13T07:23:23Z</time>
      </trkpt>
      <trkpt lat="45.869879778474569" lon="9.456114387139678">
        <ele>1368.03</ele>
        <time>2020-09-13T07:23:39Z</time>
      </trkpt>
      <trkpt lat="45.86994138546288" lon="9.456248581409454">
        <ele>1369.1400000000001</ele>
        <time>2020-09-13T07:23:53Z</time>
      </trkpt>
      <trkpt lat="45.869951024651527" lon="9.456320162862539">
        <ele>1368.6900000000001</ele>
        <time>2020-09-13T07:23:58Z</time>
      </trkpt>
      <trkpt lat="45.870001651346684" lon="9.456421248614788">
        <ele>1370.48</ele>
        <time>2020-09-13T07:24:12Z</time>
      </trkpt>
      <trkpt lat="45.870083710178733" lon="9.456528453156352">
        <ele>1372.28</ele>
        <time>2020-09-13T07:24:27Z</time>
      </trkpt>
      <trkpt lat="45.870116986334324" lon="9.456655103713274">
        <ele>1373.4300000000001</ele>
        <time>2020-09-13T07:24:40Z</time>
      </trkpt>
      <trkpt lat="45.870192255824804" lon="9.456780245527625">
        <ele>1375.1099999999999</ele>
        <time>2020-09-13T07:24:54Z</time>
      </trkpt>
      <trkpt lat="45.87022578343749" lon="9.456875380128622">
        <ele>1376.74</ele>
        <time>2020-09-13T07:25:06Z</time>
      </trkpt>
      <trkpt lat="45.870278505608439" lon="9.457034720107913">
        <ele>1379.9200000000001</ele>
        <time>2020-09-13T07:25:24Z</time>
      </trkpt>
      <trkpt lat="45.870340280234814" lon="9.457110157236457">
        <ele>1381.6199999999999</ele>
        <time>2020-09-13T07:25:37Z</time>
      </trkpt>
      <trkpt lat="45.870410772040486" lon="9.457258265465498">
        <ele>1383.26</ele>
        <time>2020-09-13T07:25:53Z</time>
      </trkpt>
      <trkpt lat="45.870481766760349" lon="9.457396902143955">
        <ele>1382.47</ele>
        <time>2020-09-13T07:26:05Z</time>
      </trkpt>
      <trkpt lat="45.870516132563353" lon="9.457544339820743">
        <ele>1382.9000000000001</ele>
        <time>2020-09-13T07:26:17Z</time>
      </trkpt>
      <trkpt lat="45.870544295758009" lon="9.457655986770988">
        <ele>1384.03</ele>
        <time>2020-09-13T07:26:28Z</time>
      </trkpt>
      <trkpt lat="45.87059810757637" lon="9.457795294001699">
        <ele>1385.6400000000001</ele>
        <time>2020-09-13T07:26:41Z</time>
      </trkpt>
      <trkpt lat="45.870619649067521" lon="9.457917418330908">
        <ele>1385.3499999999999</ele>
        <time>2020-09-13T07:26:55Z</time>
      </trkpt>
      <trkpt lat="45.870646219700575" lon="9.458054546266794">
        <ele>1383.6700000000001</ele>
        <time>2020-09-13T07:27:06Z</time>
      </trkpt>
      <trkpt lat="45.870687123388052" lon="9.458177676424384">
        <ele>1382.6199999999999</ele>
        <time>2020-09-13T07:27:15Z</time>
      </trkpt>
      <trkpt lat="45.870715957134962" lon="9.458263926208019">
        <ele>1383.0999999999999</ele>
        <time>2020-09-13T07:27:22Z</time>
      </trkpt>
      <trkpt lat="45.870730625465512" lon="9.458405496552587">
        <ele>1383.77</ele>
        <time>2020-09-13T07:27:36Z</time>
      </trkpt>
      <trkpt lat="45.870767422020435" lon="9.458529381081462">
        <ele>1385.52</ele>
        <time>2020-09-13T07:27:53Z</time>
      </trkpt>
      <trkpt lat="45.870809582993388" lon="9.458649661391974">
        <ele>1387.73</ele>
        <time>2020-09-13T07:28:10Z</time>
      </trkpt>
      <trkpt lat="45.870858114212751" lon="9.45878628641367">
        <ele>1389.72</ele>
        <time>2020-09-13T07:28:24Z</time>
      </trkpt>
      <trkpt lat="45.870872111991048" lon="9.458901369944215">
        <ele>1390.96</ele>
        <time>2020-09-13T07:28:35Z</time>
      </trkpt>
      <trkpt lat="45.870855264365673" lon="9.458978064358234">
        <ele>1392.3499999999999</ele>
        <time>2020-09-13T07:28:50Z</time>
      </trkpt>
      <trkpt lat="45.870843697339296" lon="9.459022404626012">
        <ele>1393.4100000000001</ele>
        <time>2020-09-13T07:29:02Z</time>
      </trkpt>
      <trkpt lat="45.870829280465841" lon="9.45907361805439">
        <ele>1395.4100000000001</ele>
        <time>2020-09-13T07:29:15Z</time>
      </trkpt>
      <trkpt lat="45.870812181383371" lon="9.459150480106473">
        <ele>1397.8</ele>
        <time>2020-09-13T07:29:28Z</time>
      </trkpt>
      <trkpt lat="45.870809750631452" lon="9.459174955263734">
        <ele>1398.53</ele>
        <time>2020-09-13T07:29:32Z</time>
      </trkpt>
      <trkpt lat="45.870799776166677" lon="9.45923731662333">
        <ele>1399.4300000000001</ele>
        <time>2020-09-13T07:29:39Z</time>
      </trkpt>
      <trkpt lat="45.870808744803071" lon="9.459356674924493">
        <ele>1400.3099999999999</ele>
        <time>2020-09-13T07:29:49Z</time>
      </trkpt>
      <trkpt lat="45.870773205533624" lon="9.45949531160295">
        <ele>1400.6500000000001</ele>
        <time>2020-09-13T07:30:00Z</time>
      </trkpt>
      <trkpt lat="45.870747976005077" lon="9.459551218897104">
        <ele>1400.26</ele>
        <time>2020-09-13T07:30:05Z</time>
      </trkpt>
      <trkpt lat="45.870648231357336" lon="9.45966973900795">
        <ele>1398.47</ele>
        <time>2020-09-13T07:30:20Z</time>
      </trkpt>
      <trkpt lat="45.870647309347987" lon="9.459740230813623">
        <ele>1397.74</ele>
        <time>2020-09-13T07:30:25Z</time>
      </trkpt>
      <trkpt lat="45.870662312954664" lon="9.459865875542164">
        <ele>1398.71</ele>
        <time>2020-09-13T07:30:35Z</time>
      </trkpt>
      <trkpt lat="45.870662145316601" lon="9.459949526935816">
        <ele>1398.1900000000001</ele>
        <time>2020-09-13T07:30:44Z</time>
      </trkpt>
      <trkpt lat="45.870699025690556" lon="9.460077015683055">
        <ele>1396.6600000000001</ele>
        <time>2020-09-13T07:30:54Z</time>
      </trkpt>
      <trkpt lat="45.870773876085877" lon="9.460224118083715">
        <ele>1396.5</ele>
        <time>2020-09-13T07:31:05Z</time>
      </trkpt>
      <trkpt lat="45.870782174170017" lon="9.460371471941471">
        <ele>1397.3</ele>
        <time>2020-09-13T07:31:17Z</time>
      </trkpt>
      <trkpt lat="45.870797177776694" lon="9.46043006144464">
        <ele>1398.4100000000001</ele>
        <time>2020-09-13T07:31:27Z</time>
      </trkpt>
      <trkpt lat="45.870797177776694" lon="9.460435342043638">
        <ele>1398.25</ele>
        <time>2020-09-13T07:31:40Z</time>
      </trkpt>
      <trkpt lat="45.870786951854825" lon="9.460436766967177">
        <ele>1397.8299999999999</ele>
        <time>2020-09-13T07:31:53Z</time>
      </trkpt>
      <trkpt lat="45.870790053158998" lon="9.460456799715757">
        <ele>1397.75</ele>
        <time>2020-09-13T07:32:05Z</time>
      </trkpt>
      <trkpt lat="45.870787035673857" lon="9.460457805544138">
        <ele>1398.1500000000001</ele>
        <time>2020-09-13T07:32:22Z</time>
      </trkpt>
      <trkpt lat="45.870776223018765" lon="9.460519663989544">
        <ele>1400.3699999999999</ele>
        <time>2020-09-13T07:32:33Z</time>
      </trkpt>
      <trkpt lat="45.870847133919597" lon="9.460557298734784">
        <ele>1401.1700000000001</ele>
        <time>2020-09-13T07:32:45Z</time>
      </trkpt>
      <trkpt lat="45.870879990980029" lon="9.460563082247973">
        <ele>1400.0699999999999</ele>
        <time>2020-09-13T07:32:55Z</time>
      </trkpt>
      <trkpt lat="45.870901364833117" lon="9.460572553798556">
        <ele>1399.4400000000001</ele>
        <time>2020-09-13T07:32:57Z</time>
      </trkpt>
      <trkpt lat="45.870945956557989" lon="9.460667436942458">
        <ele>1398.1199999999999</ele>
        <time>2020-09-13T07:33:04Z</time>
      </trkpt>
      <trkpt lat="45.871020220220089" lon="9.46074522100389">
        <ele>1399.0699999999999</ele>
        <time>2020-09-13T07:33:13Z</time>
      </trkpt>
      <trkpt lat="45.871118791401386" lon="9.460863154381514">
        <ele>1398.46</ele>
        <time>2020-09-13T07:33:27Z</time>
      </trkpt>
      <trkpt lat="45.871153995394707" lon="9.460948146879673">
        <ele>1398.72</ele>
        <time>2020-09-13T07:33:36Z</time>
      </trkpt>
      <trkpt lat="45.871187774464488" lon="9.46104328148067">
        <ele>1399.1400000000001</ele>
        <time>2020-09-13T07:33:46Z</time>
      </trkpt>
      <trkpt lat="45.871209148317575" lon="9.461162388324738">
        <ele>1401.5799999999999</ele>
        <time>2020-09-13T07:34:00Z</time>
      </trkpt>
      <trkpt lat="45.871296739205718" lon="9.461284931749106">
        <ele>1399.8199999999999</ele>
        <time>2020-09-13T07:34:12Z</time>
      </trkpt>
      <trkpt lat="45.871312832459807" lon="9.461313681676984">
        <ele>1399.3900000000001</ele>
        <time>2020-09-13T07:34:14Z</time>
      </trkpt>
      <trkpt lat="45.871319202706218" lon="9.461427675560117">
        <ele>1400.05</ele>
        <time>2020-09-13T07:34:23Z</time>
      </trkpt>
      <trkpt lat="45.871325992047787" lon="9.461468160152435">
        <ele>1399.6400000000001</ele>
        <time>2020-09-13T07:34:26Z</time>
      </trkpt>
      <trkpt lat="45.87132372893393" lon="9.461621213704348">
        <ele>1399.74</ele>
        <time>2020-09-13T07:34:37Z</time>
      </trkpt>
      <trkpt lat="45.871296655386686" lon="9.461767980828881">
        <ele>1401.25</ele>
        <time>2020-09-13T07:34:50Z</time>
      </trkpt>
      <trkpt lat="45.871328338980675" lon="9.461914664134383">
        <ele>1399.8499999999999</ele>
        <time>2020-09-13T07:35:01Z</time>
      </trkpt>
      <trkpt lat="45.871358849108219" lon="9.461966631934047">
        <ele>1399.6300000000001</ele>
        <time>2020-09-13T07:35:06Z</time>
      </trkpt>
      <trkpt lat="45.871381815522909" lon="9.462065622210503">
        <ele>1397.8900000000001</ele>
        <time>2020-09-13T07:35:17Z</time>
      </trkpt>
      <trkpt lat="45.871376283466816" lon="9.462105100974441">
        <ele>1397.1199999999999</ele>
        <time>2020-09-13T07:35:20Z</time>
      </trkpt>
      <trkpt lat="45.871405117213726" lon="9.462258070707321">
        <ele>1396.6300000000001</ele>
        <time>2020-09-13T07:35:33Z</time>
      </trkpt>
      <trkpt lat="45.871443338692188" lon="9.46232738904655">
        <ele>1397.21</ele>
        <time>2020-09-13T07:35:42Z</time>
      </trkpt>
      <trkpt lat="45.87150301784277" lon="9.462370555847883">
        <ele>1397.78</ele>
        <time>2020-09-13T07:35:49Z</time>
      </trkpt>
      <trkpt lat="45.871565295383334" lon="9.462460158392787">
        <ele>1398.77</ele>
        <time>2020-09-13T07:36:03Z</time>
      </trkpt>
      <trkpt lat="45.871591027826071" lon="9.462472395971417">
        <ele>1400.0899999999999</ele>
        <time>2020-09-13T07:36:17Z</time>
      </trkpt>
      <trkpt lat="45.87163201533258" lon="9.46253408677876">
        <ele>1400.6400000000001</ele>
        <time>2020-09-13T07:36:28Z</time>
      </trkpt>
      <trkpt lat="45.871637798845768" lon="9.462545737624168">
        <ele>1400.78</ele>
        <time>2020-09-13T07:36:29Z</time>
      </trkpt>
      <trkpt lat="45.871647018939257" lon="9.462575241923332">
        <ele>1400.8499999999999</ele>
        <time>2020-09-13T07:36:31Z</time>
      </trkpt>
      <trkpt lat="45.87170678190887" lon="9.462665850296617">
        <ele>1402.47</ele>
        <time>2020-09-13T07:36:43Z</time>
      </trkpt>
      <trkpt lat="45.871781716123223" lon="9.462715974077582">
        <ele>1405.23</ele>
        <time>2020-09-13T07:36:55Z</time>
      </trkpt>
      <trkpt lat="45.871875006705523" lon="9.462792165577412">
        <ele>1407.72</ele>
        <time>2020-09-13T07:37:09Z</time>
      </trkpt>
      <trkpt lat="45.871955808252096" lon="9.462816221639514">
        <ele>1409.74</ele>
        <time>2020-09-13T07:37:21Z</time>
      </trkpt>
      <trkpt lat="45.872001154348254" lon="9.462938094511628">
        <ele>1410.6300000000001</ele>
        <time>2020-09-13T07:37:31Z</time>
      </trkpt>
      <trkpt lat="45.872022192925215" lon="9.46297531016171">
        <ele>1410.6700000000001</ele>
        <time>2020-09-13T07:37:34Z</time>
      </trkpt>
      <trkpt lat="45.872068963944912" lon="9.463026272132993">
        <ele>1410.3499999999999</ele>
        <time>2020-09-13T07:37:40Z</time>
      </trkpt>
      <trkpt lat="45.872095953673124" lon="9.463100619614124">
        <ele>1409.77</ele>
        <time>2020-09-13T07:37:52Z</time>
      </trkpt>
      <trkpt lat="45.872132247313857" lon="9.463134482502937">
        <ele>1408.8800000000001</ele>
        <time>2020-09-13T07:38:02Z</time>
      </trkpt>
      <trkpt lat="45.872155465185642" lon="9.463140349835157">
        <ele>1408.1600000000001</ele>
        <time>2020-09-13T07:38:04Z</time>
      </trkpt>
      <trkpt lat="45.872240709140897" lon="9.463232047855854">
        <ele>1407.22</ele>
        <time>2020-09-13T07:38:15Z</time>
      </trkpt>
      <trkpt lat="45.872285719960928" lon="9.463265910744667">
        <ele>1408.23</ele>
        <time>2020-09-13T07:38:23Z</time>
      </trkpt>
      <trkpt lat="45.872412957251072" lon="9.463268173858523">
        <ele>1406.6300000000001</ele>
        <time>2020-09-13T07:38:35Z</time>
      </trkpt>
      <trkpt lat="45.872520077973604" lon="9.463302791118622">
        <ele>1406.5599999999999</ele>
        <time>2020-09-13T07:38:47Z</time>
      </trkpt>
      <trkpt lat="45.872598364949226" lon="9.463418629020453">
        <ele>1405.4100000000001</ele>
        <time>2020-09-13T07:38:59Z</time>
      </trkpt>
      <trkpt lat="45.872649662196636" lon="9.46354553103447">
        <ele>1404.6700000000001</ele>
        <time>2020-09-13T07:39:09Z</time>
      </trkpt>
      <trkpt lat="45.87267329916358" lon="9.463629769161344">
        <ele>1403.0799999999999</ele>
        <time>2020-09-13T07:39:15Z</time>
      </trkpt>
      <trkpt lat="45.872669359669089" lon="9.463702607899904">
        <ele>1402.1400000000001</ele>
        <time>2020-09-13T07:39:20Z</time>
      </trkpt>
      <trkpt lat="45.872638346627355" lon="9.463814171031117">
        <ele>1401.8499999999999</ele>
        <time>2020-09-13T07:39:28Z</time>
      </trkpt>
      <trkpt lat="45.872640693560243" lon="9.463861025869846">
        <ele>1401.3499999999999</ele>
        <time>2020-09-13T07:39:31Z</time>
      </trkpt>
      <trkpt lat="45.872658127918839" lon="9.464029418304563">
        <ele>1402.0799999999999</ele>
        <time>2020-09-13T07:39:44Z</time>
      </trkpt>
      <trkpt lat="45.872665839269757" lon="9.464133270084858">
        <ele>1403.6700000000001</ele>
        <time>2020-09-13T07:39:55Z</time>
      </trkpt>
      <trkpt lat="45.87265033274889" lon="9.464242486283183">
        <ele>1406.24</ele>
        <time>2020-09-13T07:40:09Z</time>
      </trkpt>
      <trkpt lat="45.872632814571261" lon="9.464306859299541">
        <ele>1407.5999999999999</ele>
        <time>2020-09-13T07:40:17Z</time>
      </trkpt>
      <trkpt lat="45.872600208967924" lon="9.464484136551619">
        <ele>1409.0599999999999</ele>
        <time>2020-09-13T07:40:32Z</time>
      </trkpt>
      <trkpt lat="45.872605824843049" lon="9.464493356645107">
        <ele>1409.1500000000001</ele>
        <time>2020-09-13T07:40:33Z</time>
      </trkpt>
      <trkpt lat="45.872652176767588" lon="9.464652948081493">
        <ele>1409.6700000000001</ele>
        <time>2020-09-13T07:40:45Z</time>
      </trkpt>
      <trkpt lat="45.872651422396302" lon="9.464775826781988">
        <ele>1411.6600000000001</ele>
        <time>2020-09-13T07:40:58Z</time>
      </trkpt>
      <trkpt lat="45.87266500107944" lon="9.464890407398343">
        <ele>1412.77</ele>
        <time>2020-09-13T07:41:08Z</time>
      </trkpt>
      <trkpt lat="45.872663240879774" lon="9.46501043625176">
        <ele>1414.4300000000001</ele>
        <time>2020-09-13T07:41:22Z</time>
      </trkpt>
      <trkpt lat="45.87267036549747" lon="9.465105822309852">
        <ele>1416.1099999999999</ele>
        <time>2020-09-13T07:41:34Z</time>
      </trkpt>
      <trkpt lat="45.872674556449056" lon="9.465176817029715">
        <ele>1417.6900000000001</ele>
        <time>2020-09-13T07:41:42Z</time>
      </trkpt>
      <trkpt lat="45.872735660523176" lon="9.465263485908508">
        <ele>1418.3699999999999</ele>
        <time>2020-09-13T07:41:54Z</time>
      </trkpt>
      <trkpt lat="45.872767008841038" lon="9.465334312990308">
        <ele>1420.7</ele>
        <time>2020-09-13T07:42:10Z</time>
      </trkpt>
      <trkpt lat="45.872830208390951" lon="9.465451072901487">
        <ele>1421.8900000000001</ele>
        <time>2020-09-13T07:42:24Z</time>
      </trkpt>
      <trkpt lat="45.872843200340867" lon="9.465520475059748">
        <ele>1421.99</ele>
        <time>2020-09-13T07:42:34Z</time>
      </trkpt>
      <trkpt lat="45.872844373807311" lon="9.465534221380949">
        <ele>1422.1099999999999</ele>
        <time>2020-09-13T07:42:35Z</time>
      </trkpt>
      <trkpt lat="45.872829537838697" lon="9.465706804767251">
        <ele>1422.97</ele>
        <time>2020-09-13T07:42:46Z</time>
      </trkpt>
      <trkpt lat="45.872823419049382" lon="9.465833874419332">
        <ele>1424.0899999999999</ele>
        <time>2020-09-13T07:42:57Z</time>
      </trkpt>
      <trkpt lat="45.872888881713152" lon="9.465918447822332">
        <ele>1425.8299999999999</ele>
        <time>2020-09-13T07:43:11Z</time>
      </trkpt>
      <trkpt lat="45.872929617762566" lon="9.466016599908471">
        <ele>1427.9400000000001</ele>
        <time>2020-09-13T07:43:24Z</time>
      </trkpt>
      <trkpt lat="45.872963396832347" lon="9.466069908812642">
        <ele>1429.22</ele>
        <time>2020-09-13T07:43:36Z</time>
      </trkpt>
      <trkpt lat="45.873017460107803" lon="9.466129336506128">
        <ele>1431.45</ele>
        <time>2020-09-13T07:43:50Z</time>
      </trkpt>
      <trkpt lat="45.873017041012645" lon="9.466193038970232">
        <ele>1433.24</ele>
        <time>2020-09-13T07:44:02Z</time>
      </trkpt>
      <trkpt lat="45.873028859496117" lon="9.466301752254367">
        <ele>1435.05</ele>
        <time>2020-09-13T07:44:14Z</time>
      </trkpt>
      <trkpt lat="45.873012598603964" lon="9.466411722823978">
        <ele>1436.9100000000001</ele>
        <time>2020-09-13T07:44:29Z</time>
      </trkpt>
      <trkpt lat="45.873013939708471" lon="9.466569051146507">
        <ele>1439.04</ele>
        <time>2020-09-13T07:44:44Z</time>
      </trkpt>
      <trkpt lat="45.873023746535182" lon="9.466702155768871">
        <ele>1440.5699999999999</ele>
        <time>2020-09-13T07:44:57Z</time>
      </trkpt>
      <trkpt lat="45.873057777062058" lon="9.466841295361519">
        <ele>1442.9200000000001</ele>
        <time>2020-09-13T07:45:14Z</time>
      </trkpt>
      <trkpt lat="45.873061884194613" lon="9.466949254274368">
        <ele>1445.3599999999999</ele>
        <time>2020-09-13T07:45:30Z</time>
      </trkpt>
      <trkpt lat="45.873073367401958" lon="9.467073306441307">
        <ele>1447.8399999999999</ele>
        <time>2020-09-13T07:45:45Z</time>
      </trkpt>
      <trkpt lat="45.873078564181924" lon="9.467185623943806">
        <ele>1449.74</ele>
        <time>2020-09-13T07:45:59Z</time>
      </trkpt>
      <trkpt lat="45.873131202533841" lon="9.467274304479361">
        <ele>1452.1500000000001</ele>
        <time>2020-09-13T07:46:14Z</time>
      </trkpt>
      <trkpt lat="45.873238323256373" lon="9.467302551493049">
        <ele>1454.3900000000001</ele>
        <time>2020-09-13T07:46:30Z</time>
      </trkpt>
      <trkpt lat="45.873303366824985" lon="9.46733339689672">
        <ele>1456.05</ele>
        <time>2020-09-13T07:46:43Z</time>
      </trkpt>
      <trkpt lat="45.873364889994264" lon="9.467365751042962">
        <ele>1458.4300000000001</ele>
        <time>2020-09-13T07:46:58Z</time>
      </trkpt>
      <trkpt lat="45.873428927734494" lon="9.467443954199553">
        <ele>1461.5</ele>
        <time>2020-09-13T07:47:16Z</time>
      </trkpt>
      <trkpt lat="45.873535294085741" lon="9.467478739097714">
        <ele>1463.8699999999999</ele>
        <time>2020-09-13T07:47:33Z</time>
      </trkpt>
      <trkpt lat="45.873635206371546" lon="9.467481840401888">
        <ele>1465.72</ele>
        <time>2020-09-13T07:47:48Z</time>
      </trkpt>
      <trkpt lat="45.873708296567202" lon="9.467472536489368">
        <ele>1467.54</ele>
        <time>2020-09-13T07:48:01Z</time>
      </trkpt>
      <trkpt lat="45.873686419799924" lon="9.467559875920415">
        <ele>1469.1900000000001</ele>
        <time>2020-09-13T07:48:12Z</time>
      </trkpt>
      <trkpt lat="45.873616095632315" lon="9.467637995257974">
        <ele>1471.7</ele>
        <time>2020-09-13T07:48:28Z</time>
      </trkpt>
      <trkpt lat="45.873539987951517" lon="9.467687867581844">
        <ele>1473.4400000000001</ele>
        <time>2020-09-13T07:48:40Z</time>
      </trkpt>
      <trkpt lat="45.873500676825643" lon="9.467762717977166">
        <ele>1476.3099999999999</ele>
        <time>2020-09-13T07:48:56Z</time>
      </trkpt>
      <trkpt lat="45.873378971591592" lon="9.467751402407885">
        <ele>1477.6600000000001</ele>
        <time>2020-09-13T07:49:12Z</time>
      </trkpt>
      <trkpt lat="45.873271767050028" lon="9.467765484005213">
        <ele>1480.02</ele>
        <time>2020-09-13T07:49:29Z</time>
      </trkpt>
      <trkpt lat="45.873218039050698" lon="9.467767160385847">
        <ele>1481.5799999999999</ele>
        <time>2020-09-13T07:49:40Z</time>
      </trkpt>
      <trkpt lat="45.873079402372241" lon="9.467731872573495">
        <ele>1483.4300000000001</ele>
        <time>2020-09-13T07:49:54Z</time>
      </trkpt>
      <trkpt lat="45.873028188943863" lon="9.46782155893743">
        <ele>1485.3499999999999</ele>
        <time>2020-09-13T07:50:09Z</time>
      </trkpt>
      <trkpt lat="45.87299088947475" lon="9.467860702425242">
        <ele>1486.71</ele>
        <time>2020-09-13T07:50:24Z</time>
      </trkpt>
      <trkpt lat="45.872941017150879" lon="9.467884255573154">
        <ele>1488.9000000000001</ele>
        <time>2020-09-13T07:50:37Z</time>
      </trkpt>
      <trkpt lat="45.872874213382602" lon="9.467916777357459">
        <ele>1492.1400000000001</ele>
        <time>2020-09-13T07:50:53Z</time>
      </trkpt>
      <trkpt lat="45.872839596122503" lon="9.467949969694018">
        <ele>1494.0799999999999</ele>
        <time>2020-09-13T07:51:06Z</time>
      </trkpt>
      <trkpt lat="45.872777821496129" lon="9.467990705743432">
        <ele>1496.8699999999999</ele>
        <time>2020-09-13T07:51:24Z</time>
      </trkpt>
      <trkpt lat="45.872699534520507" lon="9.46803655475378">
        <ele>1499.3</ele>
        <time>2020-09-13T07:51:40Z</time>
      </trkpt>
      <trkpt lat="45.872688135132194" lon="9.468018282204866">
        <ele>1501.27</ele>
        <time>2020-09-13T07:51:56Z</time>
      </trkpt>
      <trkpt lat="45.872631054371595" lon="9.467971008270979">
        <ele>1502.9400000000001</ele>
        <time>2020-09-13T07:52:09Z</time>
      </trkpt>
      <trkpt lat="45.872593000531197" lon="9.467949466779828">
        <ele>1503.5999999999999</ele>
        <time>2020-09-13T07:52:22Z</time>
      </trkpt>
      <trkpt lat="45.872603310272098" lon="9.467924991622567">
        <ele>1502.1600000000001</ele>
        <time>2020-09-13T07:52:37Z</time>
      </trkpt>
      <trkpt lat="45.872609009966254" lon="9.467904791235924">
        <ele>1502.4400000000001</ele>
        <time>2020-09-13T07:52:59Z</time>
      </trkpt>
      <trkpt lat="45.872606243938208" lon="9.467908143997192">
        <ele>1502.6300000000001</ele>
        <time>2020-09-13T07:53:23Z</time>
      </trkpt>
      <trkpt lat="45.872594593092799" lon="9.467916274443269">
        <ele>1502.8</ele>
        <time>2020-09-13T07:54:09Z</time>
      </trkpt>
      <trkpt lat="45.872587719932199" lon="9.467930942773819">
        <ele>1503.1700000000001</ele>
        <time>2020-09-13T07:54:49Z</time>
      </trkpt>
      <trkpt lat="45.872577913105488" lon="9.467935804277659">
        <ele>1503.9000000000001</ele>
        <time>2020-09-13T07:55:02Z</time>
      </trkpt>
      <trkpt lat="45.872560646384954" lon="9.467890709638596">
        <ele>1503.9000000000001</ele>
        <time>2020-09-13T07:55:21Z</time>
      </trkpt>
      <trkpt lat="45.872545810416341" lon="9.467879477888346">
        <ele>1504.1099999999999</ele>
        <time>2020-09-13T07:55:45Z</time>
      </trkpt>
      <trkpt lat="45.872572045773268" lon="9.467881573364139">
        <ele>1504.3099999999999</ele>
        <time>2020-09-13T07:56:05Z</time>
      </trkpt>
      <trkpt lat="45.872565256431699" lon="9.467902611941099">
        <ele>1503.97</ele>
        <time>2020-09-13T07:56:25Z</time>
      </trkpt>
      <trkpt lat="45.872537009418011" lon="9.467909233644605">
        <ele>1504.72</ele>
        <time>2020-09-13T07:56:51Z</time>
      </trkpt>
      <trkpt lat="45.872541116550565" lon="9.467928847298026">
        <ele>1504.77</ele>
        <time>2020-09-13T07:57:11Z</time>
      </trkpt>
      <trkpt lat="45.872530555352569" lon="9.467926248908043">
        <ele>1504.99</ele>
        <time>2020-09-13T07:57:30Z</time>
      </trkpt>
      <trkpt lat="45.872496021911502" lon="9.467918034642935">
        <ele>1505.29</ele>
        <time>2020-09-13T07:57:53Z</time>
      </trkpt>
      <trkpt lat="45.872496273368597" lon="9.467902109026909">
        <ele>1505.47</ele>
        <time>2020-09-13T07:58:18Z</time>
      </trkpt>
      <trkpt lat="45.872503565624356" lon="9.467884423211217">
        <ele>1505.53</ele>
        <time>2020-09-13T07:58:38Z</time>
      </trkpt>
      <trkpt lat="45.872504319995642" lon="9.467876041308045">
        <ele>1506.3199999999999</ele>
        <time>2020-09-13T07:59:00Z</time>
      </trkpt>
      <trkpt lat="45.872474480420351" lon="9.467859109863639">
        <ele>1506.26</ele>
        <time>2020-09-13T07:59:23Z</time>
      </trkpt>
      <trkpt lat="45.872436594218016" lon="9.467850141227245">
        <ele>1506.3199999999999</ele>
        <time>2020-09-13T07:59:48Z</time>
      </trkpt>
      <trkpt lat="45.872450424358249" lon="9.46785475127399">
        <ele>1505.6400000000001</ele>
        <time>2020-09-13T08:00:08Z</time>
      </trkpt>
      <trkpt lat="45.872455788776278" lon="9.467851230874658">
        <ele>1506.79</ele>
        <time>2020-09-13T08:00:28Z</time>
      </trkpt>
      <trkpt lat="45.872462578117847" lon="9.467862797901034">
        <ele>1506.6700000000001</ele>
        <time>2020-09-13T08:00:46Z</time>
      </trkpt>
      <trkpt lat="45.872465260326862" lon="9.467848716303706">
        <ele>1507.1300000000001</ele>
        <time>2020-09-13T08:01:03Z</time>
      </trkpt>
      <trkpt lat="45.872446149587631" lon="9.467846788465977">
        <ele>1507.1300000000001</ele>
        <time>2020-09-13T08:01:22Z</time>
      </trkpt>
      <trkpt lat="45.872460231184959" lon="9.467840921133757">
        <ele>1507.3599999999999</ele>
        <time>2020-09-13T08:01:42Z</time>
      </trkpt>
      <trkpt lat="45.872434247285128" lon="9.467767411842942">
        <ele>1509.8099999999999</ele>
        <time>2020-09-13T08:01:56Z</time>
      </trkpt>
      <trkpt lat="45.872363587841392" lon="9.467735476791859">
        <ele>1511.3299999999999</ele>
        <time>2020-09-13T08:02:10Z</time>
      </trkpt>
      <trkpt lat="45.872307261452079" lon="9.467658614739776">
        <ele>1512.8800000000001</ele>
        <time>2020-09-13T08:02:25Z</time>
      </trkpt>
      <trkpt lat="45.872206008061767" lon="9.467556439340115">
        <ele>1514.1800000000001</ele>
        <time>2020-09-13T08:02:41Z</time>
      </trkpt>
      <trkpt lat="45.872172648087144" lon="9.467558367177844">
        <ele>1514.77</ele>
        <time>2020-09-13T08:02:56Z</time>
      </trkpt>
      <trkpt lat="45.872121518477798" lon="9.467532131820917">
        <ele>1515.7</ele>
        <time>2020-09-13T08:03:11Z</time>
      </trkpt>
      <trkpt lat="45.872111208736897" lon="9.467518888413906">
        <ele>1515.8099999999999</ele>
        <time>2020-09-13T08:03:18Z</time>
      </trkpt>
      <trkpt lat="45.872067790478468" lon="9.467449150979519">
        <ele>1518.3199999999999</ele>
        <time>2020-09-13T08:03:36Z</time>
      </trkpt>
      <trkpt lat="45.872098971158266" lon="9.467369774356484">
        <ele>1520.6099999999999</ele>
        <time>2020-09-13T08:03:49Z</time>
      </trkpt>
      <trkpt lat="45.872103832662106" lon="9.467308670282364">
        <ele>1522.24</ele>
        <time>2020-09-13T08:04:04Z</time>
      </trkpt>
      <trkpt lat="45.87208891287446" lon="9.467272628098726">
        <ele>1523.3499999999999</ele>
        <time>2020-09-13T08:04:20Z</time>
      </trkpt>
      <trkpt lat="45.872057564556599" lon="9.467204483225942">
        <ele>1525.8699999999999</ele>
        <time>2020-09-13T08:04:36Z</time>
      </trkpt>
      <trkpt lat="45.872016325592995" lon="9.467172548174858">
        <ele>1527.1600000000001</ele>
        <time>2020-09-13T08:04:51Z</time>
      </trkpt>
      <trkpt lat="45.871973745524883" lon="9.467154275625944">
        <ele>1529.23</ele>
        <time>2020-09-13T08:05:05Z</time>
      </trkpt>
      <trkpt lat="45.871945414692163" lon="9.467116054147482">
        <ele>1531.53</ele>
        <time>2020-09-13T08:05:20Z</time>
      </trkpt>
      <trkpt lat="45.871920688077807" lon="9.467067858204246">
        <ele>1532.8</ele>
        <time>2020-09-13T08:05:34Z</time>
      </trkpt>
      <trkpt lat="45.871877521276474" lon="9.467071378603578">
        <ele>1535.49</ele>
        <time>2020-09-13T08:05:50Z</time>
      </trkpt>
      <trkpt lat="45.871840389445424" lon="9.467029804363847">
        <ele>1536.49</ele>
        <time>2020-09-13T08:06:00Z</time>
      </trkpt>
      <trkpt lat="45.871796887367964" lon="9.46699183434248">
        <ele>1537.72</ele>
        <time>2020-09-13T08:06:10Z</time>
      </trkpt>
      <trkpt lat="45.871742404997349" lon="9.466939028352499">
        <ele>1539.5</ele>
        <time>2020-09-13T08:06:27Z</time>
      </trkpt>
      <trkpt lat="45.871691778302193" lon="9.466897370293737">
        <ele>1542.5699999999999</ele>
        <time>2020-09-13T08:06:40Z</time>
      </trkpt>
      <trkpt lat="45.871618017554283" lon="9.466871805489063">
        <ele>1545.28</ele>
        <time>2020-09-13T08:06:56Z</time>
      </trkpt>
      <trkpt lat="45.87154308333993" lon="9.466857137158513">
        <ele>1547.1700000000001</ele>
        <time>2020-09-13T08:07:11Z</time>
      </trkpt>
      <trkpt lat="45.871496060863137" lon="9.466822100803256">
        <ele>1549.3800000000001</ele>
        <time>2020-09-13T08:07:28Z</time>
      </trkpt>
      <trkpt lat="45.871453061699867" lon="9.466738784685731">
        <ele>1550.96</ele>
        <time>2020-09-13T08:07:42Z</time>
      </trkpt>
      <trkpt lat="45.871410649269819" lon="9.466750519350171">
        <ele>1553.0999999999999</ele>
        <time>2020-09-13T08:07:54Z</time>
      </trkpt>
      <trkpt lat="45.871375110000372" lon="9.466763930395246">
        <ele>1554.03</ele>
        <time>2020-09-13T08:08:05Z</time>
      </trkpt>
      <trkpt lat="45.871359603479505" lon="9.466718165203929">
        <ele>1555.3199999999999</ele>
        <time>2020-09-13T08:08:17Z</time>
      </trkpt>
      <trkpt lat="45.871342336758971" lon="9.466660497710109">
        <ele>1557.5699999999999</ele>
        <time>2020-09-13T08:08:28Z</time>
      </trkpt>
      <trkpt lat="45.871307887136936" lon="9.466660330072045">
        <ele>1559.75</ele>
        <time>2020-09-13T08:08:45Z</time>
      </trkpt>
      <trkpt lat="45.871287351474166" lon="9.466665610671043">
        <ele>1561.5599999999999</ele>
        <time>2020-09-13T08:08:58Z</time>
      </trkpt>
      <trkpt lat="45.871263965964317" lon="9.466626299545169">
        <ele>1562.8</ele>
        <time>2020-09-13T08:09:14Z</time>
      </trkpt>
      <trkpt lat="45.871274443343282" lon="9.466615403071046">
        <ele>1563.3299999999999</ele>
        <time>2020-09-13T08:09:29Z</time>
      </trkpt>
      <trkpt lat="45.87124016135931" lon="9.466577181592584">
        <ele>1564.9400000000001</ele>
        <time>2020-09-13T08:09:43Z</time>
      </trkpt>
      <trkpt lat="45.871243430301547" lon="9.466544408351183">
        <ele>1566.02</ele>
        <time>2020-09-13T08:09:54Z</time>
      </trkpt>
      <trkpt lat="45.871238736435771" lon="9.466524962335825">
        <ele>1567.0899999999999</ele>
        <time>2020-09-13T08:10:08Z</time>
      </trkpt>
      <trkpt lat="45.871227756142616" lon="9.466489003971219">
        <ele>1568.4300000000001</ele>
        <time>2020-09-13T08:10:20Z</time>
      </trkpt>
      <trkpt lat="45.871221972629428" lon="9.466482549905777">
        <ele>1570.04</ele>
        <time>2020-09-13T08:10:35Z</time>
      </trkpt>
      <trkpt lat="45.871219290420413" lon="9.466473497450352">
        <ele>1570.8</ele>
        <time>2020-09-13T08:10:48Z</time>
      </trkpt>
      <trkpt lat="45.871198587119579" lon="9.466470563784242">
        <ele>1571.77</ele>
        <time>2020-09-13T08:11:02Z</time>
      </trkpt>
      <trkpt lat="45.871183834969997" lon="9.466444160789251">
        <ele>1573.9000000000001</ele>
        <time>2020-09-13T08:11:13Z</time>
      </trkpt>
      <trkpt lat="45.871177464723587" lon="9.466428570449352">
        <ele>1575.3800000000001</ele>
        <time>2020-09-13T08:11:23Z</time>
      </trkpt>
      <trkpt lat="45.87115659378469" lon="9.466443825513125">
        <ele>1575.77</ele>
        <time>2020-09-13T08:11:37Z</time>
      </trkpt>
      <trkpt lat="45.871105128899217" lon="9.466425636783242">
        <ele>1578.0599999999999</ele>
        <time>2020-09-13T08:11:51Z</time>
      </trkpt>
      <trkpt lat="45.871092891320586" lon="9.466441813856363">
        <ele>1578.27</ele>
        <time>2020-09-13T08:12:07Z</time>
      </trkpt>
      <trkpt lat="45.871080905199051" lon="9.466431504115462">
        <ele>1578.6300000000001</ele>
        <time>2020-09-13T08:12:24Z</time>
      </trkpt>
      <trkpt lat="45.871063051745296" lon="9.466419601812959">
        <ele>1579.73</ele>
        <time>2020-09-13T08:12:36Z</time>
      </trkpt>
      <trkpt lat="45.871050814166665" lon="9.46644214913249">
        <ele>1581.3599999999999</ele>
        <time>2020-09-13T08:12:47Z</time>
      </trkpt>
      <trkpt lat="45.871042096987367" lon="9.466429827734828">
        <ele>1582.6600000000001</ele>
        <time>2020-09-13T08:12:50Z</time>
      </trkpt>
      <trkpt lat="45.871020052582026" lon="9.466398982331157">
        <ele>1584.8199999999999</ele>
        <time>2020-09-13T08:13:04Z</time>
      </trkpt>
      <trkpt lat="45.871003037318587" lon="9.466357408091426">
        <ele>1586.95</ele>
        <time>2020-09-13T08:13:15Z</time>
      </trkpt>
      <trkpt lat="45.870994320139289" lon="9.466356988996267">
        <ele>1587.9200000000001</ele>
        <time>2020-09-13T08:13:26Z</time>
      </trkpt>
      <trkpt lat="45.871001360937953" lon="9.466328071430326">
        <ele>1587.95</ele>
        <time>2020-09-13T08:13:42Z</time>
      </trkpt>
      <trkpt lat="45.870959786698222" lon="9.466323796659708">
        <ele>1589.75</ele>
        <time>2020-09-13T08:13:56Z</time>
      </trkpt>
      <trkpt lat="45.870942017063498" lon="9.466305859386921">
        <ele>1591.6199999999999</ele>
        <time>2020-09-13T08:14:05Z</time>
      </trkpt>
      <trkpt lat="45.870890216901898" lon="9.466262022033334">
        <ele>1593.29</ele>
        <time>2020-09-13T08:14:17Z</time>
      </trkpt>
      <trkpt lat="45.870848810300231" lon="9.466248275712133">
        <ele>1593.1700000000001</ele>
        <time>2020-09-13T08:14:27Z</time>
      </trkpt>
      <trkpt lat="45.870798267424107" lon="9.466251125559211">
        <ele>1595.0799999999999</ele>
        <time>2020-09-13T08:14:40Z</time>
      </trkpt>
      <trkpt lat="45.870763147249818" lon="9.46627258323133">
        <ele>1597.75</ele>
        <time>2020-09-13T08:14:53Z</time>
      </trkpt>
      <trkpt lat="45.87074026465416" lon="9.466264117509127">
        <ele>1599</ele>
        <time>2020-09-13T08:15:04Z</time>
      </trkpt>
      <trkpt lat="45.870706737041473" lon="9.466251125559211">
        <ele>1601.9200000000001</ele>
        <time>2020-09-13T08:15:17Z</time>
      </trkpt>
      <trkpt lat="45.870698690414429" lon="9.466258501634002">
        <ele>1603.6800000000001</ele>
        <time>2020-09-13T08:15:32Z</time>
      </trkpt>
      <trkpt lat="45.870694164186716" lon="9.46625548414886">
        <ele>1604.6400000000001</ele>
        <time>2020-09-13T08:15:50Z</time>
      </trkpt>
      <trkpt lat="45.870674131438136" lon="9.466239977627993">
        <ele>1606.3499999999999</ele>
        <time>2020-09-13T08:16:02Z</time>
      </trkpt>
      <trkpt lat="45.870653847232461" lon="9.466233104467392">
        <ele>1608.4000000000001</ele>
        <time>2020-09-13T08:16:14Z</time>
      </trkpt>
      <trkpt lat="45.870637502521276" lon="9.466208461672068">
        <ele>1610.1800000000001</ele>
        <time>2020-09-13T08:16:25Z</time>
      </trkpt>
      <trkpt lat="45.870617385953665" lon="9.466223046183586">
        <ele>1611.3900000000001</ele>
        <time>2020-09-13T08:16:38Z</time>
      </trkpt>
      <trkpt lat="45.870610009878874" lon="9.466224387288094">
        <ele>1612.6099999999999</ele>
        <time>2020-09-13T08:16:51Z</time>
      </trkpt>
      <trkpt lat="45.870591318234801" lon="9.466232266277075">
        <ele>1614.46</ele>
        <time>2020-09-13T08:17:06Z</time>
      </trkpt>
      <trkpt lat="45.870579164475203" lon="9.466199995949864">
        <ele>1615.6900000000001</ele>
        <time>2020-09-13T08:17:19Z</time>
      </trkpt>
      <trkpt lat="45.870567513629794" lon="9.466193038970232">
        <ele>1616.99</ele>
        <time>2020-09-13T08:17:28Z</time>
      </trkpt>
      <trkpt lat="45.870556449517608" lon="9.466154901310802">
        <ele>1618.7</ele>
        <time>2020-09-13T08:17:39Z</time>
      </trkpt>
      <trkpt lat="45.870528956875205" lon="9.46612405590713">
        <ele>1620.6199999999999</ele>
        <time>2020-09-13T08:17:49Z</time>
      </trkpt>
      <trkpt lat="45.870490903034806" lon="9.466109471395612">
        <ele>1622.3399999999999</ele>
        <time>2020-09-13T08:18:03Z</time>
      </trkpt>
      <trkpt lat="45.87046567350626" lon="9.466095054522157">
        <ele>1622.8599999999999</ele>
        <time>2020-09-13T08:18:15Z</time>
      </trkpt>
      <trkpt lat="45.870484951883554" lon="9.466079128906131">
        <ele>1623.8099999999999</ele>
        <time>2020-09-13T08:18:30Z</time>
      </trkpt>
      <trkpt lat="45.870511773973703" lon="9.466083319857717">
        <ele>1625.4000000000001</ele>
        <time>2020-09-13T08:18:41Z</time>
      </trkpt>
      <trkpt lat="45.870511187240481" lon="9.466069657355547">
        <ele>1625.78</ele>
        <time>2020-09-13T08:18:55Z</time>
      </trkpt>
      <trkpt lat="45.870508588850498" lon="9.46606982499361">
        <ele>1625.9100000000001</ele>
        <time>2020-09-13T08:19:09Z</time>
      </trkpt>
      <trkpt lat="45.87050917558372" lon="9.466031519696116">
        <ele>1625.5899999999999</ele>
        <time>2020-09-13T08:19:22Z</time>
      </trkpt>
      <trkpt lat="45.870512025430799" lon="9.466014001518488">
        <ele>1626.01</ele>
        <time>2020-09-13T08:19:37Z</time>
      </trkpt>
      <trkpt lat="45.870516635477543" lon="9.465990029275417">
        <ele>1627.3800000000001</ele>
        <time>2020-09-13T08:19:50Z</time>
      </trkpt>
      <trkpt lat="45.870508588850498" lon="9.465953148901463">
        <ele>1630.3699999999999</ele>
        <time>2020-09-13T08:20:04Z</time>
      </trkpt>
      <trkpt lat="45.870519652962685" lon="9.465934038162231">
        <ele>1631.53</ele>
        <time>2020-09-13T08:20:18Z</time>
      </trkpt>
      <trkpt lat="45.870519569143653" lon="9.465931775048375">
        <ele>1631.45</ele>
        <time>2020-09-13T08:20:44Z</time>
      </trkpt>
      <trkpt lat="45.870521077886224" lon="9.465936552733183">
        <ele>1631.5899999999999</ele>
        <time>2020-09-13T08:21:06Z</time>
      </trkpt>
      <trkpt lat="45.870514707639813" lon="9.465932864695787">
        <ele>1632.3199999999999</ele>
        <time>2020-09-13T08:21:20Z</time>
      </trkpt>
      <trkpt lat="45.870502637699246" lon="9.465906461700797">
        <ele>1632.5699999999999</ele>
        <time>2020-09-13T08:21:36Z</time>
      </trkpt>
      <trkpt lat="45.870484700426459" lon="9.465894140303135">
        <ele>1632.51</ele>
        <time>2020-09-13T08:21:58Z</time>
      </trkpt>
      <trkpt lat="45.870448909699917" lon="9.465847620740533">
        <ele>1633.0999999999999</ele>
        <time>2020-09-13T08:22:11Z</time>
      </trkpt>
      <trkpt lat="45.870441365987062" lon="9.465822223573923">
        <ele>1633.01</ele>
        <time>2020-09-13T08:22:23Z</time>
      </trkpt>
      <trkpt lat="45.870440695434809" lon="9.465801436454058">
        <ele>1632.9200000000001</ele>
        <time>2020-09-13T08:22:37Z</time>
      </trkpt>
      <trkpt lat="45.870436253026128" lon="9.465784085914493">
        <ele>1632.6199999999999</ele>
        <time>2020-09-13T08:22:55Z</time>
      </trkpt>
      <trkpt lat="45.870433235540986" lon="9.465772015973926">
        <ele>1632.3800000000001</ele>
        <time>2020-09-13T08:23:09Z</time>
      </trkpt>
      <trkpt lat="45.870432984083891" lon="9.46576002985239">
        <ele>1632</ele>
        <time>2020-09-13T08:23:22Z</time>
      </trkpt>
      <trkpt lat="45.870429212227464" lon="9.465760784223676">
        <ele>1631.5</ele>
        <time>2020-09-13T08:23:32Z</time>
      </trkpt>
      <trkpt lat="45.870422590523958" lon="9.465742008760572">
        <ele>1631.1300000000001</ele>
        <time>2020-09-13T08:23:48Z</time>
      </trkpt>
      <trkpt lat="45.870393589138985" lon="9.465637654066086">
        <ele>1631.6199999999999</ele>
        <time>2020-09-13T08:23:59Z</time>
      </trkpt>
      <trkpt lat="45.87035771459341" lon="9.465544950217009">
        <ele>1633.4100000000001</ele>
        <time>2020-09-13T08:24:13Z</time>
      </trkpt>
      <trkpt lat="45.870293760672212" lon="9.465513601899147">
        <ele>1630.8</ele>
        <time>2020-09-13T08:24:28Z</time>
      </trkpt>
      <trkpt lat="45.870263166725636" lon="9.465551320463419">
        <ele>1628.28</ele>
        <time>2020-09-13T08:24:39Z</time>
      </trkpt>
      <trkpt lat="45.870202984660864" lon="9.46550203487277">
        <ele>1625.26</ele>
        <time>2020-09-13T08:24:51Z</time>
      </trkpt>
      <trkpt lat="45.870142802596092" lon="9.465471692383289">
        <ele>1622.47</ele>
        <time>2020-09-13T08:25:00Z</time>
      </trkpt>
      <trkpt lat="45.870078261941671" lon="9.465391309931874">
        <ele>1623.0699999999999</ele>
        <time>2020-09-13T08:25:12Z</time>
      </trkpt>
      <trkpt lat="45.870008943602443" lon="9.465355267748237">
        <ele>1621.9200000000001</ele>
        <time>2020-09-13T08:25:23Z</time>
      </trkpt>
      <trkpt lat="45.869954880326986" lon="9.465314783155918">
        <ele>1622.3900000000001</ele>
        <time>2020-09-13T08:25:32Z</time>
      </trkpt>
      <trkpt lat="45.869905846193433" lon="9.465291565284133">
        <ele>1625.04</ele>
        <time>2020-09-13T08:25:45Z</time>
      </trkpt>
      <trkpt lat="45.869905846193433" lon="9.465285697951913">
        <ele>1626.53</ele>
        <time>2020-09-13T08:25:58Z</time>
      </trkpt>
      <trkpt lat="45.86990031413734" lon="9.465269856154919">
        <ele>1628.3900000000001</ele>
        <time>2020-09-13T08:26:07Z</time>
      </trkpt>
      <trkpt lat="45.869849771261215" lon="9.46521420031786">
        <ele>1629.5999999999999</ele>
        <time>2020-09-13T08:26:18Z</time>
      </trkpt>
      <trkpt lat="45.869840467348695" lon="9.465176062658429">
        <ele>1631.21</ele>
        <time>2020-09-13T08:26:29Z</time>
      </trkpt>
      <trkpt lat="45.869828062132001" lon="9.465157706290484">
        <ele>1633.0699999999999</ele>
        <time>2020-09-13T08:26:41Z</time>
      </trkpt>
      <trkpt lat="45.869808029383421" lon="9.465119149535894">
        <ele>1635.6300000000001</ele>
        <time>2020-09-13T08:26:52Z</time>
      </trkpt>
      <trkpt lat="45.869767460972071" lon="9.465061565861106">
        <ele>1638.1800000000001</ele>
        <time>2020-09-13T08:27:08Z</time>
      </trkpt>
      <trkpt lat="45.869705015793443" lon="9.465026194229722">
        <ele>1639.5999999999999</ele>
        <time>2020-09-13T08:27:20Z</time>
      </trkpt>
      <trkpt lat="45.869685737416148" lon="9.465001802891493">
        <ele>1641.1700000000001</ele>
        <time>2020-09-13T08:27:31Z</time>
      </trkpt>
      <trkpt lat="45.869667800143361" lon="9.465005323290825">
        <ele>1641.9100000000001</ele>
        <time>2020-09-13T08:27:43Z</time>
      </trkpt>
      <trkpt lat="45.869638463482261" lon="9.465017393231392">
        <ele>1642.9400000000001</ele>
        <time>2020-09-13T08:27:58Z</time>
      </trkpt>
      <trkpt lat="45.869616083800793" lon="9.464958719909191">
        <ele>1642.8900000000001</ele>
        <time>2020-09-13T08:28:16Z</time>
      </trkpt>
      <trkpt lat="45.869590770453215" lon="9.464938016608357">
        <ele>1642.1700000000001</ele>
        <time>2020-09-13T08:28:20Z</time>
      </trkpt>
      <trkpt lat="45.869575263932347" lon="9.464924186468124">
        <ele>1642.0699999999999</ele>
        <time>2020-09-13T08:28:22Z</time>
      </trkpt>
      <trkpt lat="45.869546933099627" lon="9.464863082394004">
        <ele>1642.4400000000001</ele>
        <time>2020-09-13T08:28:33Z</time>
      </trkpt>
      <trkpt lat="45.869549615308642" lon="9.464851599186659">
        <ele>1642.5899999999999</ele>
        <time>2020-09-13T08:28:51Z</time>
      </trkpt>
      <trkpt lat="45.869552046060562" lon="9.46485067717731">
        <ele>1642.97</ele>
        <time>2020-09-13T08:29:09Z</time>
      </trkpt>
      <trkpt lat="45.869546430185437" lon="9.464847911149263">
        <ele>1643.0699999999999</ele>
        <time>2020-09-13T08:29:23Z</time>
      </trkpt>
      <trkpt lat="45.869531007483602" lon="9.464819747954607">
        <ele>1643.9100000000001</ele>
        <time>2020-09-13T08:29:34Z</time>
      </trkpt>
      <trkpt lat="45.869509633630514" lon="9.464794937521219">
        <ele>1646.5</ele>
        <time>2020-09-13T08:29:47Z</time>
      </trkpt>
      <trkpt lat="45.869497815147042" lon="9.464799212291837">
        <ele>1647.45</ele>
        <time>2020-09-13T08:30:02Z</time>
      </trkpt>
      <trkpt lat="45.869486918672919" lon="9.464793764054775">
        <ele>1648.6099999999999</ele>
        <time>2020-09-13T08:30:20Z</time>
      </trkpt>
      <trkpt lat="45.869487337768078" lon="9.4647925067693">
        <ele>1648.9200000000001</ele>
        <time>2020-09-13T08:30:43Z</time>
      </trkpt>
      <trkpt lat="45.869477614760399" lon="9.464756045490503">
        <ele>1650.78</ele>
        <time>2020-09-13T08:30:57Z</time>
      </trkpt>
      <trkpt lat="45.86947032250464" lon="9.464754955843091">
        <ele>1651.77</ele>
        <time>2020-09-13T08:31:10Z</time>
      </trkpt>
      <trkpt lat="45.869469568133354" lon="9.464754872024059">
        <ele>1652.2</ele>
        <time>2020-09-13T08:31:29Z</time>
      </trkpt>
      <trkpt lat="45.869470993056893" lon="9.464757889509201">
        <ele>1652</ele>
        <time>2020-09-13T08:31:57Z</time>
      </trkpt>
      <trkpt lat="45.869454564526677" lon="9.464728301391006">
        <ele>1653.04</ele>
        <time>2020-09-13T08:32:24Z</time>
      </trkpt>
      <trkpt lat="45.869437381625175" lon="9.464697875082493">
        <ele>1655.28</ele>
        <time>2020-09-13T08:32:36Z</time>
      </trkpt>
      <trkpt lat="45.869433023035526" lon="9.464679937809706">
        <ele>1655.98</ele>
        <time>2020-09-13T08:32:54Z</time>
      </trkpt>
      <trkpt lat="45.869413744658232" lon="9.464670550078154">
        <ele>1656.6400000000001</ele>
        <time>2020-09-13T08:33:10Z</time>
      </trkpt>
      <trkpt lat="45.869413744658232" lon="9.464650014415383">
        <ele>1657.8299999999999</ele>
        <time>2020-09-13T08:33:27Z</time>
      </trkpt>
      <trkpt lat="45.869404943659902" lon="9.464630987495184">
        <ele>1658.95</ele>
        <time>2020-09-13T08:33:41Z</time>
      </trkpt>
      <trkpt lat="45.869398405775428" lon="9.464625371620059">
        <ele>1658.8299999999999</ele>
        <time>2020-09-13T08:33:56Z</time>
      </trkpt>
      <trkpt lat="45.869386671110988" lon="9.464617073535919">
        <ele>1659.2</ele>
        <time>2020-09-13T08:34:16Z</time>
      </trkpt>
      <trkpt lat="45.869352137669921" lon="9.464595532044768">
        <ele>1660.4100000000001</ele>
        <time>2020-09-13T08:34:28Z</time>
      </trkpt>
      <trkpt lat="45.869360435754061" lon="9.46456435136497">
        <ele>1661.98</ele>
        <time>2020-09-13T08:34:43Z</time>
      </trkpt>
      <trkpt lat="45.869343923404813" lon="9.464518669992685">
        <ele>1664.04</ele>
        <time>2020-09-13T08:34:53Z</time>
      </trkpt>
      <trkpt lat="45.869334535673261" lon="9.464492183178663">
        <ele>1665.3199999999999</ele>
        <time>2020-09-13T08:35:07Z</time>
      </trkpt>
      <trkpt lat="45.869321124628186" lon="9.464467959478498">
        <ele>1666.2</ele>
        <time>2020-09-13T08:35:20Z</time>
      </trkpt>
      <trkpt lat="45.869282484054565" lon="9.464371567592025">
        <ele>1668.0699999999999</ele>
        <time>2020-09-13T08:35:33Z</time>
      </trkpt>
      <trkpt lat="45.869266809895635" lon="9.464298812672496">
        <ele>1670.6800000000001</ele>
        <time>2020-09-13T08:35:45Z</time>
      </trkpt>
      <trkpt lat="45.869209645316005" lon="9.464215496554971">
        <ele>1671.6800000000001</ele>
        <time>2020-09-13T08:35:57Z</time>
      </trkpt>
      <trkpt lat="45.869166813790798" lon="9.46414458565414">
        <ele>1671.95</ele>
        <time>2020-09-13T08:36:09Z</time>
      </trkpt>
      <trkpt lat="45.869132364168763" lon="9.464121535420418">
        <ele>1672.05</ele>
        <time>2020-09-13T08:36:18Z</time>
      </trkpt>
      <trkpt lat="45.869120629504323" lon="9.464089768007398">
        <ele>1672.04</ele>
        <time>2020-09-13T08:36:21Z</time>
      </trkpt>
      <trkpt lat="45.869080144912004" lon="9.464039308950305">
        <ele>1672.1700000000001</ele>
        <time>2020-09-13T08:36:27Z</time>
      </trkpt>
      <trkpt lat="45.868999343365431" lon="9.463969487696886">
        <ele>1672.29</ele>
        <time>2020-09-13T08:36:40Z</time>
      </trkpt>
      <trkpt lat="45.868949387222528" lon="9.463866641744971">
        <ele>1673.74</ele>
        <time>2020-09-13T08:36:52Z</time>
      </trkpt>
      <trkpt lat="45.868877470493317" lon="9.463788941502571">
        <ele>1675.6300000000001</ele>
        <time>2020-09-13T08:37:06Z</time>
      </trkpt>
      <trkpt lat="45.868817958980799" lon="9.463757844641805">
        <ele>1677.03</ele>
        <time>2020-09-13T08:37:20Z</time>
      </trkpt>
      <trkpt lat="45.868759537115693" lon="9.463720377534628">
        <ele>1677.75</ele>
        <time>2020-09-13T08:37:33Z</time>
      </trkpt>
      <trkpt lat="45.868702372536063" lon="9.463668828830123">
        <ele>1679.5599999999999</ele>
        <time>2020-09-13T08:37:46Z</time>
      </trkpt>
      <trkpt lat="45.868658116087317" lon="9.463581657037139">
        <ele>1680.75</ele>
        <time>2020-09-13T08:37:59Z</time>
      </trkpt>
      <trkpt lat="45.86857127957046" lon="9.463453413918614">
        <ele>1679.9100000000001</ele>
        <time>2020-09-13T08:38:14Z</time>
      </trkpt>
      <trkpt lat="45.868552168831229" lon="9.463441930711269">
        <ele>1679.3399999999999</ele>
        <time>2020-09-13T08:38:17Z</time>
      </trkpt>
      <trkpt lat="45.868480755016208" lon="9.463390130549669">
        <ele>1678.3099999999999</ele>
        <time>2020-09-13T08:38:28Z</time>
      </trkpt>
      <trkpt lat="45.868438677862287" lon="9.463363643735647">
        <ele>1679.27</ele>
        <time>2020-09-13T08:38:42Z</time>
      </trkpt>
      <trkpt lat="45.868431217968464" lon="9.463381748646498">
        <ele>1679.3099999999999</ele>
        <time>2020-09-13T08:39:02Z</time>
      </trkpt>
      <trkpt lat="45.868419231846929" lon="9.463343694806099">
        <ele>1680.4400000000001</ele>
        <time>2020-09-13T08:39:12Z</time>
      </trkpt>
      <trkpt lat="45.868420572951436" lon="9.463323662057519">
        <ele>1681.5599999999999</ele>
        <time>2020-09-13T08:39:28Z</time>
      </trkpt>
      <trkpt lat="45.868417806923389" lon="9.463320644572377">
        <ele>1681.7</ele>
        <time>2020-09-13T08:39:42Z</time>
      </trkpt>
      <trkpt lat="45.868421914055943" lon="9.463320057839155">
        <ele>1681.9000000000001</ele>
        <time>2020-09-13T08:40:01Z</time>
      </trkpt>
      <trkpt lat="45.868411688134074" lon="9.463309245184064">
        <ele>1682.1800000000001</ele>
        <time>2020-09-13T08:40:22Z</time>
      </trkpt>
      <trkpt lat="45.868410766124725" lon="9.463294660672545">
        <ele>1681.3399999999999</ele>
        <time>2020-09-13T08:40:35Z</time>
      </trkpt>
      <trkpt lat="45.868406826630235" lon="9.463290888816118">
        <ele>1681.3399999999999</ele>
        <time>2020-09-13T08:40:48Z</time>
      </trkpt>
      <trkpt lat="45.868387129157782" lon="9.463280746713281">
        <ele>1682.0699999999999</ele>
        <time>2020-09-13T08:41:11Z</time>
      </trkpt>
      <trkpt lat="45.868400288745761" lon="9.46328024379909">
        <ele>1682.47</ele>
        <time>2020-09-13T08:41:30Z</time>
      </trkpt>
      <trkpt lat="45.868373131379485" lon="9.463217044249177">
        <ele>1683.04</ele>
        <time>2020-09-13T08:41:45Z</time>
      </trkpt>
      <trkpt lat="45.868293670937419" lon="9.463200615718961">
        <ele>1683.5599999999999</ele>
        <time>2020-09-13T08:41:56Z</time>
      </trkpt>
      <trkpt lat="45.868256203830242" lon="9.463156946003437">
        <ele>1685.6500000000001</ele>
        <time>2020-09-13T08:42:09Z</time>
      </trkpt>
      <trkpt lat="45.868255533277988" lon="9.463153090327978">
        <ele>1685.8499999999999</ele>
        <time>2020-09-13T08:42:28Z</time>
      </trkpt>
      <trkpt lat="45.86825167760253" lon="9.463141607120633">
        <ele>1686.01</ele>
        <time>2020-09-13T08:42:45Z</time>
      </trkpt>
      <trkpt lat="45.86822678335011" lon="9.463064661249518">
        <ele>1686.1900000000001</ele>
        <time>2020-09-13T08:42:58Z</time>
      </trkpt>
      <trkpt lat="45.868192836642265" lon="9.463023925200105">
        <ele>1686.6400000000001</ele>
        <time>2020-09-13T08:43:10Z</time>
      </trkpt>
      <trkpt lat="45.868187136948109" lon="9.463013531640172">
        <ele>1686.6300000000001</ele>
        <time>2020-09-13T08:43:11Z</time>
      </trkpt>
      <trkpt lat="45.868088062852621" lon="9.462917223572731">
        <ele>1686.7</ele>
        <time>2020-09-13T08:43:24Z</time>
      </trkpt>
      <trkpt lat="45.8679941855371" lon="9.462875984609127">
        <ele>1687.5799999999999</ele>
        <time>2020-09-13T08:43:39Z</time>
      </trkpt>
      <trkpt lat="45.867963340133429" lon="9.462856706231833">
        <ele>1687.02</ele>
        <time>2020-09-13T08:43:50Z</time>
      </trkpt>
      <trkpt lat="45.867923609912395" lon="9.462856873869896">
        <ele>1687.73</ele>
        <time>2020-09-13T08:44:01Z</time>
      </trkpt>
      <trkpt lat="45.867910869419575" lon="9.462853604927659">
        <ele>1687.76</ele>
        <time>2020-09-13T08:44:06Z</time>
      </trkpt>
      <trkpt lat="45.867839874699712" lon="9.462809767574072">
        <ele>1687.45</ele>
        <time>2020-09-13T08:44:16Z</time>
      </trkpt>
      <trkpt lat="45.867791175842285" lon="9.462765427306294">
        <ele>1688.21</ele>
        <time>2020-09-13T08:44:27Z</time>
      </trkpt>
      <trkpt lat="45.867783380672336" lon="9.462742125615478">
        <ele>1688.5899999999999</ele>
        <time>2020-09-13T08:44:40Z</time>
      </trkpt>
      <trkpt lat="45.867763683199883" lon="9.462693426758051">
        <ele>1689.4200000000001</ele>
        <time>2020-09-13T08:44:56Z</time>
      </trkpt>
      <trkpt lat="45.867754882201552" lon="9.462647242471576">
        <ele>1690.5599999999999</ele>
        <time>2020-09-13T08:45:08Z</time>
      </trkpt>
      <trkpt lat="45.86775622330606" lon="9.462623270228505">
        <ele>1691.1900000000001</ele>
        <time>2020-09-13T08:45:20Z</time>
      </trkpt>
      <trkpt lat="45.867775585502386" lon="9.462610529735684">
        <ele>1692.3299999999999</ele>
        <time>2020-09-13T08:45:33Z</time>
      </trkpt>
      <trkpt lat="45.867799641564488" lon="9.462601980194449">
        <ele>1693.4300000000001</ele>
        <time>2020-09-13T08:45:47Z</time>
      </trkpt>
      <trkpt lat="45.867796037346125" lon="9.462554957717657">
        <ele>1695.5599999999999</ele>
        <time>2020-09-13T08:45:59Z</time>
      </trkpt>
      <trkpt lat="45.867777513340116" lon="9.462527884170413">
        <ele>1697.49</ele>
        <time>2020-09-13T08:46:11Z</time>
      </trkpt>
      <trkpt lat="45.867785224691033" lon="9.462490668520331">
        <ele>1699.21</ele>
        <time>2020-09-13T08:46:24Z</time>
      </trkpt>
      <trkpt lat="45.867774579674006" lon="9.462458482012153">
        <ele>1701.5699999999999</ele>
        <time>2020-09-13T08:46:36Z</time>
      </trkpt>
      <trkpt lat="45.867775250226259" lon="9.462422272190452">
        <ele>1703.29</ele>
        <time>2020-09-13T08:46:46Z</time>
      </trkpt>
      <trkpt lat="45.867746667936444" lon="9.462355133146048">
        <ele>1705.6800000000001</ele>
        <time>2020-09-13T08:47:00Z</time>
      </trkpt>
      <trkpt lat="45.867745578289032" lon="9.462335770949721">
        <ele>1706.5</ele>
        <time>2020-09-13T08:47:10Z</time>
      </trkpt>
      <trkpt lat="45.867744069546461" lon="9.46233275346458">
        <ele>1706.6600000000001</ele>
        <time>2020-09-13T08:47:15Z</time>
      </trkpt>
      <trkpt lat="45.867675002664328" lon="9.462214568629861">
        <ele>1708.04</ele>
        <time>2020-09-13T08:47:30Z</time>
      </trkpt>
      <trkpt lat="45.867632674053311" lon="9.46219302713871">
        <ele>1710.26</ele>
        <time>2020-09-13T08:47:42Z</time>
      </trkpt>
      <trkpt lat="45.867619514465332" lon="9.462184561416507">
        <ele>1711.4400000000001</ele>
        <time>2020-09-13T08:47:56Z</time>
      </trkpt>
      <trkpt lat="45.86761549115181" lon="9.46215245872736">
        <ele>1713.03</ele>
        <time>2020-09-13T08:48:07Z</time>
      </trkpt>
      <trkpt lat="45.867607360705733" lon="9.462119434028864">
        <ele>1714.5799999999999</ele>
        <time>2020-09-13T08:48:21Z</time>
      </trkpt>
      <trkpt lat="45.867620185017586" lon="9.46208456531167">
        <ele>1716.6600000000001</ele>
        <time>2020-09-13T08:48:32Z</time>
      </trkpt>
      <trkpt lat="45.867616748437285" lon="9.462051624432206">
        <ele>1717.4400000000001</ele>
        <time>2020-09-13T08:48:50Z</time>
      </trkpt>
      <trkpt lat="45.867606271058321" lon="9.462034776806831">
        <ele>1717.95</ele>
        <time>2020-09-13T08:49:13Z</time>
      </trkpt>
      <trkpt lat="45.867591267451644" lon="9.461994543671608">
        <ele>1719.51</ele>
        <time>2020-09-13T08:49:24Z</time>
      </trkpt>
      <trkpt lat="45.867586322128773" lon="9.461979372426868">
        <ele>1720.73</ele>
        <time>2020-09-13T08:49:39Z</time>
      </trkpt>
      <trkpt lat="45.867589088156819" lon="9.461985407397151">
        <ele>1721</ele>
        <time>2020-09-13T08:50:04Z</time>
      </trkpt>
      <trkpt lat="45.86758422665298" lon="9.461971744894981">
        <ele>1721.23</ele>
        <time>2020-09-13T08:50:22Z</time>
      </trkpt>
      <trkpt lat="45.867560422047973" lon="9.461949365213513">
        <ele>1723.76</ele>
        <time>2020-09-13T08:50:34Z</time>
      </trkpt>
      <trkpt lat="45.867547430098057" lon="9.461940312758088">
        <ele>1724.01</ele>
        <time>2020-09-13T08:50:50Z</time>
      </trkpt>
      <trkpt lat="45.867533851414919" lon="9.46194919757545">
        <ele>1724.6300000000001</ele>
        <time>2020-09-13T08:51:08Z</time>
      </trkpt>
      <trkpt lat="45.867536701261997" lon="9.461949029937387">
        <ele>1725.0899999999999</ele>
        <time>2020-09-13T08:51:27Z</time>
      </trkpt>
      <trkpt lat="45.86752513423562" lon="9.461942659690976">
        <ele>1726.6500000000001</ele>
        <time>2020-09-13T08:51:44Z</time>
      </trkpt>
      <trkpt lat="45.867512561380863" lon="9.461901839822531">
        <ele>1728.8399999999999</ele>
        <time>2020-09-13T08:51:58Z</time>
      </trkpt>
      <trkpt lat="45.867493283003569" lon="9.461892871186137">
        <ele>1730.3399999999999</ele>
        <time>2020-09-13T08:52:14Z</time>
      </trkpt>
      <trkpt lat="45.867460509762168" lon="9.46194089949131">
        <ele>1732.2</ele>
        <time>2020-09-13T08:52:26Z</time>
      </trkpt>
      <trkpt lat="45.867434777319431" lon="9.461932182312012">
        <ele>1733.79</ele>
        <time>2020-09-13T08:52:37Z</time>
      </trkpt>
      <trkpt lat="45.867414996027946" lon="9.46188566274941">
        <ele>1736.2</ele>
        <time>2020-09-13T08:52:51Z</time>
      </trkpt>
      <trkpt lat="45.867392951622605" lon="9.461868396028876">
        <ele>1736.9200000000001</ele>
        <time>2020-09-13T08:53:03Z</time>
      </trkpt>
      <trkpt lat="45.867356490343809" lon="9.46180603466928">
        <ele>1739.47</ele>
        <time>2020-09-13T08:53:17Z</time>
      </trkpt>
      <trkpt lat="45.867362609133124" lon="9.461793294176459">
        <ele>1739.5</ele>
        <time>2020-09-13T08:53:40Z</time>
      </trkpt>
      <trkpt lat="45.867350874468684" lon="9.461768819019198">
        <ele>1739.6800000000001</ele>
        <time>2020-09-13T08:54:05Z</time>
      </trkpt>
      <trkpt lat="45.867346180602908" lon="9.461760269477963">
        <ele>1740.1900000000001</ele>
        <time>2020-09-13T08:54:21Z</time>
      </trkpt>
      <trkpt lat="45.867343246936798" lon="9.461758341640234">
        <ele>1740.03</ele>
        <time>2020-09-13T08:54:37Z</time>
      </trkpt>
      <trkpt lat="45.867308462038636" lon="9.461732022464275">
        <ele>1741.1500000000001</ele>
        <time>2020-09-13T08:54:49Z</time>
      </trkpt>
      <trkpt lat="45.867269234731793" lon="9.461690280586481">
        <ele>1743.0999999999999</ele>
        <time>2020-09-13T08:54:59Z</time>
      </trkpt>
      <trkpt lat="45.867256326600909" lon="9.461669074371457">
        <ele>1743.5799999999999</ele>
        <time>2020-09-13T08:55:13Z</time>
      </trkpt>
      <trkpt lat="45.867256326600909" lon="9.461666475981474">
        <ele>1743.97</ele>
        <time>2020-09-13T08:55:30Z</time>
      </trkpt>
      <trkpt lat="45.867260433733463" lon="9.461661279201508">
        <ele>1743.97</ele>
        <time>2020-09-13T08:55:49Z</time>
      </trkpt>
      <trkpt lat="45.867261774837971" lon="9.46166044101119">
        <ele>1744.2</ele>
        <time>2020-09-13T08:56:02Z</time>
      </trkpt>
      <trkpt lat="45.867277448996902" lon="9.461681479588151">
        <ele>1743.77</ele>
        <time>2020-09-13T08:56:14Z</time>
      </trkpt>
      <trkpt lat="45.867280215024948" lon="9.461682820692658">
        <ele>1743.96</ele>
        <time>2020-09-13T08:56:31Z</time>
      </trkpt>
      <trkpt lat="45.867288764566183" lon="9.461718443781138">
        <ele>1742.96</ele>
        <time>2020-09-13T08:56:52Z</time>
      </trkpt>
      <trkpt lat="45.867315167561173" lon="9.461742835119367">
        <ele>1742.26</ele>
        <time>2020-09-13T08:57:02Z</time>
      </trkpt>
      <trkpt lat="45.86731449700892" lon="9.461757335811853">
        <ele>1741.6300000000001</ele>
        <time>2020-09-13T08:57:23Z</time>
      </trkpt>
      <trkpt lat="45.86730083450675" lon="9.461759766563773">
        <ele>1741.71</ele>
        <time>2020-09-13T08:57:39Z</time>
      </trkpt>
      <trkpt lat="45.867292452603579" lon="9.461761191487312">
        <ele>1741.3099999999999</ele>
        <time>2020-09-13T08:57:56Z</time>
      </trkpt>
      <trkpt lat="45.867287255823612" lon="9.461757754907012">
        <ele>1740.5</ele>
        <time>2020-09-13T08:58:12Z</time>
      </trkpt>
      <trkpt lat="45.86726957000792" lon="9.461756749078631">
        <ele>1738.78</ele>
        <time>2020-09-13T08:58:28Z</time>
      </trkpt>
      <trkpt lat="45.867221290245652" lon="9.46177183650434">
        <ele>1736.3399999999999</ele>
        <time>2020-09-13T08:58:41Z</time>
      </trkpt>
      <trkpt lat="45.867194719612598" lon="9.461767310276628">
        <ele>1734.9300000000001</ele>
        <time>2020-09-13T08:58:53Z</time>
      </trkpt>
      <trkpt lat="45.867205196991563" lon="9.461779044941068">
        <ele>1734.3599999999999</ele>
        <time>2020-09-13T08:59:06Z</time>
      </trkpt>
      <trkpt lat="45.867196060717106" lon="9.461790779605508">
        <ele>1732.9100000000001</ele>
        <time>2020-09-13T08:59:19Z</time>
      </trkpt>
      <trkpt lat="45.867143087089062" lon="9.461752222850919">
        <ele>1732.46</ele>
        <time>2020-09-13T08:59:29Z</time>
      </trkpt>
      <trkpt lat="45.867121294140816" lon="9.461742835119367">
        <ele>1731.1900000000001</ele>
        <time>2020-09-13T08:59:43Z</time>
      </trkpt>
      <trkpt lat="45.867115762084723" lon="9.461738057434559">
        <ele>1731.1400000000001</ele>
        <time>2020-09-13T09:00:00Z</time>
      </trkpt>
      <trkpt lat="45.867115259170532" lon="9.461740655824542">
        <ele>1731.0699999999999</ele>
        <time>2020-09-13T09:00:12Z</time>
      </trkpt>
      <trkpt lat="45.867109978571534" lon="9.461736045777798">
        <ele>1730.8299999999999</ele>
        <time>2020-09-13T09:00:28Z</time>
      </trkpt>
      <trkpt lat="45.867091286927462" lon="9.461722550913692">
        <ele>1729.98</ele>
        <time>2020-09-13T09:00:42Z</time>
      </trkpt>
      <trkpt lat="45.867100339382887" lon="9.4617635384202">
        <ele>1728.73</ele>
        <time>2020-09-13T09:00:56Z</time>
      </trkpt>
      <trkpt lat="45.867075948044658" lon="9.461777536198497">
        <ele>1726.74</ele>
        <time>2020-09-13T09:01:06Z</time>
      </trkpt>
      <trkpt lat="45.867033032700419" lon="9.461779380217195">
        <ele>1724.8599999999999</ele>
        <time>2020-09-13T09:01:17Z</time>
      </trkpt>
      <trkpt lat="45.867014173418283" lon="9.461824642494321">
        <ele>1722.72</ele>
        <time>2020-09-13T09:01:29Z</time>
      </trkpt>
      <trkpt lat="45.866998331621289" lon="9.461847860366106">
        <ele>1721.6900000000001</ele>
        <time>2020-09-13T09:01:39Z</time>
      </trkpt>
      <trkpt lat="45.866987938061357" lon="9.461878538131714">
        <ele>1719.7</ele>
        <time>2020-09-13T09:01:51Z</time>
      </trkpt>
      <trkpt lat="45.866964971646667" lon="9.461869234219194">
        <ele>1718.72</ele>
        <time>2020-09-13T09:02:04Z</time>
      </trkpt>
      <trkpt lat="45.866942591965199" lon="9.461872586980462">
        <ele>1716.8699999999999</ele>
        <time>2020-09-13T09:02:13Z</time>
      </trkpt>
      <trkpt lat="45.866937395185232" lon="9.461864288896322">
        <ele>1717.05</ele>
        <time>2020-09-13T09:02:26Z</time>
      </trkpt>
      <trkpt lat="45.866920128464699" lon="9.461872670799494">
        <ele>1716.5699999999999</ele>
        <time>2020-09-13T09:02:40Z</time>
      </trkpt>
      <trkpt lat="45.866897329688072" lon="9.46187543682754">
        <ele>1716.1400000000001</ele>
        <time>2020-09-13T09:02:42Z</time>
      </trkpt>
      <trkpt lat="45.866768918931484" lon="9.461884992197156">
        <ele>1715.5899999999999</ele>
        <time>2020-09-13T09:02:55Z</time>
      </trkpt>
      <trkpt lat="45.866710245609283" lon="9.461907623335719">
        <ele>1713.75</ele>
        <time>2020-09-13T09:03:06Z</time>
      </trkpt>
      <trkpt lat="45.866665653884411" lon="9.461951544508338">
        <ele>1714.05</ele>
        <time>2020-09-13T09:03:16Z</time>
      </trkpt>
      <trkpt lat="45.866605304181576" lon="9.461952298879623">
        <ele>1713.72</ele>
        <time>2020-09-13T09:03:28Z</time>
      </trkpt>
      <trkpt lat="45.866544954478741" lon="9.461937211453915">
        <ele>1715.4200000000001</ele>
        <time>2020-09-13T09:03:42Z</time>
      </trkpt>
      <trkpt lat="45.866512348875403" lon="9.461937379091978">
        <ele>1716.8699999999999</ele>
        <time>2020-09-13T09:03:52Z</time>
      </trkpt>
      <trkpt lat="45.866441689431667" lon="9.461946180090308">
        <ele>1717.6600000000001</ele>
        <time>2020-09-13T09:04:03Z</time>
      </trkpt>
      <trkpt lat="45.866395337507129" lon="9.461961770430207">
        <ele>1717.4300000000001</ele>
        <time>2020-09-13T09:04:14Z</time>
      </trkpt>
      <trkpt lat="45.866341274231672" lon="9.461996974423528">
        <ele>1717.8900000000001</ele>
        <time>2020-09-13T09:04:28Z</time>
      </trkpt>
      <trkpt lat="45.866310345008969" lon="9.462007284164429">
        <ele>1717.76</ele>
        <time>2020-09-13T09:04:39Z</time>
      </trkpt>
      <trkpt lat="45.866276733577251" lon="9.462002506479621">
        <ele>1716.21</ele>
        <time>2020-09-13T09:05:01Z</time>
      </trkpt>
      <trkpt lat="45.866252677515149" lon="9.461999740451574">
        <ele>1715.3199999999999</ele>
        <time>2020-09-13T09:05:14Z</time>
      </trkpt>
      <trkpt lat="45.866236751899123" lon="9.46200585924089">
        <ele>1714.4100000000001</ele>
        <time>2020-09-13T09:05:28Z</time>
      </trkpt>
      <trkpt lat="45.866187131032348" lon="9.462058329954743">
        <ele>1711.3099999999999</ele>
        <time>2020-09-13T09:05:42Z</time>
      </trkpt>
      <trkpt lat="45.866152010858059" lon="9.462096048519015">
        <ele>1708.27</ele>
        <time>2020-09-13T09:05:55Z</time>
      </trkpt>
      <trkpt lat="45.866157962009311" lon="9.462187327444553">
        <ele>1705.3099999999999</ele>
        <time>2020-09-13T09:06:10Z</time>
      </trkpt>
      <trkpt lat="45.866155363619328" lon="9.462209371849895">
        <ele>1704.8099999999999</ele>
        <time>2020-09-13T09:06:23Z</time>
      </trkpt>
      <trkpt lat="45.866153184324503" lon="9.462251951918006">
        <ele>1703.1600000000001</ele>
        <time>2020-09-13T09:06:45Z</time>
      </trkpt>
      <trkpt lat="45.866144048050046" lon="9.462307272478938">
        <ele>1701.28</ele>
        <time>2020-09-13T09:06:56Z</time>
      </trkpt>
      <trkpt lat="45.866119153797626" lon="9.462372483685613">
        <ele>1699.0999999999999</ele>
        <time>2020-09-13T09:07:09Z</time>
      </trkpt>
      <trkpt lat="45.86611052043736" lon="9.462404670193791">
        <ele>1698.46</ele>
        <time>2020-09-13T09:07:29Z</time>
      </trkpt>
      <trkpt lat="45.866082524880767" lon="9.462445992976427">
        <ele>1697.0899999999999</ele>
        <time>2020-09-13T09:07:42Z</time>
      </trkpt>
      <trkpt lat="45.866073807701468" lon="9.462463594973087">
        <ele>1696.8399999999999</ele>
        <time>2020-09-13T09:08:03Z</time>
      </trkpt>
      <trkpt lat="45.866060731932521" lon="9.462476335465908">
        <ele>1696.5599999999999</ele>
        <time>2020-09-13T09:08:20Z</time>
      </trkpt>
      <trkpt lat="45.866039525717497" lon="9.462520089000464">
        <ele>1695.8599999999999</ele>
        <time>2020-09-13T09:08:35Z</time>
      </trkpt>
      <trkpt lat="45.865985043346882" lon="9.462535092607141">
        <ele>1697.71</ele>
        <time>2020-09-13T09:08:47Z</time>
      </trkpt>
      <trkpt lat="45.865941541269422" lon="9.462514976039529">
        <ele>1700.6500000000001</ele>
        <time>2020-09-13T09:08:59Z</time>
      </trkpt>
      <trkpt lat="45.865880269557238" lon="9.462567446753383">
        <ele>1702.76</ele>
        <time>2020-09-13T09:09:12Z</time>
      </trkpt>
      <trkpt lat="45.865832911804318" lon="9.462614804506302">
        <ele>1705.1800000000001</ele>
        <time>2020-09-13T09:09:24Z</time>
      </trkpt>
      <trkpt lat="45.865779686719179" lon="9.462650259956718">
        <ele>1706.3900000000001</ele>
        <time>2020-09-13T09:09:36Z</time>
      </trkpt>
      <trkpt lat="45.865741549059749" lon="9.462638609111309">
        <ele>1708.3800000000001</ele>
        <time>2020-09-13T09:09:48Z</time>
      </trkpt>
      <trkpt lat="45.865697879344225" lon="9.46268898434937">
        <ele>1708.4400000000001</ele>
        <time>2020-09-13T09:09:58Z</time>
      </trkpt>
      <trkpt lat="45.865651862695813" lon="9.4626977853477">
        <ele>1709.8699999999999</ele>
        <time>2020-09-13T09:10:08Z</time>
      </trkpt>
      <trkpt lat="45.865607773885131" lon="9.462710190564394">
        <ele>1711.3599999999999</ele>
        <time>2020-09-13T09:10:19Z</time>
      </trkpt>
      <trkpt lat="45.865558404475451" lon="9.462710944935679">
        <ele>1712.02</ele>
        <time>2020-09-13T09:10:32Z</time>
      </trkpt>
      <trkpt lat="45.865524290129542" lon="9.462730642408133">
        <ele>1713.79</ele>
        <time>2020-09-13T09:10:45Z</time>
      </trkpt>
      <trkpt lat="45.865497970953584" lon="9.462750675156713">
        <ele>1713.99</ele>
        <time>2020-09-13T09:11:00Z</time>
      </trkpt>
      <trkpt lat="45.865442985668778" lon="9.462762158364058">
        <ele>1714.5</ele>
        <time>2020-09-13T09:11:07Z</time>
      </trkpt>
      <trkpt lat="45.86538297124207" lon="9.462807588279247">
        <ele>1714.1400000000001</ele>
        <time>2020-09-13T09:11:19Z</time>
      </trkpt>
      <trkpt lat="45.865310886874795" lon="9.462812785059214">
        <ele>1713.29</ele>
        <time>2020-09-13T09:11:29Z</time>
      </trkpt>
      <trkpt lat="45.865267803892493" lon="9.462879337370396">
        <ele>1712.54</ele>
        <time>2020-09-13T09:11:41Z</time>
      </trkpt>
      <trkpt lat="45.86524710059166" lon="9.462925689294934">
        <ele>1712.26</ele>
        <time>2020-09-13T09:11:51Z</time>
      </trkpt>
      <trkpt lat="45.865240059792995" lon="9.462929712608457">
        <ele>1710.97</ele>
        <time>2020-09-13T09:12:17Z</time>
      </trkpt>
      <trkpt lat="45.865239892154932" lon="9.462930047884584">
        <ele>1710.76</ele>
        <time>2020-09-13T09:12:18Z</time>
      </trkpt>
      <trkpt lat="45.865241233259439" lon="9.462930047884584">
        <ele>1714.4100000000001</ele>
        <time>2020-09-13T09:12:20Z</time>
      </trkpt>
      <trkpt lat="45.865241568535566" lon="9.462930466979742">
        <ele>1713.24</ele>
        <time>2020-09-13T09:12:21Z</time>
      </trkpt>
      <trkpt lat="45.865241400897503" lon="9.462930802255869">
        <ele>1712.28</ele>
        <time>2020-09-13T09:12:23Z</time>
      </trkpt>
      <trkpt lat="45.865233354270458" lon="9.462922755628824">
        <ele>1712.1500000000001</ele>
        <time>2020-09-13T09:12:45Z</time>
      </trkpt>
      <trkpt lat="45.86523050442338" lon="9.46296357549727">
        <ele>1712.9300000000001</ele>
        <time>2020-09-13T09:13:05Z</time>
      </trkpt>
      <trkpt lat="45.865215081721544" lon="9.463020237162709">
        <ele>1712.8499999999999</ele>
        <time>2020-09-13T09:13:09Z</time>
      </trkpt>
      <trkpt lat="45.865131849423051" lon="9.463150994852185">
        <ele>1714.1600000000001</ele>
        <time>2020-09-13T09:13:23Z</time>
      </trkpt>
      <trkpt lat="45.86512103676796" lon="9.463186366483569">
        <ele>1715.28</ele>
        <time>2020-09-13T09:13:36Z</time>
      </trkpt>
      <trkpt lat="45.865097232162952" lon="9.463228192180395">
        <ele>1717.26</ele>
        <time>2020-09-13T09:13:46Z</time>
      </trkpt>
      <trkpt lat="45.86503554135561" lon="9.463374624028802">
        <ele>1718.98</ele>
        <time>2020-09-13T09:14:00Z</time>
      </trkpt>
      <trkpt lat="45.864965720102191" lon="9.463482163846493">
        <ele>1720.75</ele>
        <time>2020-09-13T09:14:16Z</time>
      </trkpt>
      <trkpt lat="45.864925906062126" lon="9.463558942079544">
        <ele>1719.9400000000001</ele>
        <time>2020-09-13T09:14:30Z</time>
      </trkpt>
      <trkpt lat="45.864880979061127" lon="9.463637480512261">
        <ele>1721.1300000000001</ele>
        <time>2020-09-13T09:14:42Z</time>
      </trkpt>
      <trkpt lat="45.864864131435752" lon="9.463665811344981">
        <ele>1721.3900000000001</ele>
        <time>2020-09-13T09:14:51Z</time>
      </trkpt>
      <trkpt lat="45.864839321002364" lon="9.463685927912593">
        <ele>1722.3099999999999</ele>
        <time>2020-09-13T09:15:05Z</time>
      </trkpt>
      <trkpt lat="45.864795399829745" lon="9.463702607899904">
        <ele>1723.8199999999999</ele>
        <time>2020-09-13T09:15:23Z</time>
      </trkpt>
      <trkpt lat="45.864747203886509" lon="9.463700596243143">
        <ele>1725.8</ele>
        <time>2020-09-13T09:15:38Z</time>
      </trkpt>
      <trkpt lat="45.864709317684174" lon="9.463744014501572">
        <ele>1727.9300000000001</ele>
        <time>2020-09-13T09:15:52Z</time>
      </trkpt>
      <trkpt lat="45.864703198894858" lon="9.46375516243279">
        <ele>1728.74</ele>
        <time>2020-09-13T09:16:07Z</time>
      </trkpt>
      <trkpt lat="45.864688949659467" lon="9.463765388354659">
        <ele>1729.54</ele>
        <time>2020-09-13T09:16:24Z</time>
      </trkpt>
      <trkpt lat="45.864682327955961" lon="9.463779302313924">
        <ele>1730.28</ele>
        <time>2020-09-13T09:16:45Z</time>
      </trkpt>
      <trkpt lat="45.864677466452122" lon="9.463795311748982">
        <ele>1730.8099999999999</ele>
        <time>2020-09-13T09:17:05Z</time>
      </trkpt>
      <trkpt lat="45.86465684697032" lon="9.463792210444808">
        <ele>1731.6500000000001</ele>
        <time>2020-09-13T09:17:22Z</time>
      </trkpt>
      <trkpt lat="45.864639077335596" lon="9.463802604004741">
        <ele>1733.22</ele>
        <time>2020-09-13T09:17:42Z</time>
      </trkpt>
      <trkpt lat="45.864632204174995" lon="9.463830851018429">
        <ele>1734.23</ele>
        <time>2020-09-13T09:17:53Z</time>
      </trkpt>
      <trkpt lat="45.864619631320238" lon="9.463840825483203">
        <ele>1735.21</ele>
        <time>2020-09-13T09:18:07Z</time>
      </trkpt>
      <trkpt lat="45.864570597186685" lon="9.463860858231783">
        <ele>1737.8099999999999</ele>
        <time>2020-09-13T09:18:22Z</time>
      </trkpt>
      <trkpt lat="45.864550396800041" lon="9.463866306468844">
        <ele>1738.98</ele>
        <time>2020-09-13T09:18:37Z</time>
      </trkpt>
      <trkpt lat="45.864522652700543" lon="9.463841915130615">
        <ele>1741.1400000000001</ele>
        <time>2020-09-13T09:18:53Z</time>
      </trkpt>
      <trkpt lat="45.864504212513566" lon="9.463842082768679">
        <ele>1741.9100000000001</ele>
        <time>2020-09-13T09:19:10Z</time>
      </trkpt>
      <trkpt lat="45.864529022946954" lon="9.463799335062504">
        <ele>1743.27</ele>
        <time>2020-09-13T09:19:23Z</time>
      </trkpt>
      <trkpt lat="45.864536734297872" lon="9.46379573084414">
        <ele>1744.1800000000001</ele>
        <time>2020-09-13T09:19:36Z</time>
      </trkpt>
      <trkpt lat="45.864534806460142" lon="9.463766813278198">
        <ele>1746.02</ele>
        <time>2020-09-13T09:19:49Z</time>
      </trkpt>
      <trkpt lat="45.864522149786353" lon="9.463742086663842">
        <ele>1747.6199999999999</ele>
        <time>2020-09-13T09:20:03Z</time>
      </trkpt>
      <trkpt lat="45.86451904848218" lon="9.463723227381706">
        <ele>1748.8199999999999</ele>
        <time>2020-09-13T09:20:17Z</time>
      </trkpt>
      <trkpt lat="45.864512594416738" lon="9.463715432211757">
        <ele>1749.46</ele>
        <time>2020-09-13T09:20:32Z</time>
      </trkpt>
      <trkpt lat="45.864498429000378" lon="9.46373026818037">
        <ele>1749.71</ele>
        <time>2020-09-13T09:20:43Z</time>
      </trkpt>
      <trkpt lat="45.864488957449794" lon="9.463721634820104">
        <ele>1749.6600000000001</ele>
        <time>2020-09-13T09:21:01Z</time>
      </trkpt>
      <trkpt lat="45.864489125087857" lon="9.46372096426785">
        <ele>1748.6500000000001</ele>
        <time>2020-09-13T09:21:13Z</time>
      </trkpt>
      <trkpt lat="45.864492645487189" lon="9.463712247088552">
        <ele>1749.45</ele>
        <time>2020-09-13T09:21:48Z</time>
      </trkpt>
      <trkpt lat="45.864492310211062" lon="9.463713588193059">
        <ele>1749.9000000000001</ele>
        <time>2020-09-13T09:22:01Z</time>
      </trkpt>
      <trkpt lat="45.864491555839777" lon="9.463711576536298">
        <ele>1749.8599999999999</ele>
        <time>2020-09-13T09:22:19Z</time>
      </trkpt>
      <trkpt lat="45.86449071764946" lon="9.463711995631456">
        <ele>1749.8699999999999</ele>
        <time>2020-09-13T09:22:37Z</time>
      </trkpt>
      <trkpt lat="45.864485604688525" lon="9.463715348392725">
        <ele>1749.74</ele>
        <time>2020-09-13T09:22:55Z</time>
      </trkpt>
      <trkpt lat="45.864483509212732" lon="9.463714677840471">
        <ele>1749.6500000000001</ele>
        <time>2020-09-13T09:23:15Z</time>
      </trkpt>
      <trkpt lat="45.864449981600046" lon="9.463713252916932">
        <ele>1750.22</ele>
        <time>2020-09-13T09:23:30Z</time>
      </trkpt>
      <trkpt lat="45.864415699616075" lon="9.463736303150654">
        <ele>1752.5599999999999</ele>
        <time>2020-09-13T09:23:45Z</time>
      </trkpt>
      <trkpt lat="45.86439642123878" lon="9.463718784973025">
        <ele>1753.6300000000001</ele>
        <time>2020-09-13T09:24:03Z</time>
      </trkpt>
      <trkpt lat="45.864358451217413" lon="9.463717862963677">
        <ele>1755.23</ele>
        <time>2020-09-13T09:24:16Z</time>
      </trkpt>
      <trkpt lat="45.864349398761988" lon="9.463736386969686">
        <ele>1755.4000000000001</ele>
        <time>2020-09-13T09:24:32Z</time>
      </trkpt>
      <trkpt lat="45.864309836179018" lon="9.463734962046146">
        <ele>1756.51</ele>
        <time>2020-09-13T09:24:48Z</time>
      </trkpt>
      <trkpt lat="45.864272788167" lon="9.463710989803076">
        <ele>1758.55</ele>
        <time>2020-09-13T09:25:02Z</time>
      </trkpt>
      <trkpt lat="45.864244792610407" lon="9.463715851306915">
        <ele>1760.1800000000001</ele>
        <time>2020-09-13T09:25:15Z</time>
      </trkpt>
      <trkpt lat="45.864208331331611" lon="9.46370872668922">
        <ele>1762.74</ele>
        <time>2020-09-13T09:25:28Z</time>
      </trkpt>
      <trkpt lat="45.864167846739292" lon="9.463701602071524">
        <ele>1764.73</ele>
        <time>2020-09-13T09:25:42Z</time>
      </trkpt>
      <trkpt lat="45.864138677716255" lon="9.463689951226115">
        <ele>1766.5599999999999</ele>
        <time>2020-09-13T09:25:55Z</time>
      </trkpt>
      <trkpt lat="45.864130714908242" lon="9.463709900155664">
        <ele>1767.1400000000001</ele>
        <time>2020-09-13T09:26:10Z</time>
      </trkpt>
      <trkpt lat="45.864125685766339" lon="9.463772512972355">
        <ele>1768.9200000000001</ele>
        <time>2020-09-13T09:26:23Z</time>
      </trkpt>
      <trkpt lat="45.864108419045806" lon="9.46386756375432">
        <ele>1771.05</ele>
        <time>2020-09-13T09:26:36Z</time>
      </trkpt>
      <trkpt lat="45.864089895039797" lon="9.463910311460495">
        <ele>1772.6900000000001</ele>
        <time>2020-09-13T09:26:50Z</time>
      </trkpt>
      <trkpt lat="45.864066928625107" lon="9.463881142437458">
        <ele>1774.51</ele>
        <time>2020-09-13T09:27:03Z</time>
      </trkpt>
      <trkpt lat="45.864048739895225" lon="9.46385876275599">
        <ele>1775.51</ele>
        <time>2020-09-13T09:27:16Z</time>
      </trkpt>
      <trkpt lat="45.864022504538298" lon="9.463889943435788">
        <ele>1777.6300000000001</ele>
        <time>2020-09-13T09:27:27Z</time>
      </trkpt>
      <trkpt lat="45.864003142341971" lon="9.463874688372016">
        <ele>1778.71</ele>
        <time>2020-09-13T09:27:39Z</time>
      </trkpt>
      <trkpt lat="45.863974895328283" lon="9.463871419429779">
        <ele>1780.5899999999999</ele>
        <time>2020-09-13T09:27:51Z</time>
      </trkpt>
      <trkpt lat="45.863956287503242" lon="9.463936630636454">
        <ele>1782.95</ele>
        <time>2020-09-13T09:28:07Z</time>
      </trkpt>
      <trkpt lat="45.863942373543978" lon="9.464006703346968">
        <ele>1785.1199999999999</ele>
        <time>2020-09-13T09:28:21Z</time>
      </trkpt>
      <trkpt lat="45.863934997469187" lon="9.464034112170339">
        <ele>1784.8499999999999</ele>
        <time>2020-09-13T09:28:36Z</time>
      </trkpt>
      <trkpt lat="45.863893171772361" lon="9.464046433568001">
        <ele>1785.3299999999999</ele>
        <time>2020-09-13T09:28:51Z</time>
      </trkpt>
      <trkpt lat="45.863884454593062" lon="9.464051127433777">
        <ele>1785.0999999999999</ele>
        <time>2020-09-13T09:29:04Z</time>
      </trkpt>
      <trkpt lat="45.863844053819776" lon="9.464081218466163">
        <ele>1786.3199999999999</ele>
        <time>2020-09-13T09:29:16Z</time>
      </trkpt>
      <trkpt lat="45.863818321377039" lon="9.464100077748299">
        <ele>1788.8299999999999</ele>
        <time>2020-09-13T09:29:28Z</time>
      </trkpt>
      <trkpt lat="45.863806670531631" lon="9.464111812412739">
        <ele>1789.5599999999999</ele>
        <time>2020-09-13T09:29:42Z</time>
      </trkpt>
      <trkpt lat="45.863791666924953" lon="9.464135449379683">
        <ele>1791.24</ele>
        <time>2020-09-13T09:29:55Z</time>
      </trkpt>
      <trkpt lat="45.863766185939312" lon="9.464156236499548">
        <ele>1792.8</ele>
        <time>2020-09-13T09:30:03Z</time>
      </trkpt>
      <trkpt lat="45.863729724660516" lon="9.464150117710233">
        <ele>1794.6199999999999</ele>
        <time>2020-09-13T09:30:13Z</time>
      </trkpt>
      <trkpt lat="45.86369669996202" lon="9.464183645322919">
        <ele>1796.8499999999999</ele>
        <time>2020-09-13T09:30:26Z</time>
      </trkpt>
      <trkpt lat="45.863624615594745" lon="9.464167635887861">
        <ele>1798.77</ele>
        <time>2020-09-13T09:30:41Z</time>
      </trkpt>
      <trkpt lat="45.86361899971962" lon="9.464166210964322">
        <ele>1798.6099999999999</ele>
        <time>2020-09-13T09:31:02Z</time>
      </trkpt>
      <trkpt lat="45.863578012213111" lon="9.464129162952304">
        <ele>1798.29</ele>
        <time>2020-09-13T09:31:14Z</time>
      </trkpt>
      <trkpt lat="45.863548340275884" lon="9.464104603976011">
        <ele>1798.2</ele>
        <time>2020-09-13T09:31:27Z</time>
      </trkpt>
      <trkpt lat="45.863527301698923" lon="9.464088343083859">
        <ele>1798.0799999999999</ele>
        <time>2020-09-13T09:31:43Z</time>
      </trkpt>
      <trkpt lat="45.863513136282563" lon="9.464095970615745">
        <ele>1797.8</ele>
        <time>2020-09-13T09:32:01Z</time>
      </trkpt>
      <trkpt lat="45.863511795178056" lon="9.46408842690289">
        <ele>1797.3299999999999</ele>
        <time>2020-09-13T09:32:11Z</time>
      </trkpt>
      <trkpt lat="45.863510202616453" lon="9.464085074141622">
        <ele>1798.3099999999999</ele>
        <time>2020-09-13T09:32:38Z</time>
      </trkpt>
      <trkpt lat="45.863513052463531" lon="9.464089851826429">
        <ele>1798.5799999999999</ele>
        <time>2020-09-13T09:32:53Z</time>
      </trkpt>
      <trkpt lat="45.863513723015785" lon="9.464090773835778">
        <ele>1798.54</ele>
        <time>2020-09-13T09:33:09Z</time>
      </trkpt>
      <trkpt lat="45.863511795178056" lon="9.464088259264827">
        <ele>1798.55</ele>
        <time>2020-09-13T09:33:29Z</time>
      </trkpt>
      <trkpt lat="45.863512298092246" lon="9.464085241779685">
        <ele>1798.5799999999999</ele>
        <time>2020-09-13T09:33:49Z</time>
      </trkpt>
      <trkpt lat="45.863511459901929" lon="9.464075602591038">
        <ele>1799.0599999999999</ele>
        <time>2020-09-13T09:33:58Z</time>
      </trkpt>
      <trkpt lat="45.863512046635151" lon="9.464073590934277">
        <ele>1799.21</ele>
        <time>2020-09-13T09:34:10Z</time>
      </trkpt>
      <trkpt lat="45.863512801006436" lon="9.46407912299037">
        <ele>1799.1900000000001</ele>
        <time>2020-09-13T09:34:22Z</time>
      </trkpt>
      <trkpt lat="45.863512633368373" lon="9.464078033342958">
        <ele>1798.97</ele>
        <time>2020-09-13T09:34:40Z</time>
      </trkpt>
      <trkpt lat="45.863495785742998" lon="9.464091276749969">
        <ele>1798.3599999999999</ele>
        <time>2020-09-13T09:34:54Z</time>
      </trkpt>
      <trkpt lat="45.863477764651179" lon="9.464118350297213">
        <ele>1796.98</ele>
        <time>2020-09-13T09:35:06Z</time>
      </trkpt>
      <trkpt lat="45.863462090492249" lon="9.464128576219082">
        <ele>1795.46</ele>
        <time>2020-09-13T09:35:21Z</time>
      </trkpt>
      <trkpt lat="45.863454630598426" lon="9.464151710271835">
        <ele>1794.02</ele>
        <time>2020-09-13T09:35:35Z</time>
      </trkpt>
      <trkpt lat="45.863426132127643" lon="9.464181466028094">
        <ele>1791.4100000000001</ele>
        <time>2020-09-13T09:35:48Z</time>
      </trkpt>
      <trkpt lat="45.86342403665185" lon="9.464190267026424">
        <ele>1790.4000000000001</ele>
        <time>2020-09-13T09:36:01Z</time>
      </trkpt>
      <trkpt lat="45.86342697031796" lon="9.464208371937275">
        <ele>1788.99</ele>
        <time>2020-09-13T09:36:14Z</time>
      </trkpt>
      <trkpt lat="45.863414146006107" lon="9.464231254532933">
        <ele>1788.1700000000001</ele>
        <time>2020-09-13T09:36:26Z</time>
      </trkpt>
      <trkpt lat="45.863413978368044" lon="9.464243240654469">
        <ele>1788.1800000000001</ele>
        <time>2020-09-13T09:36:45Z</time>
      </trkpt>
      <trkpt lat="45.863402998074889" lon="9.464228907600045">
        <ele>1787.25</ele>
        <time>2020-09-13T09:36:57Z</time>
      </trkpt>
      <trkpt lat="45.863397466018796" lon="9.464236032217741">
        <ele>1786.46</ele>
        <time>2020-09-13T09:37:09Z</time>
      </trkpt>
      <trkpt lat="45.863391179591417" lon="9.464222872629762">
        <ele>1785.4300000000001</ele>
        <time>2020-09-13T09:37:27Z</time>
      </trkpt>
      <trkpt lat="45.863385815173388" lon="9.464219016954303">
        <ele>1784.53</ele>
        <time>2020-09-13T09:37:49Z</time>
      </trkpt>
      <trkpt lat="45.863364106044173" lon="9.464223207905889">
        <ele>1782.5999999999999</ele>
        <time>2020-09-13T09:38:05Z</time>
      </trkpt>
      <trkpt lat="45.863346587866545" lon="9.464246928691864">
        <ele>1781.25</ele>
        <time>2020-09-13T09:38:18Z</time>
      </trkpt>
      <trkpt lat="45.86337517015636" lon="9.464274002239108">
        <ele>1779.2</ele>
        <time>2020-09-13T09:38:32Z</time>
      </trkpt>
      <trkpt lat="45.863383300602436" lon="9.464297303929925">
        <ele>1778</ele>
        <time>2020-09-13T09:38:50Z</time>
      </trkpt>
      <trkpt lat="45.863364106044173" lon="9.464323623105884">
        <ele>1775.1199999999999</ele>
        <time>2020-09-13T09:39:07Z</time>
      </trkpt>
      <trkpt lat="45.86335614323616" lon="9.464369136840105">
        <ele>1773.1300000000001</ele>
        <time>2020-09-13T09:39:14Z</time>
      </trkpt>
      <trkpt lat="45.863354047760367" lon="9.464375087991357">
        <ele>1772.9200000000001</ele>
        <time>2020-09-13T09:39:27Z</time>
      </trkpt>
      <trkpt lat="45.863329404965043" lon="9.464403251186013">
        <ele>1771.79</ele>
        <time>2020-09-13T09:39:39Z</time>
      </trkpt>
      <trkpt lat="45.8633126411587" lon="9.464399144053459">
        <ele>1770.27</ele>
        <time>2020-09-13T09:39:52Z</time>
      </trkpt>
      <trkpt lat="45.863301828503609" lon="9.46437818929553">
        <ele>1769.3800000000001</ele>
        <time>2020-09-13T09:40:07Z</time>
      </trkpt>
      <trkpt lat="45.863298727199435" lon="9.464363604784012">
        <ele>1769.3599999999999</ele>
        <time>2020-09-13T09:40:22Z</time>
      </trkpt>
      <trkpt lat="45.863299146294594" lon="9.464350193738937">
        <ele>1768.1800000000001</ele>
        <time>2020-09-13T09:40:33Z</time>
      </trkpt>
      <trkpt lat="45.863291015848517" lon="9.464338878169656">
        <ele>1767.1300000000001</ele>
        <time>2020-09-13T09:40:50Z</time>
      </trkpt>
      <trkpt lat="45.863289758563042" lon="9.464324880391359">
        <ele>1766.95</ele>
        <time>2020-09-13T09:41:03Z</time>
      </trkpt>
      <trkpt lat="45.863269055262208" lon="9.464325131848455">
        <ele>1765.27</ele>
        <time>2020-09-13T09:41:20Z</time>
      </trkpt>
      <trkpt lat="45.863219015300274" lon="9.464291101321578">
        <ele>1761.99</ele>
        <time>2020-09-13T09:41:33Z</time>
      </trkpt>
      <trkpt lat="45.863215830177069" lon="9.464308954775333">
        <ele>1760.9300000000001</ele>
        <time>2020-09-13T09:41:48Z</time>
      </trkpt>
      <trkpt lat="45.863214489072561" lon="9.464291771873832">
        <ele>1760.6199999999999</ele>
        <time>2020-09-13T09:42:03Z</time>
      </trkpt>
      <trkpt lat="45.863200575113297" lon="9.464298728853464">
        <ele>1759.47</ele>
        <time>2020-09-13T09:42:18Z</time>
      </trkpt>
      <trkpt lat="45.863182721659541" lon="9.464328987523913">
        <ele>1757.5699999999999</ele>
        <time>2020-09-13T09:42:29Z</time>
      </trkpt>
      <trkpt lat="45.863126311451197" lon="9.464384140446782">
        <ele>1755.5699999999999</ele>
        <time>2020-09-13T09:42:43Z</time>
      </trkpt>
      <trkpt lat="45.863102423027158" lon="9.464412471279502">
        <ele>1754.98</ele>
        <time>2020-09-13T09:42:57Z</time>
      </trkpt>
      <trkpt lat="45.863098315894604" lon="9.464410124346614">
        <ele>1754.8399999999999</ele>
        <time>2020-09-13T09:43:11Z</time>
      </trkpt>
      <trkpt lat="45.863083815202117" lon="9.464399479329586">
        <ele>1754.9400000000001</ele>
        <time>2020-09-13T09:43:24Z</time>
      </trkpt>
      <trkpt lat="45.863078702241182" lon="9.464388247579336">
        <ele>1753.6500000000001</ele>
        <time>2020-09-13T09:43:38Z</time>
      </trkpt>
      <trkpt lat="45.863073589280248" lon="9.46441532112658">
        <ele>1752.24</ele>
        <time>2020-09-13T09:43:56Z</time>
      </trkpt>
      <trkpt lat="45.863075852394104" lon="9.464437616989017">
        <ele>1751.79</ele>
        <time>2020-09-13T09:44:10Z</time>
      </trkpt>
      <trkpt lat="45.863087167963386" lon="9.464460667222738">
        <ele>1750.4000000000001</ele>
        <time>2020-09-13T09:44:23Z</time>
      </trkpt>
      <trkpt lat="45.863087000325322" lon="9.464465109631419">
        <ele>1750.01</ele>
        <time>2020-09-13T09:44:39Z</time>
      </trkpt>
      <trkpt lat="45.863086497411132" lon="9.464467708021402">
        <ele>1750.01</ele>
        <time>2020-09-13T09:44:58Z</time>
      </trkpt>
      <trkpt lat="45.863106027245522" lon="9.464476257562637">
        <ele>1749.8800000000001</ele>
        <time>2020-09-13T09:45:13Z</time>
      </trkpt>
      <trkpt lat="45.863115163519979" lon="9.464481370523572">
        <ele>1750.05</ele>
        <time>2020-09-13T09:45:27Z</time>
      </trkpt>
      <trkpt lat="45.863112900406122" lon="9.464474162086844">
        <ele>1750.1700000000001</ele>
        <time>2020-09-13T09:45:45Z</time>
      </trkpt>
      <trkpt lat="45.863127065822482" lon="9.464479610323906">
        <ele>1750.02</ele>
        <time>2020-09-13T09:46:02Z</time>
      </trkpt>
      <trkpt lat="45.863132430240512" lon="9.464472150430083">
        <ele>1749.8499999999999</ele>
        <time>2020-09-13T09:46:20Z</time>
      </trkpt>
      <trkpt lat="45.863132514059544" lon="9.464473323896527">
        <ele>1749.99</ele>
        <time>2020-09-13T09:46:33Z</time>
      </trkpt>
      <trkpt lat="45.863133268430829" lon="9.464478939771652">
        <ele>1750.1099999999999</ele>
        <time>2020-09-13T09:46:51Z</time>
      </trkpt>
      <trkpt lat="45.863141566514969" lon="9.464473575353622">
        <ele>1749.4200000000001</ele>
        <time>2020-09-13T09:47:06Z</time>
      </trkpt>
      <trkpt lat="45.863148607313633" lon="9.464459996670485">
        <ele>1749.3</ele>
        <time>2020-09-13T09:47:23Z</time>
      </trkpt>
      <trkpt lat="45.863163275644183" lon="9.464457146823406">
        <ele>1748.6600000000001</ele>
        <time>2020-09-13T09:47:39Z</time>
      </trkpt>
      <trkpt lat="45.863179704174399" lon="9.464447423815727">
        <ele>1747.8499999999999</ele>
        <time>2020-09-13T09:47:59Z</time>
      </trkpt>
      <trkpt lat="45.863180626183748" lon="9.464506516233087">
        <ele>1745.1600000000001</ele>
        <time>2020-09-13T09:48:12Z</time>
      </trkpt>
      <trkpt lat="45.863199234008789" lon="9.464524537324905">
        <ele>1743.4100000000001</ele>
        <time>2020-09-13T09:48:28Z</time>
      </trkpt>
      <trkpt lat="45.863198144361377" lon="9.464550772681832">
        <ele>1741.46</ele>
        <time>2020-09-13T09:48:38Z</time>
      </trkpt>
      <trkpt lat="45.863190097734332" lon="9.46458681486547">
        <ele>1739.55</ele>
        <time>2020-09-13T09:48:48Z</time>
      </trkpt>
      <trkpt lat="45.863144248723984" lon="9.464634675532579">
        <ele>1736.98</ele>
        <time>2020-09-13T09:49:02Z</time>
      </trkpt>
      <trkpt lat="45.863102339208126" lon="9.464647080749273">
        <ele>1736.5999999999999</ele>
        <time>2020-09-13T09:49:07Z</time>
      </trkpt>
      <trkpt lat="45.863052299246192" lon="9.46463274769485">
        <ele>1736.99</ele>
        <time>2020-09-13T09:49:19Z</time>
      </trkpt>
      <trkpt lat="45.863022124394774" lon="9.464624868705869">
        <ele>1735.3199999999999</ele>
        <time>2020-09-13T09:49:26Z</time>
      </trkpt>
      <trkpt lat="45.862931348383427" lon="9.464665437117219">
        <ele>1735.24</ele>
        <time>2020-09-13T09:49:40Z</time>
      </trkpt>
      <trkpt lat="45.862936712801456" lon="9.46463911794126">
        <ele>1734.95</ele>
        <time>2020-09-13T09:49:49Z</time>
      </trkpt>
      <trkpt lat="45.862934282049537" lon="9.464633334428072">
        <ele>1734.8499999999999</ele>
        <time>2020-09-13T09:50:16Z</time>
      </trkpt>
      <trkpt lat="45.862915338948369" lon="9.464658899232745">
        <ele>1735.5599999999999</ele>
        <time>2020-09-13T09:50:31Z</time>
      </trkpt>
      <trkpt lat="45.862925481051207" lon="9.464648505672813">
        <ele>1735.7</ele>
        <time>2020-09-13T09:50:47Z</time>
      </trkpt>
      <trkpt lat="45.862935790792108" lon="9.464653870090842">
        <ele>1735.6500000000001</ele>
        <time>2020-09-13T09:51:16Z</time>
      </trkpt>
      <trkpt lat="45.862936042249203" lon="9.464651690796018">
        <ele>1736.0999999999999</ele>
        <time>2020-09-13T09:51:38Z</time>
      </trkpt>
      <trkpt lat="45.862939143553376" lon="9.464655127376318">
        <ele>1735.8</ele>
        <time>2020-09-13T09:51:55Z</time>
      </trkpt>
      <trkpt lat="45.862940065562725" lon="9.464662587270141">
        <ele>1735.8499999999999</ele>
        <time>2020-09-13T09:52:14Z</time>
      </trkpt>
      <trkpt lat="45.862939395010471" lon="9.464672897011042">
        <ele>1735.6900000000001</ele>
        <time>2020-09-13T09:52:25Z</time>
      </trkpt>
      <trkpt lat="45.862857336178422" lon="9.464723523706198">
        <ele>1736.9400000000001</ele>
        <time>2020-09-13T09:52:37Z</time>
      </trkpt>
      <trkpt lat="45.862837722525001" lon="9.464717740193009">
        <ele>1736.78</ele>
        <time>2020-09-13T09:52:49Z</time>
      </trkpt>
      <trkpt lat="45.86276731453836" lon="9.464715393260121">
        <ele>1738.95</ele>
        <time>2020-09-13T09:53:01Z</time>
      </trkpt>
      <trkpt lat="45.862755412235856" lon="9.464718326926231">
        <ele>1739.1900000000001</ele>
        <time>2020-09-13T09:53:06Z</time>
      </trkpt>
      <trkpt lat="45.862652398645878" lon="9.464750932529569">
        <ele>1739.96</ele>
        <time>2020-09-13T09:53:17Z</time>
      </trkpt>
      <trkpt lat="45.862584840506315" lon="9.464804157614708">
        <ele>1741.8299999999999</ele>
        <time>2020-09-13T09:53:28Z</time>
      </trkpt>
      <trkpt lat="45.862527759745717" lon="9.464822765439749">
        <ele>1743.8199999999999</ele>
        <time>2020-09-13T09:53:39Z</time>
      </trkpt>
      <trkpt lat="45.862460033968091" lon="9.464804492890835">
        <ele>1745.4000000000001</ele>
        <time>2020-09-13T09:53:50Z</time>
      </trkpt>
      <trkpt lat="45.862441677600145" lon="9.464784124866128">
        <ele>1744.9200000000001</ele>
        <time>2020-09-13T09:53:56Z</time>
      </trkpt>
      <trkpt lat="45.862342771142721" lon="9.464751686900854">
        <ele>1744.1300000000001</ele>
        <time>2020-09-13T09:54:07Z</time>
      </trkpt>
      <trkpt lat="45.862254006788135" lon="9.464794183149934">
        <ele>1745.3199999999999</ele>
        <time>2020-09-13T09:54:20Z</time>
      </trkpt>
      <trkpt lat="45.862222155556083" lon="9.464833661913872">
        <ele>1746.9300000000001</ele>
        <time>2020-09-13T09:54:31Z</time>
      </trkpt>
      <trkpt lat="45.862166499719024" lon="9.464829303324223">
        <ele>1746.9200000000001</ele>
        <time>2020-09-13T09:54:41Z</time>
      </trkpt>
      <trkpt lat="45.862113861367106" lon="9.464835757389665">
        <ele>1748.47</ele>
        <time>2020-09-13T09:54:52Z</time>
      </trkpt>
      <trkpt lat="45.862069353461266" lon="9.464841708540916">
        <ele>1749.76</ele>
        <time>2020-09-13T09:55:00Z</time>
      </trkpt>
      <trkpt lat="45.862026521936059" lon="9.464899208396673">
        <ele>1750.9300000000001</ele>
        <time>2020-09-13T09:55:13Z</time>
      </trkpt>
      <trkpt lat="45.861963909119368" lon="9.464951008558273">
        <ele>1751.8099999999999</ele>
        <time>2020-09-13T09:55:26Z</time>
      </trkpt>
      <trkpt lat="45.86194546893239" lon="9.464965341612697">
        <ele>1751.7</ele>
        <time>2020-09-13T09:55:38Z</time>
      </trkpt>
      <trkpt lat="45.861913030967116" lon="9.46496894583106">
        <ele>1751.8699999999999</ele>
        <time>2020-09-13T09:55:51Z</time>
      </trkpt>
      <trkpt lat="45.861907498911023" lon="9.464971711859107">
        <ele>1752.1700000000001</ele>
        <time>2020-09-13T09:56:08Z</time>
      </trkpt>
      <trkpt lat="45.861900458112359" lon="9.464975567534566">
        <ele>1752.3599999999999</ele>
        <time>2020-09-13T09:56:26Z</time>
      </trkpt>
      <trkpt lat="45.861875982955098" lon="9.464986128732562">
        <ele>1752.5799999999999</ele>
        <time>2020-09-13T09:56:40Z</time>
      </trkpt>
      <trkpt lat="45.861852262169123" lon="9.465006664395332">
        <ele>1755.3</ele>
        <time>2020-09-13T09:56:51Z</time>
      </trkpt>
      <trkpt lat="45.86178713478148" lon="9.465077240020037">
        <ele>1756.5999999999999</ele>
        <time>2020-09-13T09:57:04Z</time>
      </trkpt>
      <trkpt lat="45.861751595512033" lon="9.465141529217362">
        <ele>1759.6199999999999</ele>
        <time>2020-09-13T09:57:18Z</time>
      </trkpt>
      <trkpt lat="45.861747153103352" lon="9.465209757909179">
        <ele>1761.1099999999999</ele>
        <time>2020-09-13T09:57:29Z</time>
      </trkpt>
      <trkpt lat="45.861747236922383" lon="9.465244458988309">
        <ele>1762.25</ele>
        <time>2020-09-13T09:57:41Z</time>
      </trkpt>
      <trkpt lat="45.861711110919714" lon="9.465246303007007">
        <ele>1762.5899999999999</ele>
        <time>2020-09-13T09:57:58Z</time>
      </trkpt>
      <trkpt lat="45.861669955775142" lon="9.465237082913518">
        <ele>1760.95</ele>
        <time>2020-09-13T09:58:05Z</time>
      </trkpt>
      <trkpt lat="45.861627291887999" lon="9.465224510058761">
        <ele>1760.3900000000001</ele>
        <time>2020-09-13T09:58:09Z</time>
      </trkpt>
      <trkpt lat="45.86153794080019" lon="9.465259965509176">
        <ele>1760.1400000000001</ele>
        <time>2020-09-13T09:58:23Z</time>
      </trkpt>
      <trkpt lat="45.861488655209541" lon="9.465333390980959">
        <ele>1758.23</ele>
        <time>2020-09-13T09:58:37Z</time>
      </trkpt>
      <trkpt lat="45.86144900880754" lon="9.465385191142559">
        <ele>1756.4100000000001</ele>
        <time>2020-09-13T09:58:52Z</time>
      </trkpt>
      <trkpt lat="45.861418079584837" lon="9.465437745675445">
        <ele>1754.6700000000001</ele>
        <time>2020-09-13T09:59:03Z</time>
      </trkpt>
      <trkpt lat="45.861349012702703" lon="9.465519301593304">
        <ele>1751.8399999999999</ele>
        <time>2020-09-13T09:59:16Z</time>
      </trkpt>
      <trkpt lat="45.861290590837598" lon="9.465626422315836">
        <ele>1750.6800000000001</ele>
        <time>2020-09-13T09:59:29Z</time>
      </trkpt>
      <trkpt lat="45.861246837303042" lon="9.465688616037369">
        <ele>1749.48</ele>
        <time>2020-09-13T09:59:44Z</time>
      </trkpt>
      <trkpt lat="45.861224289983511" lon="9.465707140043378">
        <ele>1749.54</ele>
        <time>2020-09-13T09:59:55Z</time>
      </trkpt>
      <trkpt lat="45.861154133453965" lon="9.46580596268177">
        <ele>1751.02</ele>
        <time>2020-09-13T10:00:11Z</time>
      </trkpt>
      <trkpt lat="45.861100573092699" lon="9.465828174725175">
        <ele>1753.4200000000001</ele>
        <time>2020-09-13T10:00:24Z</time>
      </trkpt>
      <trkpt lat="45.86107132025063" lon="9.465790204703808">
        <ele>1755.6099999999999</ele>
        <time>2020-09-13T10:00:37Z</time>
      </trkpt>
      <trkpt lat="45.861064363270998" lon="9.465739829465747">
        <ele>1757.8499999999999</ele>
        <time>2020-09-13T10:00:49Z</time>
      </trkpt>
      <trkpt lat="45.861058747395873" lon="9.465683167800307">
        <ele>1759.5599999999999</ele>
        <time>2020-09-13T10:01:01Z</time>
      </trkpt>
      <trkpt lat="45.861031087115407" lon="9.465728681534529">
        <ele>1761.53</ele>
        <time>2020-09-13T10:01:14Z</time>
      </trkpt>
      <trkpt lat="45.86099848151207" lon="9.465811913833022">
        <ele>1763.54</ele>
        <time>2020-09-13T10:01:28Z</time>
      </trkpt>
      <trkpt lat="45.860956907272339" lon="9.465837981551886">
        <ele>1765.52</ele>
        <time>2020-09-13T10:01:41Z</time>
      </trkpt>
      <trkpt lat="45.860920948907733" lon="9.465818535536528">
        <ele>1767.21</ele>
        <time>2020-09-13T10:01:54Z</time>
      </trkpt>
      <trkpt lat="45.86087878793478" lon="9.465833622962236">
        <ele>1769.46</ele>
        <time>2020-09-13T10:02:07Z</time>
      </trkpt>
      <trkpt lat="45.860849786549807" lon="9.465879891067743">
        <ele>1770.9000000000001</ele>
        <time>2020-09-13T10:02:20Z</time>
      </trkpt>
      <trkpt lat="45.860815420746803" lon="9.465969828888774">
        <ele>1773.51</ele>
        <time>2020-09-13T10:02:38Z</time>
      </trkpt>
      <trkpt lat="45.860791867598891" lon="9.466038476675749">
        <ele>1774.95</ele>
        <time>2020-09-13T10:02:52Z</time>
      </trkpt>
      <trkpt lat="45.860784742981195" lon="9.466084158048034">
        <ele>1777.0599999999999</ele>
        <time>2020-09-13T10:03:06Z</time>
      </trkpt>
      <trkpt lat="45.860772337764502" lon="9.466118104755878">
        <ele>1777.8900000000001</ele>
        <time>2020-09-13T10:03:17Z</time>
      </trkpt>
      <trkpt lat="45.860753478482366" lon="9.466096395626664">
        <ele>1779.0699999999999</ele>
        <time>2020-09-13T10:03:28Z</time>
      </trkpt>
      <trkpt lat="45.860750209540129" lon="9.466101340949535">
        <ele>1779.45</ele>
        <time>2020-09-13T10:03:48Z</time>
      </trkpt>
      <trkpt lat="45.860748030245304" lon="9.466120535507798">
        <ele>1778.75</ele>
        <time>2020-09-13T10:04:02Z</time>
      </trkpt>
      <trkpt lat="45.860737301409245" lon="9.466155571863055">
        <ele>1779.29</ele>
        <time>2020-09-13T10:04:16Z</time>
      </trkpt>
      <trkpt lat="45.86074048653245" lon="9.466225812211633">
        <ele>1780.8800000000001</ele>
        <time>2020-09-13T10:04:29Z</time>
      </trkpt>
      <trkpt lat="45.860733026638627" lon="9.466253304854035">
        <ele>1782.1700000000001</ele>
        <time>2020-09-13T10:04:41Z</time>
      </trkpt>
      <trkpt lat="45.860725734382868" lon="9.466302087530494">
        <ele>1784.74</ele>
        <time>2020-09-13T10:04:52Z</time>
      </trkpt>
      <trkpt lat="45.86072338744998" lon="9.466402670368552">
        <ele>1786.6600000000001</ele>
        <time>2020-09-13T10:05:05Z</time>
      </trkpt>
      <trkpt lat="45.860712574794888" lon="9.466422703117132">
        <ele>1787.4200000000001</ele>
        <time>2020-09-13T10:05:20Z</time>
      </trkpt>
      <trkpt lat="45.86068675853312" lon="9.466454805806279">
        <ele>1789.73</ele>
        <time>2020-09-13T10:05:31Z</time>
      </trkpt>
      <trkpt lat="45.860680136829615" lon="9.466470815241337">
        <ele>1790.4400000000001</ele>
        <time>2020-09-13T10:05:43Z</time>
      </trkpt>
      <trkpt lat="45.860672509297729" lon="9.466477269306779">
        <ele>1790.8099999999999</ele>
        <time>2020-09-13T10:06:01Z</time>
      </trkpt>
      <trkpt lat="45.860651135444641" lon="9.466451201587915">
        <ele>1792.6500000000001</ele>
        <time>2020-09-13T10:06:13Z</time>
      </trkpt>
      <trkpt lat="45.860628085210919" lon="9.46643678471446">
        <ele>1794.5799999999999</ele>
        <time>2020-09-13T10:06:24Z</time>
      </trkpt>
      <trkpt lat="45.860610902309418" lon="9.466454386711121">
        <ele>1795.5599999999999</ele>
        <time>2020-09-13T10:06:37Z</time>
      </trkpt>
      <trkpt lat="45.860578631982207" lon="9.466466456651688">
        <ele>1798.04</ele>
        <time>2020-09-13T10:06:49Z</time>
      </trkpt>
      <trkpt lat="45.860569747164845" lon="9.466482382267714">
        <ele>1799.53</ele>
        <time>2020-09-13T10:07:01Z</time>
      </trkpt>
      <trkpt lat="45.860575027763844" lon="9.466517334803939">
        <ele>1800.04</ele>
        <time>2020-09-13T10:07:21Z</time>
      </trkpt>
      <trkpt lat="45.860576201230288" lon="9.466610457748175">
        <ele>1803.0999999999999</ele>
        <time>2020-09-13T10:07:34Z</time>
      </trkpt>
      <trkpt lat="45.860574105754495" lon="9.466629065573216">
        <ele>1803.73</ele>
        <time>2020-09-13T10:07:49Z</time>
      </trkpt>
      <trkpt lat="45.860576704144478" lon="9.466666700318456">
        <ele>1804.3599999999999</ele>
        <time>2020-09-13T10:08:04Z</time>
      </trkpt>
      <trkpt lat="45.860575698316097" lon="9.466707771643996">
        <ele>1806.9400000000001</ele>
        <time>2020-09-13T10:08:17Z</time>
      </trkpt>
      <trkpt lat="45.86058558896184" lon="9.466774323955178">
        <ele>1808.23</ele>
        <time>2020-09-13T10:08:32Z</time>
      </trkpt>
      <trkpt lat="45.86058659479022" lon="9.466803492978215">
        <ele>1809.6500000000001</ele>
        <time>2020-09-13T10:08:44Z</time>
      </trkpt>
      <trkpt lat="45.860582403838634" lon="9.466820424422622">
        <ele>1810.5</ele>
        <time>2020-09-13T10:08:56Z</time>
      </trkpt>
      <trkpt lat="45.860579889267683" lon="9.466858478263021">
        <ele>1812.05</ele>
        <time>2020-09-13T10:09:07Z</time>
      </trkpt>
      <trkpt lat="45.860585840418935" lon="9.466878846287727">
        <ele>1813.3099999999999</ele>
        <time>2020-09-13T10:09:19Z</time>
      </trkpt>
      <trkpt lat="45.860600089654326" lon="9.466925533488393">
        <ele>1814.45</ele>
        <time>2020-09-13T10:09:31Z</time>
      </trkpt>
      <trkpt lat="45.860602101311088" lon="9.46696006692946">
        <ele>1815.52</ele>
        <time>2020-09-13T10:09:45Z</time>
      </trkpt>
      <trkpt lat="45.860589863732457" lon="9.466964760795236">
        <ele>1814.6600000000001</ele>
        <time>2020-09-13T10:10:10Z</time>
      </trkpt>
      <trkpt lat="45.860541164875031" lon="9.467029720544815">
        <ele>1812.1600000000001</ele>
        <time>2020-09-13T10:10:21Z</time>
      </trkpt>
      <trkpt lat="45.860531190410256" lon="9.467044724151492">
        <ele>1811.6600000000001</ele>
        <time>2020-09-13T10:10:23Z</time>
      </trkpt>
      <trkpt lat="45.860501686111093" lon="9.467217139899731">
        <ele>1808.8</ele>
        <time>2020-09-13T10:10:37Z</time>
      </trkpt>
      <trkpt lat="45.860498836264014" lon="9.467250667512417">
        <ele>1808.7</ele>
        <time>2020-09-13T10:10:57Z</time>
      </trkpt>
      <trkpt lat="45.860481653362513" lon="9.467341611161828">
        <ele>1811.6300000000001</ele>
        <time>2020-09-13T10:11:12Z</time>
      </trkpt>
      <trkpt lat="45.860454244539142" lon="9.46734169498086">
        <ele>1812.0599999999999</ele>
        <time>2020-09-13T10:11:26Z</time>
      </trkpt>
      <trkpt lat="45.860452400520444" lon="9.467343538999558">
        <ele>1811.9100000000001</ele>
        <time>2020-09-13T10:11:44Z</time>
      </trkpt>
      <trkpt lat="45.860439576208591" lon="9.467340437695384">
        <ele>1812.05</ele>
        <time>2020-09-13T10:11:59Z</time>
      </trkpt>
      <trkpt lat="45.860408898442984" lon="9.467337923124433">
        <ele>1812.5899999999999</ele>
        <time>2020-09-13T10:12:19Z</time>
      </trkpt>
      <trkpt lat="45.860402779653668" lon="9.467342281714082">
        <ele>1812.54</ele>
        <time>2020-09-13T10:12:30Z</time>
      </trkpt>
      <trkpt lat="45.86038576439023" lon="9.467329708859325">
        <ele>1812.3900000000001</ele>
        <time>2020-09-13T10:12:43Z</time>
      </trkpt>
      <trkpt lat="45.860381992533803" lon="9.467329373583198">
        <ele>1812.4400000000001</ele>
        <time>2020-09-13T10:12:58Z</time>
      </trkpt>
      <trkpt lat="45.860370341688395" lon="9.467319985851646">
        <ele>1812.54</ele>
        <time>2020-09-13T10:13:18Z</time>
      </trkpt>
      <trkpt lat="45.860356092453003" lon="9.467328954488039">
        <ele>1811.47</ele>
        <time>2020-09-13T10:13:34Z</time>
      </trkpt>
      <trkpt lat="45.86034569889307" lon="9.467353262007237">
        <ele>1810.27</ele>
        <time>2020-09-13T10:13:42Z</time>
      </trkpt>
      <trkpt lat="45.860249809920788" lon="9.46740573272109">
        <ele>1810.8099999999999</ele>
        <time>2020-09-13T10:13:55Z</time>
      </trkpt>
      <trkpt lat="45.860225753858685" lon="9.467429118230939">
        <ele>1812.26</ele>
        <time>2020-09-13T10:14:06Z</time>
      </trkpt>
      <trkpt lat="45.8602215629071" lon="9.467435488477349">
        <ele>1812.1300000000001</ele>
        <time>2020-09-13T10:14:22Z</time>
      </trkpt>
      <trkpt lat="45.860203625634313" lon="9.46747999638319">
        <ele>1810.8800000000001</ele>
        <time>2020-09-13T10:14:35Z</time>
      </trkpt>
      <trkpt lat="45.860168421640992" lon="9.46749416179955">
        <ele>1809.04</ele>
        <time>2020-09-13T10:14:48Z</time>
      </trkpt>
      <trkpt lat="45.860137911513448" lon="9.467512350529432">
        <ele>1807.3299999999999</ele>
        <time>2020-09-13T10:15:00Z</time>
      </trkpt>
      <trkpt lat="45.860116956755519" lon="9.467530120164156">
        <ele>1805.73</ele>
        <time>2020-09-13T10:15:11Z</time>
      </trkpt>
      <trkpt lat="45.860084854066372" lon="9.467564485967159">
        <ele>1803.6900000000001</ele>
        <time>2020-09-13T10:15:24Z</time>
      </trkpt>
      <trkpt lat="45.860065575689077" lon="9.46758552454412">
        <ele>1802.55</ele>
        <time>2020-09-13T10:15:36Z</time>
      </trkpt>
      <trkpt lat="45.860051074996591" lon="9.467626931145787">
        <ele>1800.74</ele>
        <time>2020-09-13T10:15:49Z</time>
      </trkpt>
      <trkpt lat="45.860020900145173" lon="9.467685939744115">
        <ele>1798.5699999999999</ele>
        <time>2020-09-13T10:16:01Z</time>
      </trkpt>
      <trkpt lat="45.859954850748181" lon="9.467807896435261">
        <ele>1796.0899999999999</ele>
        <time>2020-09-13T10:16:17Z</time>
      </trkpt>
      <trkpt lat="45.859929705038667" lon="9.467922309413552">
        <ele>1794.6600000000001</ele>
        <time>2020-09-13T10:16:32Z</time>
      </trkpt>
      <trkpt lat="45.859934650361538" lon="9.467956339940429">
        <ele>1793.25</ele>
        <time>2020-09-13T10:16:50Z</time>
      </trkpt>
      <trkpt lat="45.8599469717592" lon="9.467961452901363">
        <ele>1791.6500000000001</ele>
        <time>2020-09-13T10:17:04Z</time>
      </trkpt>
      <trkpt lat="45.859938925132155" lon="9.46804485283792">
        <ele>1789.3900000000001</ele>
        <time>2020-09-13T10:17:15Z</time>
      </trkpt>
      <trkpt lat="45.859934482723475" lon="9.46811618283391">
        <ele>1787.3599999999999</ele>
        <time>2020-09-13T10:17:30Z</time>
      </trkpt>
      <trkpt lat="45.8599504083395" lon="9.468143843114376">
        <ele>1786.4200000000001</ele>
        <time>2020-09-13T10:17:45Z</time>
      </trkpt>
      <trkpt lat="45.859945714473724" lon="9.468178376555443">
        <ele>1785.8900000000001</ele>
        <time>2020-09-13T10:17:59Z</time>
      </trkpt>
      <trkpt lat="45.859929034486413" lon="9.4681909494102">
        <ele>1785.8699999999999</ele>
        <time>2020-09-13T10:18:14Z</time>
      </trkpt>
      <trkpt lat="45.859910678118467" lon="9.468238307163119">
        <ele>1784.6900000000001</ele>
        <time>2020-09-13T10:18:19Z</time>
      </trkpt>
      <trkpt lat="45.85981990210712" lon="9.468356994912028">
        <ele>1785.74</ele>
        <time>2020-09-13T10:18:33Z</time>
      </trkpt>
      <trkpt lat="45.859817387536168" lon="9.46836780756712">
        <ele>1785.73</ele>
        <time>2020-09-13T10:18:34Z</time>
      </trkpt>
      <trkpt lat="45.859757456928492" lon="9.468495799228549">
        <ele>1786.95</ele>
        <time>2020-09-13T10:18:48Z</time>
      </trkpt>
      <trkpt lat="45.859716972336173" lon="9.468621360138059">
        <ele>1788.28</ele>
        <time>2020-09-13T10:19:03Z</time>
      </trkpt>
      <trkpt lat="45.859675481915474" lon="9.468703167513013">
        <ele>1789.9100000000001</ele>
        <time>2020-09-13T10:19:17Z</time>
      </trkpt>
      <trkpt lat="45.859643630683422" lon="9.468783298507333">
        <ele>1791.1600000000001</ele>
        <time>2020-09-13T10:19:30Z</time>
      </trkpt>
      <trkpt lat="45.859629716724157" lon="9.46883887052536">
        <ele>1792.72</ele>
        <time>2020-09-13T10:19:42Z</time>
      </trkpt>
      <trkpt lat="45.859629129990935" lon="9.468895783647895">
        <ele>1795.03</ele>
        <time>2020-09-13T10:19:55Z</time>
      </trkpt>
      <trkpt lat="45.859613120555878" lon="9.468906512483954">
        <ele>1796.0799999999999</ele>
        <time>2020-09-13T10:20:07Z</time>
      </trkpt>
      <trkpt lat="45.859607588499784" lon="9.46894196793437">
        <ele>1797.6199999999999</ele>
        <time>2020-09-13T10:20:19Z</time>
      </trkpt>
      <trkpt lat="45.859585711732507" lon="9.468956468626857">
        <ele>1798.98</ele>
        <time>2020-09-13T10:20:31Z</time>
      </trkpt>
      <trkpt lat="45.859564505517483" lon="9.468987230211496">
        <ele>1799.4200000000001</ele>
        <time>2020-09-13T10:20:42Z</time>
      </trkpt>
      <trkpt lat="45.859536258503795" lon="9.469030648469925">
        <ele>1801.54</ele>
        <time>2020-09-13T10:20:56Z</time>
      </trkpt>
      <trkpt lat="45.859537599608302" lon="9.469093093648553">
        <ele>1803.52</ele>
        <time>2020-09-13T10:21:09Z</time>
      </trkpt>
      <trkpt lat="45.859538102522492" lon="9.469158053398132">
        <ele>1805.1400000000001</ele>
        <time>2020-09-13T10:21:25Z</time>
      </trkpt>
      <trkpt lat="45.859529720619321" lon="9.469204992055893">
        <ele>1807.1700000000001</ele>
        <time>2020-09-13T10:21:41Z</time>
      </trkpt>
      <trkpt lat="45.85953407920897" lon="9.4692063331604">
        <ele>1807.3299999999999</ele>
        <time>2020-09-13T10:21:58Z</time>
      </trkpt>
      <trkpt lat="45.859533073380589" lon="9.46921756491065">
        <ele>1807.51</ele>
        <time>2020-09-13T10:22:25Z</time>
      </trkpt>
      <trkpt lat="45.859522009268403" lon="9.469240196049213">
        <ele>1808.8499999999999</ele>
        <time>2020-09-13T10:22:36Z</time>
      </trkpt>
      <trkpt lat="45.859504155814648" lon="9.469300797209144">
        <ele>1811.02</ele>
        <time>2020-09-13T10:22:49Z</time>
      </trkpt>
      <trkpt lat="45.859495438635349" lon="9.469313705340028">
        <ele>1812.01</ele>
        <time>2020-09-13T10:22:59Z</time>
      </trkpt>
      <trkpt lat="45.859460234642029" lon="9.469364834949374">
        <ele>1813.97</ele>
        <time>2020-09-13T10:23:12Z</time>
      </trkpt>
      <trkpt lat="45.859385132789612" lon="9.469365840777755">
        <ele>1816.04</ele>
        <time>2020-09-13T10:23:29Z</time>
      </trkpt>
      <trkpt lat="45.85929318331182" lon="9.46940079331398">
        <ele>1818.22</ele>
        <time>2020-09-13T10:23:44Z</time>
      </trkpt>
      <trkpt lat="45.859218835830688" lon="9.46942962706089">
        <ele>1819.4300000000001</ele>
        <time>2020-09-13T10:23:58Z</time>
      </trkpt>
      <trkpt lat="45.85914951749146" lon="9.469467010349035">
        <ele>1821.3399999999999</ele>
        <time>2020-09-13T10:24:11Z</time>
      </trkpt>
      <trkpt lat="45.859115738421679" lon="9.46949215605855">
        <ele>1821.3199999999999</ele>
        <time>2020-09-13T10:24:23Z</time>
      </trkpt>
      <trkpt lat="45.859034517779946" lon="9.469543537124991">
        <ele>1822.3900000000001</ele>
        <time>2020-09-13T10:24:38Z</time>
      </trkpt>
      <trkpt lat="45.859027728438377" lon="9.469538172706962">
        <ele>1821.9200000000001</ele>
        <time>2020-09-13T10:24:56Z</time>
      </trkpt>
      <trkpt lat="45.85902001708746" lon="9.469543034210801">
        <ele>1822.45</ele>
        <time>2020-09-13T10:25:15Z</time>
      </trkpt>
      <trkpt lat="45.859028734266758" lon="9.469547476619482">
        <ele>1822.4100000000001</ele>
        <time>2020-09-13T10:25:38Z</time>
      </trkpt>
      <trkpt lat="45.858984561637044" lon="9.469575472176075">
        <ele>1822.6800000000001</ele>
        <time>2020-09-13T10:25:56Z</time>
      </trkpt>
      <trkpt lat="45.8589799515903" lon="9.46957815438509">
        <ele>1822.3800000000001</ele>
        <time>2020-09-13T10:26:20Z</time>
      </trkpt>
      <trkpt lat="45.858891103416681" lon="9.469587961211801">
        <ele>1822.8800000000001</ele>
        <time>2020-09-13T10:26:33Z</time>
      </trkpt>
      <trkpt lat="45.858805943280458" lon="9.469613609835506">
        <ele>1823.8099999999999</ele>
        <time>2020-09-13T10:26:43Z</time>
      </trkpt>
      <trkpt lat="45.858730841428041" lon="9.46961184963584">
        <ele>1825.49</ele>
        <time>2020-09-13T10:26:58Z</time>
      </trkpt>
      <trkpt lat="45.858690440654755" lon="9.469595169648528">
        <ele>1826.8499999999999</ele>
        <time>2020-09-13T10:27:11Z</time>
      </trkpt>
      <trkpt lat="45.858639813959599" lon="9.469589972868562">
        <ele>1828.1900000000001</ele>
        <time>2020-09-13T10:27:24Z</time>
      </trkpt>
      <trkpt lat="45.858595222234726" lon="9.469592235982418">
        <ele>1830.1800000000001</ele>
        <time>2020-09-13T10:27:35Z</time>
      </trkpt>
      <trkpt lat="45.858544511720538" lon="9.469588967040181">
        <ele>1831.48</ele>
        <time>2020-09-13T10:27:48Z</time>
      </trkpt>
      <trkpt lat="45.858505452051759" lon="9.469584943726659">
        <ele>1832.97</ele>
        <time>2020-09-13T10:28:00Z</time>
      </trkpt>
      <trkpt lat="45.858461447060108" lon="9.469613442197442">
        <ele>1835.05</ele>
        <time>2020-09-13T10:28:10Z</time>
      </trkpt>
      <trkpt lat="45.85836773738265" lon="9.469603886827827">
        <ele>1836.6600000000001</ele>
        <time>2020-09-13T10:28:27Z</time>
      </trkpt>
      <trkpt lat="45.858337562531233" lon="9.469613609835506">
        <ele>1837.22</ele>
        <time>2020-09-13T10:28:40Z</time>
      </trkpt>
      <trkpt lat="45.858336724340916" lon="9.469602126628161">
        <ele>1837.49</ele>
        <time>2020-09-13T10:28:50Z</time>
      </trkpt>
      <trkpt lat="45.858302107080817" lon="9.469640012830496">
        <ele>1836.8800000000001</ele>
        <time>2020-09-13T10:29:06Z</time>
      </trkpt>
      <trkpt lat="45.858252737671137" lon="9.469766328111291">
        <ele>1835.5</ele>
        <time>2020-09-13T10:29:19Z</time>
      </trkpt>
      <trkpt lat="45.858163889497519" lon="9.469915525987744">
        <ele>1834.3</ele>
        <time>2020-09-13T10:29:35Z</time>
      </trkpt>
      <trkpt lat="45.858119633048773" lon="9.469963638111949">
        <ele>1835.02</ele>
        <time>2020-09-13T10:29:47Z</time>
      </trkpt>
      <trkpt lat="45.858119549229741" lon="9.469960536807776">
        <ele>1835.0999999999999</ele>
        <time>2020-09-13T10:29:49Z</time>
      </trkpt>
      <trkpt lat="45.858121812343597" lon="9.469875209033489">
        <ele>1837.48</ele>
        <time>2020-09-13T10:29:59Z</time>
      </trkpt>
      <trkpt lat="45.858113262802362" lon="9.469832293689251">
        <ele>1839.3699999999999</ele>
        <time>2020-09-13T10:30:13Z</time>
      </trkpt>
      <trkpt lat="45.858127595856786" lon="9.469804633408785">
        <ele>1841.6900000000001</ele>
        <time>2020-09-13T10:30:24Z</time>
      </trkpt>
      <trkpt lat="45.858164392411709" lon="9.469775464385748">
        <ele>1840.8199999999999</ele>
        <time>2020-09-13T10:30:35Z</time>
      </trkpt>
      <trkpt lat="45.858160788193345" lon="9.469774877652526">
        <ele>1840.75</ele>
        <time>2020-09-13T10:30:48Z</time>
      </trkpt>
      <trkpt lat="45.858153076842427" lon="9.469784768298268">
        <ele>1841.0799999999999</ele>
        <time>2020-09-13T10:31:04Z</time>
      </trkpt>
      <trkpt lat="45.858137151226401" lon="9.469777392223477">
        <ele>1840.6900000000001</ele>
        <time>2020-09-13T10:31:21Z</time>
      </trkpt>
      <trkpt lat="45.858133630827069" lon="9.469781080260873">
        <ele>1840.6500000000001</ele>
        <time>2020-09-13T10:31:34Z</time>
      </trkpt>
      <trkpt lat="45.858128434047103" lon="9.469777811318636">
        <ele>1841.25</ele>
        <time>2020-09-13T10:32:04Z</time>
      </trkpt>
      <trkpt lat="45.858123237267137" lon="9.469781750813127">
        <ele>1840.8199999999999</ele>
        <time>2020-09-13T10:32:19Z</time>
      </trkpt>
      <trkpt lat="45.858124997466803" lon="9.469788121059537">
        <ele>1841.1400000000001</ele>
        <time>2020-09-13T10:32:52Z</time>
      </trkpt>
      <trkpt lat="45.858119633048773" lon="9.469786277040839">
        <ele>1840.5799999999999</ele>
        <time>2020-09-13T10:33:24Z</time>
      </trkpt>
      <trkpt lat="45.85811510682106" lon="9.469810416921973">
        <ele>1840.26</ele>
        <time>2020-09-13T10:33:46Z</time>
      </trkpt>
      <trkpt lat="45.858133127912879" lon="9.469815781340003">
        <ele>1840.3299999999999</ele>
        <time>2020-09-13T10:34:06Z</time>
      </trkpt>
      <trkpt lat="45.858124662190676" lon="9.469839669764042">
        <ele>1840.01</ele>
        <time>2020-09-13T10:34:30Z</time>
      </trkpt>
      <trkpt lat="45.858134301379323" lon="9.469855092465878">
        <ele>1839.8599999999999</ele>
        <time>2020-09-13T10:34:51Z</time>
      </trkpt>
      <trkpt lat="45.858112340793014" lon="9.469803124666214">
        <ele>1840.1600000000001</ele>
        <time>2020-09-13T10:35:18Z</time>
      </trkpt>
      <trkpt lat="45.858115023002028" lon="9.469793569296598">
        <ele>1840.52</ele>
        <time>2020-09-13T10:36:16Z</time>
      </trkpt>
      <trkpt lat="45.858102533966303" lon="9.469781331717968">
        <ele>1840.9400000000001</ele>
        <time>2020-09-13T10:37:13Z</time>
      </trkpt>
      <trkpt lat="45.858092727139592" lon="9.469770351424813">
        <ele>1840.97</ele>
        <time>2020-09-13T10:38:18Z</time>
      </trkpt>
      <trkpt lat="45.858089122921228" lon="9.469760879874229">
        <ele>1840.6900000000001</ele>
        <time>2020-09-13T10:39:16Z</time>
      </trkpt>
      <trkpt lat="45.858098175376654" lon="9.469762891530991">
        <ele>1840.6600000000001</ele>
        <time>2020-09-13T10:39:36Z</time>
      </trkpt>
      <trkpt lat="45.858105886727571" lon="9.469764651730657">
        <ele>1840.6300000000001</ele>
        <time>2020-09-13T10:40:00Z</time>
      </trkpt>
      <trkpt lat="45.858114017173648" lon="9.469770854339004">
        <ele>1840.1600000000001</ele>
        <time>2020-09-13T10:40:49Z</time>
      </trkpt>
      <trkpt lat="45.858116699382663" lon="9.469780242070556">
        <ele>1840.01</ele>
        <time>2020-09-13T10:41:39Z</time>
      </trkpt>
      <trkpt lat="45.858117872849107" lon="9.469780409708619">
        <ele>1840.23</ele>
        <time>2020-09-13T10:42:34Z</time>
      </trkpt>
      <trkpt lat="45.858118375763297" lon="9.469773033633828">
        <ele>1840.6099999999999</ele>
        <time>2020-09-13T10:43:20Z</time>
      </trkpt>
      <trkpt lat="45.85811560973525" lon="9.469772195443511">
        <ele>1840.49</ele>
        <time>2020-09-13T10:43:57Z</time>
      </trkpt>
      <trkpt lat="45.858124075457454" lon="9.469774961471558">
        <ele>1840.5999999999999</ele>
        <time>2020-09-13T10:44:35Z</time>
      </trkpt>
      <trkpt lat="45.858129188418388" lon="9.469770854339004">
        <ele>1840.51</ele>
        <time>2020-09-13T10:45:23Z</time>
      </trkpt>
      <trkpt lat="45.858129104599357" lon="9.469771273434162">
        <ele>1840.75</ele>
        <time>2020-09-13T10:46:15Z</time>
      </trkpt>
      <trkpt lat="45.85813220590353" lon="9.46976775303483">
        <ele>1840.75</ele>
        <time>2020-09-13T10:46:52Z</time>
      </trkpt>
      <trkpt lat="45.858130948618054" lon="9.469775212928653">
        <ele>1840.72</ele>
        <time>2020-09-13T10:47:43Z</time>
      </trkpt>
      <trkpt lat="45.858133463189006" lon="9.469774290919304">
        <ele>1840.48</ele>
        <time>2020-09-13T10:48:37Z</time>
      </trkpt>
      <trkpt lat="45.858140420168638" lon="9.469769513234496">
        <ele>1840.6300000000001</ele>
        <time>2020-09-13T10:49:18Z</time>
      </trkpt>
      <trkpt lat="45.858133379369974" lon="9.469774710014463">
        <ele>1840.23</ele>
        <time>2020-09-13T10:50:15Z</time>
      </trkpt>
      <trkpt lat="45.858130864799023" lon="9.469786025583744">
        <ele>1840.51</ele>
        <time>2020-09-13T10:51:15Z</time>
      </trkpt>
      <trkpt lat="45.858127679675817" lon="9.469789378345013">
        <ele>1840.71</ele>
        <time>2020-09-13T10:52:06Z</time>
      </trkpt>
      <trkpt lat="45.858129607513547" lon="9.469788959249854">
        <ele>1840.5</ele>
        <time>2020-09-13T10:52:58Z</time>
      </trkpt>
      <trkpt lat="45.858130026608706" lon="9.469782253727317">
        <ele>1840.9000000000001</ele>
        <time>2020-09-13T10:53:58Z</time>
      </trkpt>
      <trkpt lat="45.858128350228071" lon="9.469776134938002">
        <ele>1840.99</ele>
        <time>2020-09-13T10:54:58Z</time>
      </trkpt>
      <trkpt lat="45.858127595856786" lon="9.469773201271892">
        <ele>1841.1400000000001</ele>
        <time>2020-09-13T10:55:55Z</time>
      </trkpt>
      <trkpt lat="45.858118878677487" lon="9.469769177958369">
        <ele>1840.97</ele>
        <time>2020-09-13T10:56:56Z</time>
      </trkpt>
      <trkpt lat="45.858113933354616" lon="9.469772279262543">
        <ele>1841.0899999999999</ele>
        <time>2020-09-13T10:57:51Z</time>
      </trkpt>
      <trkpt lat="45.858107814565301" lon="9.469766160473228">
        <ele>1840.9000000000001</ele>
        <time>2020-09-13T10:58:54Z</time>
      </trkpt>
      <trkpt lat="45.858117202296853" lon="9.469775045290589">
        <ele>1840.8699999999999</ele>
        <time>2020-09-13T10:59:42Z</time>
      </trkpt>
      <trkpt lat="45.858122566714883" lon="9.469777727499604">
        <ele>1840.8599999999999</ele>
        <time>2020-09-13T11:00:44Z</time>
      </trkpt>
      <trkpt lat="45.858127595856786" lon="9.469775715842843">
        <ele>1840.71</ele>
        <time>2020-09-13T11:01:49Z</time>
      </trkpt>
      <trkpt lat="45.858126673847437" lon="9.469774207100272">
        <ele>1840.8399999999999</ele>
        <time>2020-09-13T11:02:40Z</time>
      </trkpt>
      <trkpt lat="45.858127009123564" lon="9.469771776348352">
        <ele>1841.6900000000001</ele>
        <time>2020-09-13T11:03:15Z</time>
      </trkpt>
      <trkpt lat="45.858124159276485" lon="9.46978242136538">
        <ele>1841.23</ele>
        <time>2020-09-13T11:03:33Z</time>
      </trkpt>
      <trkpt lat="45.858131619170308" lon="9.469776302576065">
        <ele>1840.79</ele>
        <time>2020-09-13T11:03:54Z</time>
      </trkpt>
      <trkpt lat="45.858125165104866" lon="9.469749061390758">
        <ele>1840.5</ele>
        <time>2020-09-13T11:04:11Z</time>
      </trkpt>
      <trkpt lat="45.858114436268806" lon="9.469735817983747">
        <ele>1840.5599999999999</ele>
        <time>2020-09-13T11:05:10Z</time>
      </trkpt>
      <trkpt lat="45.858112424612045" lon="9.469738500192761">
        <ele>1840.6900000000001</ele>
        <time>2020-09-13T11:06:04Z</time>
      </trkpt>
      <trkpt lat="45.858103707432747" lon="9.469739925116301">
        <ele>1840.5599999999999</ele>
        <time>2020-09-13T11:06:49Z</time>
      </trkpt>
      <trkpt lat="45.858098594471812" lon="9.469735817983747">
        <ele>1840.77</ele>
        <time>2020-09-13T11:07:47Z</time>
      </trkpt>
      <trkpt lat="45.85809507407248" lon="9.46973841637373">
        <ele>1840.8199999999999</ele>
        <time>2020-09-13T11:08:49Z</time>
      </trkpt>
      <trkpt lat="45.858093900606036" lon="9.469739506021142">
        <ele>1840.8699999999999</ele>
        <time>2020-09-13T11:09:35Z</time>
      </trkpt>
      <trkpt lat="45.858094906434417" lon="9.469735734164715">
        <ele>1841.1099999999999</ele>
        <time>2020-09-13T11:10:42Z</time>
      </trkpt>
      <trkpt lat="45.858094738796353" lon="9.469748055562377">
        <ele>1840.1900000000001</ele>
        <time>2020-09-13T11:11:48Z</time>
      </trkpt>
      <trkpt lat="45.858095744624734" lon="9.469736656174064">
        <ele>1840.3800000000001</ele>
        <time>2020-09-13T11:12:49Z</time>
      </trkpt>
      <trkpt lat="45.858087446540594" lon="9.469738164916635">
        <ele>1840.3699999999999</ele>
        <time>2020-09-13T11:13:26Z</time>
      </trkpt>
      <trkpt lat="45.858081327751279" lon="9.469737913459539">
        <ele>1841.0799999999999</ele>
        <time>2020-09-13T11:13:34Z</time>
      </trkpt>
      <trkpt lat="45.858089542016387" lon="9.469751575961709">
        <ele>1842</ele>
        <time>2020-09-13T11:13:48Z</time>
      </trkpt>
      <trkpt lat="45.858098426833749" lon="9.469763310626149">
        <ele>1840.95</ele>
        <time>2020-09-13T11:14:06Z</time>
      </trkpt>
      <trkpt lat="45.858130110427737" lon="9.469783091917634">
        <ele>1841.01</ele>
        <time>2020-09-13T11:14:30Z</time>
      </trkpt>
      <trkpt lat="45.858160620555282" lon="9.469772111624479">
        <ele>1840.3199999999999</ele>
        <time>2020-09-13T11:14:47Z</time>
      </trkpt>
      <trkpt lat="45.858165984973311" lon="9.469783511012793">
        <ele>1840.0899999999999</ele>
        <time>2020-09-13T11:15:06Z</time>
      </trkpt>
      <trkpt lat="45.85817227140069" lon="9.469782924279571">
        <ele>1840.48</ele>
        <time>2020-09-13T11:15:25Z</time>
      </trkpt>
      <trkpt lat="45.858182497322559" lon="9.469767166301608">
        <ele>1840.6300000000001</ele>
        <time>2020-09-13T11:15:29Z</time>
      </trkpt>
      <trkpt lat="45.858215689659119" lon="9.46969541721046">
        <ele>1841.02</ele>
        <time>2020-09-13T11:15:36Z</time>
      </trkpt>
      <trkpt lat="45.858280984684825" lon="9.469597851857543">
        <ele>1840.5599999999999</ele>
        <time>2020-09-13T11:15:51Z</time>
      </trkpt>
      <trkpt lat="45.858292384073138" lon="9.469562228769064">
        <ele>1839.8800000000001</ele>
        <time>2020-09-13T11:16:12Z</time>
      </trkpt>
      <trkpt lat="45.858335718512535" lon="9.469541441649199">
        <ele>1840.0599999999999</ele>
        <time>2020-09-13T11:16:24Z</time>
      </trkpt>
      <trkpt lat="45.858371593058109" lon="9.469540771096945">
        <ele>1840.27</ele>
        <time>2020-09-13T11:16:38Z</time>
      </trkpt>
      <trkpt lat="45.858374862000346" lon="9.469532556831837">
        <ele>1841.6199999999999</ele>
        <time>2020-09-13T11:16:51Z</time>
      </trkpt>
      <trkpt lat="45.858380226418376" lon="9.469528030604124">
        <ele>1841.8900000000001</ele>
        <time>2020-09-13T11:17:10Z</time>
      </trkpt>
      <trkpt lat="45.858372515067458" lon="9.469543118029833">
        <ele>1841.04</ele>
        <time>2020-09-13T11:17:21Z</time>
      </trkpt>
      <trkpt lat="45.858368910849094" lon="9.469544710591435">
        <ele>1840.78</ele>
        <time>2020-09-13T11:17:34Z</time>
      </trkpt>
      <trkpt lat="45.858368743211031" lon="9.469551835209131">
        <ele>1840.99</ele>
        <time>2020-09-13T11:17:53Z</time>
      </trkpt>
      <trkpt lat="45.858350470662117" lon="9.46954638697207">
        <ele>1840.26</ele>
        <time>2020-09-13T11:18:20Z</time>
      </trkpt>
      <trkpt lat="45.858352817595005" lon="9.469540016725659">
        <ele>1840.3</ele>
        <time>2020-09-13T11:18:44Z</time>
      </trkpt>
      <trkpt lat="45.858351727947593" lon="9.469535909593105">
        <ele>1840.6400000000001</ele>
        <time>2020-09-13T11:19:05Z</time>
      </trkpt>
      <trkpt lat="45.858350470662117" lon="9.469538507983089">
        <ele>1840.76</ele>
        <time>2020-09-13T11:19:23Z</time>
      </trkpt>
      <trkpt lat="45.858345776796341" lon="9.46954345330596">
        <ele>1840.5599999999999</ele>
        <time>2020-09-13T11:19:56Z</time>
      </trkpt>
      <trkpt lat="45.858351644128561" lon="9.469542279839516">
        <ele>1840.54</ele>
        <time>2020-09-13T11:20:13Z</time>
      </trkpt>
      <trkpt lat="45.8583461958915" lon="9.469542196020484">
        <ele>1840.3800000000001</ele>
        <time>2020-09-13T11:20:31Z</time>
      </trkpt>
      <trkpt lat="45.858341166749597" lon="9.469539346173406">
        <ele>1840.6300000000001</ele>
        <time>2020-09-13T11:20:44Z</time>
      </trkpt>
      <trkpt lat="45.858336724340916" lon="9.469535909593105">
        <ele>1840.9200000000001</ele>
        <time>2020-09-13T11:21:02Z</time>
      </trkpt>
      <trkpt lat="45.858337730169296" lon="9.469546135514975">
        <ele>1840.9100000000001</ele>
        <time>2020-09-13T11:21:21Z</time>
      </trkpt>
      <trkpt lat="45.85832666605711" lon="9.469557283446193">
        <ele>1840.6700000000001</ele>
        <time>2020-09-13T11:21:34Z</time>
      </trkpt>
      <trkpt lat="45.858317529782653" lon="9.469553176313639">
        <ele>1840.99</ele>
        <time>2020-09-13T11:21:49Z</time>
      </trkpt>
      <trkpt lat="45.858310908079147" lon="9.469539178535342">
        <ele>1841</ele>
        <time>2020-09-13T11:22:00Z</time>
      </trkpt>
      <trkpt lat="45.858303867280483" lon="9.469541106373072">
        <ele>1840.78</ele>
        <time>2020-09-13T11:22:18Z</time>
      </trkpt>
      <trkpt lat="45.858252067118883" lon="9.469536747783423">
        <ele>1840.55</ele>
        <time>2020-09-13T11:22:31Z</time>
      </trkpt>
      <trkpt lat="45.85822164081037" lon="9.46953322738409">
        <ele>1839.22</ele>
        <time>2020-09-13T11:22:45Z</time>
      </trkpt>
      <trkpt lat="45.858214097097516" lon="9.469539849087596">
        <ele>1839.01</ele>
        <time>2020-09-13T11:22:56Z</time>
      </trkpt>
      <trkpt lat="45.858195992186666" lon="9.469528030604124">
        <ele>1838.74</ele>
        <time>2020-09-13T11:23:11Z</time>
      </trkpt>
      <trkpt lat="45.858196411281824" lon="9.469433901831508">
        <ele>1838.5799999999999</ele>
        <time>2020-09-13T11:23:29Z</time>
      </trkpt>
      <trkpt lat="45.858193226158619" lon="9.469374641776085">
        <ele>1838.3099999999999</ele>
        <time>2020-09-13T11:23:42Z</time>
      </trkpt>
      <trkpt lat="45.858196746557951" lon="9.469365924596787">
        <ele>1838.2</ele>
        <time>2020-09-13T11:23:58Z</time>
      </trkpt>
      <trkpt lat="45.858227089047432" lon="9.469254361465573">
        <ele>1837.8599999999999</ele>
        <time>2020-09-13T11:24:12Z</time>
      </trkpt>
      <trkpt lat="45.858227172866464" lon="9.469197280704975">
        <ele>1836.3699999999999</ele>
        <time>2020-09-13T11:24:26Z</time>
      </trkpt>
      <trkpt lat="45.858214432373643" lon="9.469164507463574">
        <ele>1834.8399999999999</ele>
        <time>2020-09-13T11:24:39Z</time>
      </trkpt>
      <trkpt lat="45.858192220330238" lon="9.469149000942707">
        <ele>1833</ele>
        <time>2020-09-13T11:24:57Z</time>
      </trkpt>
      <trkpt lat="45.858175959438086" lon="9.469152437523007">
        <ele>1831.6400000000001</ele>
        <time>2020-09-13T11:25:13Z</time>
      </trkpt>
      <trkpt lat="45.858150562271476" lon="9.469198789447546">
        <ele>1829.52</ele>
        <time>2020-09-13T11:25:26Z</time>
      </trkpt>
      <trkpt lat="45.858111334964633" lon="9.469176912680268">
        <ele>1826.8599999999999</ele>
        <time>2020-09-13T11:25:38Z</time>
      </trkpt>
      <trkpt lat="45.858088284730911" lon="9.469111701473594">
        <ele>1825.1400000000001</ele>
        <time>2020-09-13T11:25:51Z</time>
      </trkpt>
      <trkpt lat="45.85806624032557" lon="9.469019751995802">
        <ele>1823.9200000000001</ele>
        <time>2020-09-13T11:26:03Z</time>
      </trkpt>
      <trkpt lat="45.858056182041764" lon="9.468997959047556">
        <ele>1823.3499999999999</ele>
        <time>2020-09-13T11:26:06Z</time>
      </trkpt>
      <trkpt lat="45.858039669692516" lon="9.468964096158743">
        <ele>1822.7</ele>
        <time>2020-09-13T11:26:17Z</time>
      </trkpt>
      <trkpt lat="45.857965489849448" lon="9.468901567161083">
        <ele>1822.8099999999999</ele>
        <time>2020-09-13T11:26:29Z</time>
      </trkpt>
      <trkpt lat="45.857936991378665" lon="9.468877175822854">
        <ele>1821.8099999999999</ele>
        <time>2020-09-13T11:26:41Z</time>
      </trkpt>
      <trkpt lat="45.857915785163641" lon="9.468890586867929">
        <ele>1820.49</ele>
        <time>2020-09-13T11:26:52Z</time>
      </trkpt>
      <trkpt lat="45.85789131000638" lon="9.468905841931701">
        <ele>1819.0999999999999</ele>
        <time>2020-09-13T11:26:58Z</time>
      </trkpt>
      <trkpt lat="45.85781654343009" lon="9.468873655423522">
        <ele>1817.05</ele>
        <time>2020-09-13T11:27:10Z</time>
      </trkpt>
      <trkpt lat="45.857745297253132" lon="9.468801487237215">
        <ele>1815.0799999999999</ele>
        <time>2020-09-13T11:27:23Z</time>
      </trkpt>
      <trkpt lat="45.857707411050797" lon="9.468771312385798">
        <ele>1813.4300000000001</ele>
        <time>2020-09-13T11:27:33Z</time>
      </trkpt>
      <trkpt lat="45.857686875388026" lon="9.468785226345062">
        <ele>1812.3900000000001</ele>
        <time>2020-09-13T11:27:44Z</time>
      </trkpt>
      <trkpt lat="45.857654772698879" lon="9.468808528035879">
        <ele>1810.5799999999999</ele>
        <time>2020-09-13T11:27:57Z</time>
      </trkpt>
      <trkpt lat="45.857634153217077" lon="9.468769719824195">
        <ele>1808.95</ele>
        <time>2020-09-13T11:28:08Z</time>
      </trkpt>
      <trkpt lat="45.857606073841453" lon="9.468726720660925">
        <ele>1807.3399999999999</ele>
        <time>2020-09-13T11:28:19Z</time>
      </trkpt>
      <trkpt lat="45.85759081877768" lon="9.468724122270942">
        <ele>1806.51</ele>
        <time>2020-09-13T11:28:33Z</time>
      </trkpt>
      <trkpt lat="45.857581263408065" lon="9.468751531094313">
        <ele>1804.3699999999999</ele>
        <time>2020-09-13T11:28:44Z</time>
      </trkpt>
      <trkpt lat="45.857586460188031" lon="9.468784807249904">
        <ele>1803.1500000000001</ele>
        <time>2020-09-13T11:28:55Z</time>
      </trkpt>
      <trkpt lat="45.857573132961988" lon="9.468801068142057">
        <ele>1801.47</ele>
        <time>2020-09-13T11:29:05Z</time>
      </trkpt>
      <trkpt lat="45.857564834877849" lon="9.468857645988464">
        <ele>1799.73</ele>
        <time>2020-09-13T11:29:15Z</time>
      </trkpt>
      <trkpt lat="45.857545472681522" lon="9.46886720135808">
        <ele>1798.96</ele>
        <time>2020-09-13T11:29:27Z</time>
      </trkpt>
      <trkpt lat="45.857518818229437" lon="9.46884959936142">
        <ele>1797.8</ele>
        <time>2020-09-13T11:29:41Z</time>
      </trkpt>
      <trkpt lat="45.857497695833445" lon="9.468857226893306">
        <ele>1796.27</ele>
        <time>2020-09-13T11:29:50Z</time>
      </trkpt>
      <trkpt lat="45.857490403577685" lon="9.468848006799817">
        <ele>1795.76</ele>
        <time>2020-09-13T11:30:03Z</time>
      </trkpt>
      <trkpt lat="45.857493588700891" lon="9.468871392309666">
        <ele>1795.46</ele>
        <time>2020-09-13T11:30:13Z</time>
      </trkpt>
      <trkpt lat="45.857495265081525" lon="9.468884719535708">
        <ele>1794.78</ele>
        <time>2020-09-13T11:30:31Z</time>
      </trkpt>
      <trkpt lat="45.85750968195498" lon="9.468918163329363">
        <ele>1793.76</ele>
        <time>2020-09-13T11:30:43Z</time>
      </trkpt>
      <trkpt lat="45.857527703046799" lon="9.46893559768796">
        <ele>1792.98</ele>
        <time>2020-09-13T11:30:57Z</time>
      </trkpt>
      <trkpt lat="45.857509262859821" lon="9.468950014561415">
        <ele>1791.5799999999999</ele>
        <time>2020-09-13T11:31:08Z</time>
      </trkpt>
      <trkpt lat="45.857496438547969" lon="9.468953534960747">
        <ele>1790.96</ele>
        <time>2020-09-13T11:31:23Z</time>
      </trkpt>
      <trkpt lat="45.857512699440122" lon="9.46897373534739">
        <ele>1790.3699999999999</ele>
        <time>2020-09-13T11:31:39Z</time>
      </trkpt>
      <trkpt lat="45.857527703046799" lon="9.468980440869927">
        <ele>1789.51</ele>
        <time>2020-09-13T11:31:56Z</time>
      </trkpt>
      <trkpt lat="45.857537006959319" lon="9.468991840258241">
        <ele>1788.4300000000001</ele>
        <time>2020-09-13T11:32:10Z</time>
      </trkpt>
      <trkpt lat="45.857549579814076" lon="9.469018410891295">
        <ele>1787.1600000000001</ele>
        <time>2020-09-13T11:32:25Z</time>
      </trkpt>
      <trkpt lat="45.85757908411324" lon="9.46907096542418">
        <ele>1785.8299999999999</ele>
        <time>2020-09-13T11:32:37Z</time>
      </trkpt>
      <trkpt lat="45.857580089941621" lon="9.469102481380105">
        <ele>1784.7</ele>
        <time>2020-09-13T11:32:48Z</time>
      </trkpt>
      <trkpt lat="45.857574976980686" lon="9.46911882609129">
        <ele>1784.3199999999999</ele>
        <time>2020-09-13T11:33:02Z</time>
      </trkpt>
      <trkpt lat="45.857551926746964" lon="9.469126621261239">
        <ele>1782.5899999999999</ele>
        <time>2020-09-13T11:33:18Z</time>
      </trkpt>
      <trkpt lat="45.857536336407065" lon="9.46914522908628">
        <ele>1781.71</ele>
        <time>2020-09-13T11:33:31Z</time>
      </trkpt>
      <trkpt lat="45.857532061636448" lon="9.469170374795795">
        <ele>1780.6199999999999</ele>
        <time>2020-09-13T11:33:46Z</time>
      </trkpt>
      <trkpt lat="45.857502054423094" lon="9.469133242964745">
        <ele>1779.27</ele>
        <time>2020-09-13T11:33:57Z</time>
      </trkpt>
      <trkpt lat="45.857462491840124" lon="9.469117065891624">
        <ele>1777.4200000000001</ele>
        <time>2020-09-13T11:34:08Z</time>
      </trkpt>
      <trkpt lat="45.857417983934283" lon="9.469078257679939">
        <ele>1775.3599999999999</ele>
        <time>2020-09-13T11:34:19Z</time>
      </trkpt>
      <trkpt lat="45.857376828789711" lon="9.469026122242212">
        <ele>1773.6199999999999</ele>
        <time>2020-09-13T11:34:31Z</time>
      </trkpt>
      <trkpt lat="45.857351096346974" lon="9.46900550276041">
        <ele>1772.1900000000001</ele>
        <time>2020-09-13T11:34:42Z</time>
      </trkpt>
      <trkpt lat="45.85732989013195" lon="9.469000473618507">
        <ele>1770.4100000000001</ele>
        <time>2020-09-13T11:34:55Z</time>
      </trkpt>
      <trkpt lat="45.857292842119932" lon="9.468998042866588">
        <ele>1769.53</ele>
        <time>2020-09-13T11:35:03Z</time>
      </trkpt>
      <trkpt lat="45.857298457995057" lon="9.46899670176208">
        <ele>1769.5899999999999</ele>
        <time>2020-09-13T11:35:21Z</time>
      </trkpt>
      <trkpt lat="45.857337098568678" lon="9.468937357887626">
        <ele>1768.2</ele>
        <time>2020-09-13T11:35:34Z</time>
      </trkpt>
      <trkpt lat="45.857329806312919" lon="9.468899136409164">
        <ele>1766.9300000000001</ele>
        <time>2020-09-13T11:35:46Z</time>
      </trkpt>
      <trkpt lat="45.857297955080867" lon="9.46882076561451">
        <ele>1764.6199999999999</ele>
        <time>2020-09-13T11:36:01Z</time>
      </trkpt>
      <trkpt lat="45.857297787442803" lon="9.468808863312006">
        <ele>1764.3299999999999</ele>
        <time>2020-09-13T11:36:10Z</time>
      </trkpt>
      <trkpt lat="45.857306839898229" lon="9.468807438388467">
        <ele>1763.75</ele>
        <time>2020-09-13T11:36:20Z</time>
      </trkpt>
      <trkpt lat="45.857304409146309" lon="9.468805594369769">
        <ele>1763.54</ele>
        <time>2020-09-13T11:36:42Z</time>
      </trkpt>
      <trkpt lat="45.857314048334956" lon="9.468801487237215">
        <ele>1763.54</ele>
        <time>2020-09-13T11:37:18Z</time>
      </trkpt>
      <trkpt lat="45.857302565127611" lon="9.468797883018851">
        <ele>1764.1199999999999</ele>
        <time>2020-09-13T11:37:32Z</time>
      </trkpt>
      <trkpt lat="45.857279682531953" lon="9.468815317377448">
        <ele>1763.04</ele>
        <time>2020-09-13T11:37:44Z</time>
      </trkpt>
      <trkpt lat="45.85723115131259" lon="9.468736695125699">
        <ele>1760.9400000000001</ele>
        <time>2020-09-13T11:37:54Z</time>
      </trkpt>
      <trkpt lat="45.857180524617434" lon="9.468651786446571">
        <ele>1759.26</ele>
        <time>2020-09-13T11:38:07Z</time>
      </trkpt>
      <trkpt lat="45.857175327837467" lon="9.468649020418525">
        <ele>1759</ele>
        <time>2020-09-13T11:38:08Z</time>
      </trkpt>
      <trkpt lat="45.857092095538974" lon="9.468569979071617">
        <ele>1758.76</ele>
        <time>2020-09-13T11:38:19Z</time>
      </trkpt>
      <trkpt lat="45.857071476057172" lon="9.468565201386809">
        <ele>1757.4400000000001</ele>
        <time>2020-09-13T11:38:32Z</time>
      </trkpt>
      <trkpt lat="45.857042390853167" lon="9.468548269942403">
        <ele>1755.6800000000001</ele>
        <time>2020-09-13T11:38:42Z</time>
      </trkpt>
      <trkpt lat="45.857036942616105" lon="9.468541312962771">
        <ele>1754.7</ele>
        <time>2020-09-13T11:38:53Z</time>
      </trkpt>
      <trkpt lat="45.857012383639812" lon="9.468491189181805">
        <ele>1752.8599999999999</ele>
        <time>2020-09-13T11:39:07Z</time>
      </trkpt>
      <trkpt lat="45.856976173818111" lon="9.468439137563109">
        <ele>1751.6800000000001</ele>
        <time>2020-09-13T11:39:18Z</time>
      </trkpt>
      <trkpt lat="45.856957565993071" lon="9.468438467010856">
        <ele>1750.49</ele>
        <time>2020-09-13T11:39:35Z</time>
      </trkpt>
      <trkpt lat="45.856944071128964" lon="9.46843134239316">
        <ele>1749.5599999999999</ele>
        <time>2020-09-13T11:39:53Z</time>
      </trkpt>
      <trkpt lat="45.856932923197746" lon="9.468405693769455">
        <ele>1749.0899999999999</ele>
        <time>2020-09-13T11:40:06Z</time>
      </trkpt>
      <trkpt lat="45.856906520202756" lon="9.468383397907019">
        <ele>1747.5899999999999</ele>
        <time>2020-09-13T11:40:22Z</time>
      </trkpt>
      <trkpt lat="45.85687349550426" lon="9.468381050974131">
        <ele>1745.5599999999999</ele>
        <time>2020-09-13T11:40:38Z</time>
      </trkpt>
      <trkpt lat="45.856865951791406" lon="9.46839077398181">
        <ele>1744.3299999999999</ele>
        <time>2020-09-13T11:40:53Z</time>
      </trkpt>
      <trkpt lat="45.856855558231473" lon="9.46841080673039">
        <ele>1743.02</ele>
        <time>2020-09-13T11:41:05Z</time>
      </trkpt>
      <trkpt lat="45.856836615130305" lon="9.468409046530724">
        <ele>1742.1099999999999</ele>
        <time>2020-09-13T11:41:07Z</time>
      </trkpt>
      <trkpt lat="45.856765117496252" lon="9.468369651585817">
        <ele>1740.75</ele>
        <time>2020-09-13T11:41:13Z</time>
      </trkpt>
      <trkpt lat="45.856660511344671" lon="9.468377446755767">
        <ele>1738.5999999999999</ele>
        <time>2020-09-13T11:41:24Z</time>
      </trkpt>
      <trkpt lat="45.856522042304277" lon="9.468237049877644">
        <ele>1736.9300000000001</ele>
        <time>2020-09-13T11:41:40Z</time>
      </trkpt>
      <trkpt lat="45.856436798349023" lon="9.468117188662291">
        <ele>1736.24</ele>
        <time>2020-09-13T11:41:53Z</time>
      </trkpt>
      <trkpt lat="45.856360020115972" lon="9.467986598610878">
        <ele>1735.3099999999999</ele>
        <time>2020-09-13T11:42:04Z</time>
      </trkpt>
      <trkpt lat="45.856278548017144" lon="9.467828599736095">
        <ele>1736.4300000000001</ele>
        <time>2020-09-13T11:42:17Z</time>
      </trkpt>
      <trkpt lat="45.856181820854545" lon="9.467739416286349">
        <ele>1736.6300000000001</ele>
        <time>2020-09-13T11:42:31Z</time>
      </trkpt>
      <trkpt lat="45.856141084805131" lon="9.467684095725417">
        <ele>1735.6700000000001</ele>
        <time>2020-09-13T11:42:42Z</time>
      </trkpt>
      <trkpt lat="45.856108646839857" lon="9.467637743800879">
        <ele>1735.1099999999999</ele>
        <time>2020-09-13T11:42:54Z</time>
      </trkpt>
      <trkpt lat="45.856103533878922" lon="9.467591308057308">
        <ele>1734.45</ele>
        <time>2020-09-13T11:43:07Z</time>
      </trkpt>
      <trkpt lat="45.856092469766736" lon="9.467580998316407">
        <ele>1732.75</ele>
        <time>2020-09-13T11:43:22Z</time>
      </trkpt>
      <trkpt lat="45.856077214702964" lon="9.467562641948462">
        <ele>1732.3399999999999</ele>
        <time>2020-09-13T11:43:34Z</time>
      </trkpt>
      <trkpt lat="45.856068413704634" lon="9.467543698847294">
        <ele>1732.2</ele>
        <time>2020-09-13T11:43:49Z</time>
      </trkpt>
      <trkpt lat="45.85603991523385" lon="9.46756599470973">
        <ele>1729.9000000000001</ele>
        <time>2020-09-13T11:44:00Z</time>
      </trkpt>
      <trkpt lat="45.856040921062231" lon="9.467549985274673">
        <ele>1729.51</ele>
        <time>2020-09-13T11:44:12Z</time>
      </trkpt>
      <trkpt lat="45.856026923283935" lon="9.46753908880055">
        <ele>1727.8</ele>
        <time>2020-09-13T11:44:26Z</time>
      </trkpt>
      <trkpt lat="45.856007393449545" lon="9.467550404369831">
        <ele>1725.76</ele>
        <time>2020-09-13T11:44:40Z</time>
      </trkpt>
      <trkpt lat="45.855979816988111" lon="9.467545626685023">
        <ele>1723.6700000000001</ele>
        <time>2020-09-13T11:44:52Z</time>
      </trkpt>
      <trkpt lat="45.855932459235191" lon="9.467530203983188">
        <ele>1721.6300000000001</ele>
        <time>2020-09-13T11:45:04Z</time>
      </trkpt>
      <trkpt lat="45.855900021269917" lon="9.467523414641619">
        <ele>1720.1400000000001</ele>
        <time>2020-09-13T11:45:14Z</time>
      </trkpt>
      <trkpt lat="45.855831876397133" lon="9.467507237568498">
        <ele>1718.6700000000001</ele>
        <time>2020-09-13T11:45:26Z</time>
      </trkpt>
      <trkpt lat="45.855795331299305" lon="9.467501118779182">
        <ele>1717.8099999999999</ele>
        <time>2020-09-13T11:45:36Z</time>
      </trkpt>
      <trkpt lat="45.855780327692628" lon="9.467495754361153">
        <ele>1717.24</ele>
        <time>2020-09-13T11:45:49Z</time>
      </trkpt>
      <trkpt lat="45.855761887505651" lon="9.467498017475009">
        <ele>1715.73</ele>
        <time>2020-09-13T11:45:59Z</time>
      </trkpt>
      <trkpt lat="45.855730958282948" lon="9.467530287802219">
        <ele>1713.3</ele>
        <time>2020-09-13T11:46:11Z</time>
      </trkpt>
      <trkpt lat="45.855691144242883" lon="9.467528443783522">
        <ele>1712.22</ele>
        <time>2020-09-13T11:46:23Z</time>
      </trkpt>
      <trkpt lat="45.855670105665922" lon="9.46754202246666">
        <ele>1710.26</ele>
        <time>2020-09-13T11:46:34Z</time>
      </trkpt>
      <trkpt lat="45.855642948299646" lon="9.467579908668995">
        <ele>1708.4300000000001</ele>
        <time>2020-09-13T11:46:46Z</time>
      </trkpt>
      <trkpt lat="45.855645211413503" lon="9.467586614191532">
        <ele>1708.3199999999999</ele>
        <time>2020-09-13T11:47:05Z</time>
      </trkpt>
      <trkpt lat="45.855629872530699" lon="9.467583931982517">
        <ele>1707.6900000000001</ele>
        <time>2020-09-13T11:47:19Z</time>
      </trkpt>
      <trkpt lat="45.855623502284288" lon="9.467607233673334">
        <ele>1706.3</ele>
        <time>2020-09-13T11:47:34Z</time>
      </trkpt>
      <trkpt lat="45.855580419301987" lon="9.467629194259644">
        <ele>1703.9400000000001</ele>
        <time>2020-09-13T11:47:45Z</time>
      </trkpt>
      <trkpt lat="45.855497689917684" lon="9.467598097398877">
        <ele>1702.23</ele>
        <time>2020-09-13T11:47:56Z</time>
      </trkpt>
      <trkpt lat="45.855496684089303" lon="9.467568844556809">
        <ele>1701.8199999999999</ele>
        <time>2020-09-13T11:48:14Z</time>
      </trkpt>
      <trkpt lat="45.855495678260922" lon="9.4675312936306">
        <ele>1701.0999999999999</ele>
        <time>2020-09-13T11:48:18Z</time>
      </trkpt>
      <trkpt lat="45.855446560308337" lon="9.467419730499387">
        <ele>1700.0699999999999</ele>
        <time>2020-09-13T11:48:30Z</time>
      </trkpt>
      <trkpt lat="45.855422588065267" lon="9.467343455180526">
        <ele>1699.0599999999999</ele>
        <time>2020-09-13T11:48:40Z</time>
      </trkpt>
      <trkpt lat="45.855387048795819" lon="9.467271454632282">
        <ele>1697.8699999999999</ele>
        <time>2020-09-13T11:48:53Z</time>
      </trkpt>
      <trkpt lat="45.855372883379459" lon="9.467202136293054">
        <ele>1697.28</ele>
        <time>2020-09-13T11:49:08Z</time>
      </trkpt>
      <trkpt lat="45.855373051017523" lon="9.467208757996559">
        <ele>1696.1400000000001</ele>
        <time>2020-09-13T11:49:18Z</time>
      </trkpt>
      <trkpt lat="45.855371877551079" lon="9.467235747724772">
        <ele>1694.75</ele>
        <time>2020-09-13T11:49:29Z</time>
      </trkpt>
      <trkpt lat="45.855367351323366" lon="9.467233652248979">
        <ele>1694.49</ele>
        <time>2020-09-13T11:49:30Z</time>
      </trkpt>
      <trkpt lat="45.855328375473619" lon="9.467194173485041">
        <ele>1693.75</ele>
        <time>2020-09-13T11:49:42Z</time>
      </trkpt>
      <trkpt lat="45.855324100703001" lon="9.467193251475692">
        <ele>1693.6300000000001</ele>
        <time>2020-09-13T11:49:59Z</time>
      </trkpt>
      <trkpt lat="45.855299038812518" lon="9.467177744954824">
        <ele>1693.3299999999999</ele>
        <time>2020-09-13T11:50:09Z</time>
      </trkpt>
      <trkpt lat="45.855291076004505" lon="9.467173470184207">
        <ele>1693.0799999999999</ele>
        <time>2020-09-13T11:50:10Z</time>
      </trkpt>
      <trkpt lat="45.855202060192823" lon="9.467138350009918">
        <ele>1692.1600000000001</ele>
        <time>2020-09-13T11:50:21Z</time>
      </trkpt>
      <trkpt lat="45.855177585035563" lon="9.467096608132124">
        <ele>1690.5</ele>
        <time>2020-09-13T11:50:33Z</time>
      </trkpt>
      <trkpt lat="45.855186721310019" lon="9.467022679746151">
        <ele>1689.1300000000001</ele>
        <time>2020-09-13T11:50:50Z</time>
      </trkpt>
      <trkpt lat="45.855195019394159" lon="9.466995857656002">
        <ele>1688</ele>
        <time>2020-09-13T11:51:01Z</time>
      </trkpt>
      <trkpt lat="45.855213878676295" lon="9.466991415247321">
        <ele>1686.8099999999999</ele>
        <time>2020-09-13T11:51:15Z</time>
      </trkpt>
      <trkpt lat="45.855226116254926" lon="9.466966856271029">
        <ele>1685.4100000000001</ele>
        <time>2020-09-13T11:51:24Z</time>
      </trkpt>
      <trkpt lat="45.855208598077297" lon="9.466870464384556">
        <ele>1685.04</ele>
        <time>2020-09-13T11:51:36Z</time>
      </trkpt>
      <trkpt lat="45.855191750451922" lon="9.466840121895075">
        <ele>1684.04</ele>
        <time>2020-09-13T11:51:49Z</time>
      </trkpt>
      <trkpt lat="45.855196276679635" lon="9.466838948428631">
        <ele>1683.9200000000001</ele>
        <time>2020-09-13T11:52:03Z</time>
      </trkpt>
      <trkpt lat="45.855181273072958" lon="9.466837858781219">
        <ele>1683.1800000000001</ele>
        <time>2020-09-13T11:52:15Z</time>
      </trkpt>
      <trkpt lat="45.855169203132391" lon="9.466775078326464">
        <ele>1680.3499999999999</ele>
        <time>2020-09-13T11:52:27Z</time>
      </trkpt>
      <trkpt lat="45.855161994695663" lon="9.466750016435981">
        <ele>1679.1400000000001</ele>
        <time>2020-09-13T11:52:38Z</time>
      </trkpt>
      <trkpt lat="45.855127461254597" lon="9.466714225709438">
        <ele>1676.5</ele>
        <time>2020-09-13T11:52:49Z</time>
      </trkpt>
      <trkpt lat="45.855101058259606" lon="9.466663096100092">
        <ele>1674.5699999999999</ele>
        <time>2020-09-13T11:53:01Z</time>
      </trkpt>
      <trkpt lat="45.855054706335068" lon="9.466657731682062">
        <ele>1672.25</ele>
        <time>2020-09-13T11:53:15Z</time>
      </trkpt>
      <trkpt lat="45.855022855103016" lon="9.466652451083064">
        <ele>1670.49</ele>
        <time>2020-09-13T11:53:25Z</time>
      </trkpt>
      <trkpt lat="45.854990500956774" lon="9.466642811894417">
        <ele>1669.8900000000001</ele>
        <time>2020-09-13T11:53:34Z</time>
      </trkpt>
      <trkpt lat="45.854896958917379" lon="9.466611044481397">
        <ele>1671.25</ele>
        <time>2020-09-13T11:53:49Z</time>
      </trkpt>
      <trkpt lat="45.854871058836579" lon="9.466606266796589">
        <ele>1670.46</ele>
        <time>2020-09-13T11:54:02Z</time>
      </trkpt>
      <trkpt lat="45.854863934218884" lon="9.466595873236656">
        <ele>1670.7</ele>
        <time>2020-09-13T11:54:26Z</time>
      </trkpt>
      <trkpt lat="45.854864520952106" lon="9.466593945398927">
        <ele>1670.3199999999999</ele>
        <time>2020-09-13T11:54:43Z</time>
      </trkpt>
      <trkpt lat="45.854867706075311" lon="9.466609116643667">
        <ele>1670.0799999999999</ele>
        <time>2020-09-13T11:54:59Z</time>
      </trkpt>
      <trkpt lat="45.854868879541755" lon="9.466595621779561">
        <ele>1669.5999999999999</ele>
        <time>2020-09-13T11:55:12Z</time>
      </trkpt>
      <trkpt lat="45.854863850399852" lon="9.466598303988576">
        <ele>1670.6700000000001</ele>
        <time>2020-09-13T11:55:29Z</time>
      </trkpt>
      <trkpt lat="45.854867286980152" lon="9.46660241112113">
        <ele>1670.8399999999999</ele>
        <time>2020-09-13T11:55:43Z</time>
      </trkpt>
      <trkpt lat="45.854853624477983" lon="9.466605680063367">
        <ele>1670.6900000000001</ele>
        <time>2020-09-13T11:56:00Z</time>
      </trkpt>
      <trkpt lat="45.854856222867966" lon="9.466601153835654">
        <ele>1670.99</ele>
        <time>2020-09-13T11:56:17Z</time>
      </trkpt>
      <trkpt lat="45.854852702468634" lon="9.466599896550179">
        <ele>1670.6900000000001</ele>
        <time>2020-09-13T11:56:34Z</time>
      </trkpt>
      <trkpt lat="45.85484909825027" lon="9.466600064188242">
        <ele>1670.3900000000001</ele>
        <time>2020-09-13T11:56:57Z</time>
      </trkpt>
      <trkpt lat="45.854856390506029" lon="9.466604758054018">
        <ele>1670.3599999999999</ele>
        <time>2020-09-13T11:57:17Z</time>
      </trkpt>
      <trkpt lat="45.854847086593509" lon="9.466592939570546">
        <ele>1670.9200000000001</ele>
        <time>2020-09-13T11:57:37Z</time>
      </trkpt>
      <trkpt lat="45.854817498475313" lon="9.466583216562867">
        <ele>1670.6400000000001</ele>
        <time>2020-09-13T11:57:53Z</time>
      </trkpt>
      <trkpt lat="45.85477483458817" lon="9.46654130704701">
        <ele>1670.9400000000001</ele>
        <time>2020-09-13T11:58:04Z</time>
      </trkpt>
      <trkpt lat="45.854773325845599" lon="9.466532841324806">
        <ele>1670.99</ele>
        <time>2020-09-13T11:58:17Z</time>
      </trkpt>
      <trkpt lat="45.854737367480993" lon="9.466509539633989">
        <ele>1670.76</ele>
        <time>2020-09-13T11:58:35Z</time>
      </trkpt>
      <trkpt lat="45.854704342782497" lon="9.466476682573557">
        <ele>1670.05</ele>
        <time>2020-09-13T11:58:46Z</time>
      </trkpt>
      <trkpt lat="45.85468539968133" lon="9.466440556570888">
        <ele>1668.28</ele>
        <time>2020-09-13T11:58:59Z</time>
      </trkpt>
      <trkpt lat="45.854673413559794" lon="9.466431671753526">
        <ele>1667.52</ele>
        <time>2020-09-13T11:59:12Z</time>
      </trkpt>
      <trkpt lat="45.854652291163802" lon="9.466422703117132">
        <ele>1666</ele>
        <time>2020-09-13T11:59:23Z</time>
      </trkpt>
      <trkpt lat="45.854650195688009" lon="9.466455141082406">
        <ele>1665.5</ele>
        <time>2020-09-13T11:59:36Z</time>
      </trkpt>
      <trkpt lat="45.854631336405873" lon="9.466458577662706">
        <ele>1663.54</ele>
        <time>2020-09-13T11:59:48Z</time>
      </trkpt>
      <trkpt lat="45.854622535407543" lon="9.466452123597264">
        <ele>1662.6099999999999</ele>
        <time>2020-09-13T12:00:00Z</time>
      </trkpt>
      <trkpt lat="45.854596551507711" lon="9.466408705338836">
        <ele>1661.03</ele>
        <time>2020-09-13T12:00:13Z</time>
      </trkpt>
      <trkpt lat="45.854573333635926" lon="9.466396803036332">
        <ele>1659.72</ele>
        <time>2020-09-13T12:00:30Z</time>
      </trkpt>
      <trkpt lat="45.854561431333423" lon="9.466412225738168">
        <ele>1658.47</ele>
        <time>2020-09-13T12:00:43Z</time>
      </trkpt>
      <trkpt lat="45.8545280713588" lon="9.46637517772615">
        <ele>1656.3699999999999</ele>
        <time>2020-09-13T12:00:52Z</time>
      </trkpt>
      <trkpt lat="45.854535112157464" lon="9.466317929327488">
        <ele>1654.29</ele>
        <time>2020-09-13T12:01:05Z</time>
      </trkpt>
      <trkpt lat="45.854550199583173" lon="9.46623595431447">
        <ele>1652.8199999999999</ele>
        <time>2020-09-13T12:01:18Z</time>
      </trkpt>
      <trkpt lat="45.854495465755463" lon="9.466178622096777">
        <ele>1651.3399999999999</ele>
        <time>2020-09-13T12:01:31Z</time>
      </trkpt>
      <trkpt lat="45.854475433006883" lon="9.46618122048676">
        <ele>1650.6400000000001</ele>
        <time>2020-09-13T12:01:45Z</time>
      </trkpt>
      <trkpt lat="45.854435535147786" lon="9.466180382296443">
        <ele>1648.6099999999999</ele>
        <time>2020-09-13T12:01:59Z</time>
      </trkpt>
      <trkpt lat="45.854415837675333" lon="9.466170407831669">
        <ele>1647.5799999999999</ele>
        <time>2020-09-13T12:02:08Z</time>
      </trkpt>
      <trkpt lat="45.854381639510393" lon="9.466166887432337">
        <ele>1644.47</ele>
        <time>2020-09-13T12:02:19Z</time>
      </trkpt>
      <trkpt lat="45.854377448558807" lon="9.466159762814641">
        <ele>1644.1400000000001</ele>
        <time>2020-09-13T12:02:28Z</time>
      </trkpt>
      <trkpt lat="45.854335371404886" lon="9.466101676225662">
        <ele>1642.05</ele>
        <time>2020-09-13T12:02:41Z</time>
      </trkpt>
      <trkpt lat="45.854277536273003" lon="9.466038895770907">
        <ele>1640.5799999999999</ele>
        <time>2020-09-13T12:02:52Z</time>
      </trkpt>
      <trkpt lat="45.854241913184524" lon="9.46599505841732">
        <ele>1639.1099999999999</ele>
        <time>2020-09-13T12:03:04Z</time>
      </trkpt>
      <trkpt lat="45.854206709191203" lon="9.465975696220994">
        <ele>1637.52</ele>
        <time>2020-09-13T12:03:15Z</time>
      </trkpt>
      <trkpt lat="45.854193968698382" lon="9.465964464470744">
        <ele>1637.1300000000001</ele>
        <time>2020-09-13T12:03:26Z</time>
      </trkpt>
      <trkpt lat="45.85417871363461" lon="9.465951137244701">
        <ele>1635.8299999999999</ele>
        <time>2020-09-13T12:03:37Z</time>
      </trkpt>
      <trkpt lat="45.85414694622159" lon="9.465885255485773">
        <ele>1633.0599999999999</ele>
        <time>2020-09-13T12:03:48Z</time>
      </trkpt>
      <trkpt lat="45.854137893766165" lon="9.465873185545206">
        <ele>1632.6199999999999</ele>
        <time>2020-09-13T12:03:59Z</time>
      </trkpt>
      <trkpt lat="45.854135965928435" lon="9.465871257707477">
        <ele>1632.1900000000001</ele>
        <time>2020-09-13T12:04:14Z</time>
      </trkpt>
      <trkpt lat="45.85412691347301" lon="9.465866563841701">
        <ele>1631.3800000000001</ele>
        <time>2020-09-13T12:04:35Z</time>
      </trkpt>
      <trkpt lat="45.854103192687035" lon="9.465846866369247">
        <ele>1629.46</ele>
        <time>2020-09-13T12:04:48Z</time>
      </trkpt>
      <trkpt lat="45.854068910703063" lon="9.465820463374257">
        <ele>1626.8199999999999</ele>
        <time>2020-09-13T12:04:59Z</time>
      </trkpt>
      <trkpt lat="45.854009902104735" lon="9.465795233845711">
        <ele>1624.5599999999999</ele>
        <time>2020-09-13T12:05:10Z</time>
      </trkpt>
      <trkpt lat="45.854004034772515" lon="9.465739158913493">
        <ele>1623.1199999999999</ele>
        <time>2020-09-13T12:05:21Z</time>
      </trkpt>
      <trkpt lat="45.854036053642631" lon="9.465734548866749">
        <ele>1622.4200000000001</ele>
        <time>2020-09-13T12:05:36Z</time>
      </trkpt>
      <trkpt lat="45.854056086391211" lon="9.465746283531189">
        <ele>1621.55</ele>
        <time>2020-09-13T12:05:49Z</time>
      </trkpt>
      <trkpt lat="45.854068072512746" lon="9.465742846950889">
        <ele>1621.1900000000001</ele>
        <time>2020-09-13T12:06:06Z</time>
      </trkpt>
      <trkpt lat="45.854059439152479" lon="9.465724239125848">
        <ele>1619.9000000000001</ele>
        <time>2020-09-13T12:06:20Z</time>
      </trkpt>
      <trkpt lat="45.854078130796552" lon="9.46570236235857">
        <ele>1618.3399999999999</ele>
        <time>2020-09-13T12:06:31Z</time>
      </trkpt>
      <trkpt lat="45.854070167988539" lon="9.465677887201309">
        <ele>1616.03</ele>
        <time>2020-09-13T12:06:49Z</time>
      </trkpt>
      <trkpt lat="45.854095900431275" lon="9.465677635744214">
        <ele>1615.5</ele>
        <time>2020-09-13T12:06:59Z</time>
      </trkpt>
      <trkpt lat="45.854113586246967" lon="9.465679479762912">
        <ele>1614.8399999999999</ele>
        <time>2020-09-13T12:07:14Z</time>
      </trkpt>
      <trkpt lat="45.854122135788202" lon="9.465685598552227">
        <ele>1614.77</ele>
        <time>2020-09-13T12:07:29Z</time>
      </trkpt>
      <trkpt lat="45.854126326739788" lon="9.465679982677102">
        <ele>1613.95</ele>
        <time>2020-09-13T12:07:50Z</time>
      </trkpt>
      <trkpt lat="45.854167314246297" lon="9.4656593631953">
        <ele>1612.26</ele>
        <time>2020-09-13T12:08:00Z</time>
      </trkpt>
      <trkpt lat="45.854107718914747" lon="9.465611418709159">
        <ele>1610.47</ele>
        <time>2020-09-13T12:08:09Z</time>
      </trkpt>
      <trkpt lat="45.853994647040963" lon="9.465560456737876">
        <ele>1607.77</ele>
        <time>2020-09-13T12:08:24Z</time>
      </trkpt>
      <trkpt lat="45.853988444432616" lon="9.46555090136826">
        <ele>1606.22</ele>
        <time>2020-09-13T12:08:26Z</time>
      </trkpt>
      <trkpt lat="45.853958185762167" lon="9.465554002672434">
        <ele>1606.3299999999999</ele>
        <time>2020-09-13T12:08:45Z</time>
      </trkpt>
      <trkpt lat="45.853872271254659" lon="9.465519217774272">
        <ele>1602.98</ele>
        <time>2020-09-13T12:08:58Z</time>
      </trkpt>
      <trkpt lat="45.853784931823611" lon="9.465505806729198">
        <ele>1600.6199999999999</ele>
        <time>2020-09-13T12:09:09Z</time>
      </trkpt>
      <trkpt lat="45.853723073378205" lon="9.465540591627359">
        <ele>1598.0599999999999</ele>
        <time>2020-09-13T12:09:18Z</time>
      </trkpt>
      <trkpt lat="45.853693904355168" lon="9.465528102591634">
        <ele>1596.4100000000001</ele>
        <time>2020-09-13T12:09:28Z</time>
      </trkpt>
      <trkpt lat="45.853659957647324" lon="9.465526593849063">
        <ele>1594.6400000000001</ele>
        <time>2020-09-13T12:09:33Z</time>
      </trkpt>
      <trkpt lat="45.853580078110099" lon="9.465529946610332">
        <ele>1592.5799999999999</ele>
        <time>2020-09-13T12:09:45Z</time>
      </trkpt>
      <trkpt lat="45.853611510246992" lon="9.465461801737547">
        <ele>1590.4400000000001</ele>
        <time>2020-09-13T12:09:56Z</time>
      </trkpt>
      <trkpt lat="45.853537162765861" lon="9.465441014617682">
        <ele>1589.1400000000001</ele>
        <time>2020-09-13T12:10:07Z</time>
      </trkpt>
      <trkpt lat="45.853524589911103" lon="9.465443613007665">
        <ele>1588.9000000000001</ele>
        <time>2020-09-13T12:10:19Z</time>
      </trkpt>
      <trkpt lat="45.853528613224626" lon="9.46544973179698">
        <ele>1588.76</ele>
        <time>2020-09-13T12:10:49Z</time>
      </trkpt>
      <trkpt lat="45.853521907702088" lon="9.465449647977948">
        <ele>1588.79</ele>
        <time>2020-09-13T12:10:56Z</time>
      </trkpt>
      <trkpt lat="45.853414703160524" lon="9.465440679341555">
        <ele>1586.27</ele>
        <time>2020-09-13T12:11:09Z</time>
      </trkpt>
      <trkpt lat="45.853378074243665" lon="9.465453336015344">
        <ele>1583.4300000000001</ele>
        <time>2020-09-13T12:11:20Z</time>
      </trkpt>
      <trkpt lat="45.853343708440661" lon="9.465441014617682">
        <ele>1582.6400000000001</ele>
        <time>2020-09-13T12:11:25Z</time>
      </trkpt>
      <trkpt lat="45.853272965177894" lon="9.465427687391639">
        <ele>1580.0799999999999</ele>
        <time>2020-09-13T12:11:35Z</time>
      </trkpt>
      <trkpt lat="45.85324932821095" lon="9.465469596907497">
        <ele>1578.1800000000001</ele>
        <time>2020-09-13T12:11:44Z</time>
      </trkpt>
      <trkpt lat="45.853242538869381" lon="9.465472111478448">
        <ele>1577.8299999999999</ele>
        <time>2020-09-13T12:11:45Z</time>
      </trkpt>
      <trkpt lat="45.853194342926145" lon="9.465480074286461">
        <ele>1576.2</ele>
        <time>2020-09-13T12:11:51Z</time>
      </trkpt>
      <trkpt lat="45.853147320449352" lon="9.465480912476778">
        <ele>1575.01</ele>
        <time>2020-09-13T12:11:56Z</time>
      </trkpt>
      <trkpt lat="45.853081690147519" lon="9.465375635772944">
        <ele>1572.73</ele>
        <time>2020-09-13T12:12:09Z</time>
      </trkpt>
      <trkpt lat="45.853078840300441" lon="9.465249571949244">
        <ele>1569.5699999999999</ele>
        <time>2020-09-13T12:12:21Z</time>
      </trkpt>
      <trkpt lat="45.853077163919806" lon="9.465142786502838">
        <ele>1566.46</ele>
        <time>2020-09-13T12:12:34Z</time>
      </trkpt>
      <trkpt lat="45.853073224425316" lon="9.465078581124544">
        <ele>1563.97</ele>
        <time>2020-09-13T12:12:50Z</time>
      </trkpt>
      <trkpt lat="45.853111362084746" lon="9.464966850355268">
        <ele>1561.8800000000001</ele>
        <time>2020-09-13T12:13:04Z</time>
      </trkpt>
      <trkpt lat="45.853137094527483" lon="9.464880181476474">
        <ele>1559.3699999999999</ele>
        <time>2020-09-13T12:13:16Z</time>
      </trkpt>
      <trkpt lat="45.853169532492757" lon="9.46479694917798">
        <ele>1556.95</ele>
        <time>2020-09-13T12:13:28Z</time>
      </trkpt>
      <trkpt lat="45.853231055662036" lon="9.464705754071474">
        <ele>1553.8399999999999</ele>
        <time>2020-09-13T12:13:42Z</time>
      </trkpt>
      <trkpt lat="45.853255111724138" lon="9.464640710502863">
        <ele>1551.99</ele>
        <time>2020-09-13T12:13:53Z</time>
      </trkpt>
      <trkpt lat="45.85331629961729" lon="9.464529901742935">
        <ele>1549.24</ele>
        <time>2020-09-13T12:14:06Z</time>
      </trkpt>
      <trkpt lat="45.853379163891077" lon="9.464440634474158">
        <ele>1546.4200000000001</ele>
        <time>2020-09-13T12:14:20Z</time>
      </trkpt>
      <trkpt lat="45.853416211903095" lon="9.4644143152982">
        <ele>1545.1600000000001</ele>
        <time>2020-09-13T12:14:34Z</time>
      </trkpt>
      <trkpt lat="45.853431886062026" lon="9.464420350268483">
        <ele>1544.96</ele>
        <time>2020-09-13T12:15:07Z</time>
      </trkpt>
      <trkpt lat="45.853460300713778" lon="9.464404424652457">
        <ele>1544.9000000000001</ele>
        <time>2020-09-13T12:15:17Z</time>
      </trkpt>
      <trkpt lat="45.853525260463357" lon="9.464343069121242">
        <ele>1542.3499999999999</ele>
        <time>2020-09-13T12:15:26Z</time>
      </trkpt>
      <trkpt lat="45.853625843301415" lon="9.464304931461811">
        <ele>1540.3499999999999</ele>
        <time>2020-09-13T12:15:37Z</time>
      </trkpt>
      <trkpt lat="45.853722486644983" lon="9.464219603687525">
        <ele>1537.21</ele>
        <time>2020-09-13T12:15:52Z</time>
      </trkpt>
      <trkpt lat="45.853743441402912" lon="9.464192697778344">
        <ele>1536.3599999999999</ele>
        <time>2020-09-13T12:16:05Z</time>
      </trkpt>
      <trkpt lat="45.853758277371526" lon="9.464212143793702">
        <ele>1535.9200000000001</ele>
        <time>2020-09-13T12:16:19Z</time>
      </trkpt>
      <trkpt lat="45.853760624304414" lon="9.46421449072659">
        <ele>1535.76</ele>
        <time>2020-09-13T12:16:37Z</time>
      </trkpt>
      <trkpt lat="45.853761462494731" lon="9.46420862339437">
        <ele>1535.8399999999999</ele>
        <time>2020-09-13T12:16:55Z</time>
      </trkpt>
      <trkpt lat="45.8537457883358" lon="9.464208455756307">
        <ele>1535.98</ele>
        <time>2020-09-13T12:17:07Z</time>
      </trkpt>
      <trkpt lat="45.853740759193897" lon="9.464209461584687">
        <ele>1535.1199999999999</ele>
        <time>2020-09-13T12:17:17Z</time>
      </trkpt>
      <trkpt lat="45.853740926831961" lon="9.464210970327258">
        <ele>1534.73</ele>
        <time>2020-09-13T12:17:46Z</time>
      </trkpt>
      <trkpt lat="45.853737154975533" lon="9.464212562888861">
        <ele>1533.97</ele>
        <time>2020-09-13T12:18:48Z</time>
      </trkpt>
      <trkpt lat="45.853735394775867" lon="9.464219603687525">
        <ele>1533.8800000000001</ele>
        <time>2020-09-13T12:19:46Z</time>
      </trkpt>
      <trkpt lat="45.853737071156502" lon="9.464218262583017">
        <ele>1533.6900000000001</ele>
        <time>2020-09-13T12:20:32Z</time>
      </trkpt>
      <trkpt lat="45.853756098076701" lon="9.464238798245788">
        <ele>1534.0799999999999</ele>
        <time>2020-09-13T12:21:06Z</time>
      </trkpt>
      <trkpt lat="45.853777723386884" lon="9.464219100773335">
        <ele>1534.1199999999999</ele>
        <time>2020-09-13T12:21:25Z</time>
      </trkpt>
      <trkpt lat="45.853817285969853" lon="9.464242737740278">
        <ele>1534.27</ele>
        <time>2020-09-13T12:21:35Z</time>
      </trkpt>
      <trkpt lat="45.853808652609587" lon="9.464229829609394">
        <ele>1533.99</ele>
        <time>2020-09-13T12:21:42Z</time>
      </trkpt>
      <trkpt lat="45.853841006755829" lon="9.464180041104555">
        <ele>1533.2</ele>
        <time>2020-09-13T12:21:49Z</time>
      </trkpt>
      <trkpt lat="45.853965142741799" lon="9.464134443551302">
        <ele>1532.1900000000001</ele>
        <time>2020-09-13T12:22:01Z</time>
      </trkpt>
      <trkpt lat="45.854096570983529" lon="9.464084906503558">
        <ele>1529.52</ele>
        <time>2020-09-13T12:22:14Z</time>
      </trkpt>
      <trkpt lat="45.854183491319418" lon="9.464070741087198">
        <ele>1528.7</ele>
        <time>2020-09-13T12:22:22Z</time>
      </trkpt>
      <trkpt lat="45.85431843996048" lon="9.464038051664829">
        <ele>1526.79</ele>
        <time>2020-09-13T12:22:35Z</time>
      </trkpt>
      <trkpt lat="45.854458836838603" lon="9.464048109948635">
        <ele>1527.1700000000001</ele>
        <time>2020-09-13T12:22:47Z</time>
      </trkpt>
      <trkpt lat="45.854483898729086" lon="9.464044086635113">
        <ele>1527.02</ele>
        <time>2020-09-13T12:22:49Z</time>
      </trkpt>
      <trkpt lat="45.854629576206207" lon="9.464085744693875">
        <ele>1527.54</ele>
        <time>2020-09-13T12:23:03Z</time>
      </trkpt>
      <trkpt lat="45.854746755212545" lon="9.464176772162318">
        <ele>1527.9400000000001</ele>
        <time>2020-09-13T12:23:15Z</time>
      </trkpt>
      <trkpt lat="45.85489796474576" lon="9.464243827387691">
        <ele>1529.24</ele>
        <time>2020-09-13T12:23:30Z</time>
      </trkpt>
      <trkpt lat="45.855054371058941" lon="9.464329574257135">
        <ele>1528.52</ele>
        <time>2020-09-13T12:23:45Z</time>
      </trkpt>
      <trkpt lat="45.855202227830887" lon="9.464429738000035">
        <ele>1527.1199999999999</ele>
        <time>2020-09-13T12:24:00Z</time>
      </trkpt>
      <trkpt lat="45.855334075167775" lon="9.464434767141938">
        <ele>1525.1900000000001</ele>
        <time>2020-09-13T12:24:12Z</time>
      </trkpt>
      <trkpt lat="45.855482686311007" lon="9.464455721899867">
        <ele>1525.73</ele>
        <time>2020-09-13T12:24:26Z</time>
      </trkpt>
      <trkpt lat="45.855573629960418" lon="9.46446024812758">
        <ele>1525.5</ele>
        <time>2020-09-13T12:24:37Z</time>
      </trkpt>
      <trkpt lat="45.855665327981114" lon="9.46444658562541">
        <ele>1525.22</ele>
        <time>2020-09-13T12:24:48Z</time>
      </trkpt>
      <trkpt lat="45.855777729302645" lon="9.464410208165646">
        <ele>1524.5699999999999</ele>
        <time>2020-09-13T12:25:02Z</time>
      </trkpt>
      <trkpt lat="45.855841347947717" lon="9.464345667511225">
        <ele>1522.1300000000001</ele>
        <time>2020-09-13T12:25:14Z</time>
      </trkpt>
      <trkpt lat="45.855917623266578" lon="9.464290933683515">
        <ele>1519.9200000000001</ele>
        <time>2020-09-13T12:25:29Z</time>
      </trkpt>
      <trkpt lat="45.855958610773087" lon="9.464257154613733">
        <ele>1518.6600000000001</ele>
        <time>2020-09-13T12:25:41Z</time>
      </trkpt>
      <trkpt lat="45.855986773967743" lon="9.464195044711232">
        <ele>1516.51</ele>
        <time>2020-09-13T12:25:52Z</time>
      </trkpt>
      <trkpt lat="45.85601300932467" lon="9.464119607582688">
        <ele>1514.6300000000001</ele>
        <time>2020-09-13T12:26:05Z</time>
      </trkpt>
      <trkpt lat="45.856018625199795" lon="9.464072249829769">
        <ele>1512.6099999999999</ele>
        <time>2020-09-13T12:26:17Z</time>
      </trkpt>
      <trkpt lat="45.856039244681597" lon="9.464019611477852">
        <ele>1511.03</ele>
        <time>2020-09-13T12:26:28Z</time>
      </trkpt>
      <trkpt lat="45.856069754809141" lon="9.463964123278856">
        <ele>1509.47</ele>
        <time>2020-09-13T12:26:40Z</time>
      </trkpt>
      <trkpt lat="45.85614494048059" lon="9.463925985619426">
        <ele>1507.9400000000001</ele>
        <time>2020-09-13T12:26:52Z</time>
      </trkpt>
      <trkpt lat="45.856212247163057" lon="9.463903773576021">
        <ele>1506.3900000000001</ele>
        <time>2020-09-13T12:27:03Z</time>
      </trkpt>
      <trkpt lat="45.856246696785092" lon="9.463874436914921">
        <ele>1504.8499999999999</ele>
        <time>2020-09-13T12:27:14Z</time>
      </trkpt>
      <trkpt lat="45.856277793645859" lon="9.463838646188378">
        <ele>1503.21</ele>
        <time>2020-09-13T12:27:26Z</time>
      </trkpt>
      <trkpt lat="45.856339819729328" lon="9.463827162981033">
        <ele>1501.3</ele>
        <time>2020-09-13T12:27:37Z</time>
      </trkpt>
      <trkpt lat="45.85639463737607" lon="9.463811656460166">
        <ele>1499.21</ele>
        <time>2020-09-13T12:27:50Z</time>
      </trkpt>
      <trkpt lat="45.856444342061877" lon="9.463805621489883">
        <ele>1497.1099999999999</ele>
        <time>2020-09-13T12:28:03Z</time>
      </trkpt>
      <trkpt lat="45.856476025655866" lon="9.463787097483873">
        <ele>1495.49</ele>
        <time>2020-09-13T12:28:13Z</time>
      </trkpt>
      <trkpt lat="45.856494214385748" lon="9.463740326464176">
        <ele>1493.9000000000001</ele>
        <time>2020-09-13T12:28:25Z</time>
      </trkpt>
      <trkpt lat="45.856531094759703" lon="9.46370679885149">
        <ele>1492.1900000000001</ele>
        <time>2020-09-13T12:28:37Z</time>
      </trkpt>
      <trkpt lat="45.856558755040169" lon="9.463681653141975">
        <ele>1490.1800000000001</ele>
        <time>2020-09-13T12:28:49Z</time>
      </trkpt>
      <trkpt lat="45.856591695919633" lon="9.463639156892896">
        <ele>1488.0999999999999</ele>
        <time>2020-09-13T12:28:59Z</time>
      </trkpt>
      <trkpt lat="45.856638802215457" lon="9.463567994534969">
        <ele>1485.6400000000001</ele>
        <time>2020-09-13T12:29:12Z</time>
      </trkpt>
      <trkpt lat="45.856660259887576" lon="9.463505800813437">
        <ele>1483.79</ele>
        <time>2020-09-13T12:29:24Z</time>
      </trkpt>
      <trkpt lat="45.85671616718173" lon="9.463486941531301">
        <ele>1481.8</ele>
        <time>2020-09-13T12:29:37Z</time>
      </trkpt>
      <trkpt lat="45.856774169951677" lon="9.463459365069866">
        <ele>1479.0799999999999</ele>
        <time>2020-09-13T12:29:50Z</time>
      </trkpt>
      <trkpt lat="45.85680459626019" lon="9.46345810778439">
        <ele>1478.02</ele>
        <time>2020-09-13T12:30:01Z</time>
      </trkpt>
      <trkpt lat="45.856830412521958" lon="9.4634058047086">
        <ele>1475.3</ele>
        <time>2020-09-13T12:30:13Z</time>
      </trkpt>
      <trkpt lat="45.856867209076881" lon="9.463387029245496">
        <ele>1473.3800000000001</ele>
        <time>2020-09-13T12:30:25Z</time>
      </trkpt>
      <trkpt lat="45.856900317594409" lon="9.463366996496916">
        <ele>1471.6800000000001</ele>
        <time>2020-09-13T12:30:35Z</time>
      </trkpt>
      <trkpt lat="45.85692822933197" lon="9.463318884372711">
        <ele>1469.1900000000001</ele>
        <time>2020-09-13T12:30:47Z</time>
      </trkpt>
      <trkpt lat="45.856900317594409" lon="9.463254846632481">
        <ele>1466.5999999999999</ele>
        <time>2020-09-13T12:30:59Z</time>
      </trkpt>
      <trkpt lat="45.856903754174709" lon="9.463163819164038">
        <ele>1464.04</ele>
        <time>2020-09-13T12:31:13Z</time>
      </trkpt>
      <trkpt lat="45.85692722350359" lon="9.463143954053521">
        <ele>1463.5999999999999</ele>
        <time>2020-09-13T12:31:25Z</time>
      </trkpt>
      <trkpt lat="45.856929654255509" lon="9.463117048144341">
        <ele>1462.3299999999999</ele>
        <time>2020-09-13T12:31:36Z</time>
      </trkpt>
      <trkpt lat="45.856944657862186" lon="9.463080419227481">
        <ele>1460.47</ele>
        <time>2020-09-13T12:31:47Z</time>
      </trkpt>
      <trkpt lat="45.856983382254839" lon="9.463032223284245">
        <ele>1458.5599999999999</ele>
        <time>2020-09-13T12:31:58Z</time>
      </trkpt>
      <trkpt lat="45.85701959207654" lon="9.462973717600107">
        <ele>1456.3800000000001</ele>
        <time>2020-09-13T12:32:11Z</time>
      </trkpt>
      <trkpt lat="45.857052281498909" lon="9.462938429787755">
        <ele>1454.22</ele>
        <time>2020-09-13T12:32:21Z</time>
      </trkpt>
      <trkpt lat="45.857085892930627" lon="9.462890401482582">
        <ele>1451.9300000000001</ele>
        <time>2020-09-13T12:32:31Z</time>
      </trkpt>
      <trkpt lat="45.857021436095238" lon="9.462856454774737">
        <ele>1449.5</ele>
        <time>2020-09-13T12:32:43Z</time>
      </trkpt>
      <trkpt lat="45.857038367539644" lon="9.462808342650533">
        <ele>1448.0999999999999</ele>
        <time>2020-09-13T12:32:52Z</time>
      </trkpt>
      <trkpt lat="45.857049766927958" lon="9.462738940492272">
        <ele>1446.1400000000001</ele>
        <time>2020-09-13T12:33:04Z</time>
      </trkpt>
      <trkpt lat="45.857062172144651" lon="9.46267674677074">
        <ele>1444.27</ele>
        <time>2020-09-13T12:33:19Z</time>
      </trkpt>
      <trkpt lat="45.85704599507153" lon="9.462543306872249">
        <ele>1441.47</ele>
        <time>2020-09-13T12:33:33Z</time>
      </trkpt>
      <trkpt lat="45.857095867395401" lon="9.462432833388448">
        <ele>1438.7</ele>
        <time>2020-09-13T12:33:47Z</time>
      </trkpt>
      <trkpt lat="45.857130233198404" lon="9.462373405694962">
        <ele>1437.3099999999999</ele>
        <time>2020-09-13T12:33:59Z</time>
      </trkpt>
      <trkpt lat="45.857192762196064" lon="9.462402407079935">
        <ele>1435.6300000000001</ele>
        <time>2020-09-13T12:34:11Z</time>
      </trkpt>
      <trkpt lat="45.857230899855494" lon="9.462375333532691">
        <ele>1434.05</ele>
        <time>2020-09-13T12:34:21Z</time>
      </trkpt>
      <trkpt lat="45.857270378619432" lon="9.462326215580106">
        <ele>1432.1600000000001</ele>
        <time>2020-09-13T12:34:35Z</time>
      </trkpt>
      <trkpt lat="45.857292506843805" lon="9.462262345477939">
        <ele>1430.4300000000001</ele>
        <time>2020-09-13T12:34:49Z</time>
      </trkpt>
      <trkpt lat="45.85726878605783" lon="9.4622159935534">
        <ele>1428.9200000000001</ele>
        <time>2020-09-13T12:35:01Z</time>
      </trkpt>
      <trkpt lat="45.857277838513255" lon="9.462119434028864">
        <ele>1425.95</ele>
        <time>2020-09-13T12:35:14Z</time>
      </trkpt>
      <trkpt lat="45.857237521559" lon="9.462082134559751">
        <ele>1424.78</ele>
        <time>2020-09-13T12:35:25Z</time>
      </trkpt>
      <trkpt lat="45.857219416648149" lon="9.462051456794143">
        <ele>1423.3199999999999</ele>
        <time>2020-09-13T12:35:36Z</time>
      </trkpt>
      <trkpt lat="45.857233246788383" lon="9.462021952494979">
        <ele>1422.3699999999999</ele>
        <time>2020-09-13T12:35:46Z</time>
      </trkpt>
      <trkpt lat="45.857230313122272" lon="9.461978785693646">
        <ele>1421.1400000000001</ele>
        <time>2020-09-13T12:35:57Z</time>
      </trkpt>
      <trkpt lat="45.857291501015425" lon="9.46196286007762">
        <ele>1419.47</ele>
        <time>2020-09-13T12:36:09Z</time>
      </trkpt>
      <trkpt lat="45.857324441894889" lon="9.461996387690306">
        <ele>1418.8699999999999</ele>
        <time>2020-09-13T12:36:22Z</time>
      </trkpt>
      <trkpt lat="45.857383701950312" lon="9.462054474279285">
        <ele>1417.1900000000001</ele>
        <time>2020-09-13T12:36:40Z</time>
      </trkpt>
      <trkpt lat="45.857431814074516" lon="9.462098395451903">
        <ele>1415.47</ele>
        <time>2020-09-13T12:36:52Z</time>
      </trkpt>
      <trkpt lat="45.857446817681193" lon="9.462109711021185">
        <ele>1414.53</ele>
        <time>2020-09-13T12:37:05Z</time>
      </trkpt>
      <trkpt lat="45.857483111321926" lon="9.462107867002487">
        <ele>1412.9400000000001</ele>
        <time>2020-09-13T12:37:16Z</time>
      </trkpt>
      <trkpt lat="45.85749845020473" lon="9.462080290541053">
        <ele>1410.8599999999999</ele>
        <time>2020-09-13T12:37:30Z</time>
      </trkpt>
      <trkpt lat="45.857525188475847" lon="9.462038800120354">
        <ele>1408.76</ele>
        <time>2020-09-13T12:37:41Z</time>
      </trkpt>
      <trkpt lat="45.857560057193041" lon="9.462072243914008">
        <ele>1407.1600000000001</ele>
        <time>2020-09-13T12:37:55Z</time>
      </trkpt>
      <trkpt lat="45.857584532350302" lon="9.462061934173107">
        <ele>1405.9300000000001</ele>
        <time>2020-09-13T12:38:07Z</time>
      </trkpt>
      <trkpt lat="45.857608923688531" lon="9.462063945829868">
        <ele>1404.6099999999999</ele>
        <time>2020-09-13T12:38:18Z</time>
      </trkpt>
      <trkpt lat="45.857651839032769" lon="9.462040225043893">
        <ele>1402.1700000000001</ele>
        <time>2020-09-13T12:38:30Z</time>
      </trkpt>
      <trkpt lat="45.857706489041448" lon="9.46205179207027">
        <ele>1400.3399999999999</ele>
        <time>2020-09-13T12:38:41Z</time>
      </trkpt>
      <trkpt lat="45.857792152091861" lon="9.462099401280284">
        <ele>1397.3699999999999</ele>
        <time>2020-09-13T12:38:56Z</time>
      </trkpt>
      <trkpt lat="45.857830876484513" lon="9.462130079045892">
        <ele>1395.75</ele>
        <time>2020-09-13T12:39:06Z</time>
      </trkpt>
      <trkpt lat="45.857889717444777" lon="9.462180202826858">
        <ele>1393.8099999999999</ele>
        <time>2020-09-13T12:39:18Z</time>
      </trkpt>
      <trkpt lat="45.857930956408381" lon="9.462222279980779">
        <ele>1392.01</ele>
        <time>2020-09-13T12:39:29Z</time>
      </trkpt>
      <trkpt lat="45.85797781124711" lon="9.462232505902648">
        <ele>1390.55</ele>
        <time>2020-09-13T12:39:40Z</time>
      </trkpt>
      <trkpt lat="45.858016535639763" lon="9.462267793715">
        <ele>1388.8699999999999</ele>
        <time>2020-09-13T12:39:53Z</time>
      </trkpt>
      <trkpt lat="45.858069006353617" lon="9.462338034063578">
        <ele>1386.7</ele>
        <time>2020-09-13T12:40:04Z</time>
      </trkpt>
      <trkpt lat="45.858105467632413" lon="9.462367203086615">
        <ele>1385.2</ele>
        <time>2020-09-13T12:40:13Z</time>
      </trkpt>
      <trkpt lat="45.858142599463463" lon="9.462409783154726">
        <ele>1383.9400000000001</ele>
        <time>2020-09-13T12:40:25Z</time>
      </trkpt>
      <trkpt lat="45.858171936124563" lon="9.462398635223508">
        <ele>1382.04</ele>
        <time>2020-09-13T12:40:37Z</time>
      </trkpt>
      <trkpt lat="45.858199847862124" lon="9.462379943579435">
        <ele>1382.01</ele>
        <time>2020-09-13T12:40:40Z</time>
      </trkpt>
      <trkpt lat="45.858343010768294" lon="9.46227659471333">
        <ele>1379.9200000000001</ele>
        <time>2020-09-13T12:40:56Z</time>
      </trkpt>
      <trkpt lat="45.858356673270464" lon="9.462323281913996">
        <ele>1379.9300000000001</ele>
        <time>2020-09-13T12:41:09Z</time>
      </trkpt>
      <trkpt lat="45.858369581401348" lon="9.462348176166415">
        <ele>1379.49</ele>
        <time>2020-09-13T12:41:24Z</time>
      </trkpt>
      <trkpt lat="45.858376203104854" lon="9.462390169501305">
        <ele>1378.24</ele>
        <time>2020-09-13T12:41:37Z</time>
      </trkpt>
      <trkpt lat="45.858420124277472" lon="9.462439706549048">
        <ele>1375.75</ele>
        <time>2020-09-13T12:41:50Z</time>
      </trkpt>
      <trkpt lat="45.858430182561278" lon="9.462434090673924">
        <ele>1375.8499999999999</ele>
        <time>2020-09-13T12:42:02Z</time>
      </trkpt>
      <trkpt lat="45.858466224744916" lon="9.462448256090283">
        <ele>1376.8599999999999</ele>
        <time>2020-09-13T12:42:12Z</time>
      </trkpt>
      <trkpt lat="45.858532944694161" lon="9.462356390431523">
        <ele>1376.4100000000001</ele>
        <time>2020-09-13T12:42:24Z</time>
      </trkpt>
      <trkpt lat="45.858551301062107" lon="9.462329903617501">
        <ele>1375.3599999999999</ele>
        <time>2020-09-13T12:42:37Z</time>
      </trkpt>
      <trkpt lat="45.858581559732556" lon="9.462340297177434">
        <ele>1373.8499999999999</ele>
        <time>2020-09-13T12:42:51Z</time>
      </trkpt>
      <trkpt lat="45.858617434278131" lon="9.462345577776432">
        <ele>1373.03</ele>
        <time>2020-09-13T12:43:07Z</time>
      </trkpt>
      <trkpt lat="45.858632856979966" lon="9.462320096790791">
        <ele>1371.4100000000001</ele>
        <time>2020-09-13T12:43:22Z</time>
      </trkpt>
      <trkpt lat="45.85865892469883" lon="9.462300483137369">
        <ele>1369.48</ele>
        <time>2020-09-13T12:43:40Z</time>
      </trkpt>
      <trkpt lat="45.858660265803337" lon="9.462241223081946">
        <ele>1367.5</ele>
        <time>2020-09-13T12:43:49Z</time>
      </trkpt>
      <trkpt lat="45.8586794603616" lon="9.462221777066588">
        <ele>1366.75</ele>
        <time>2020-09-13T12:44:02Z</time>
      </trkpt>
      <trkpt lat="45.858676442876458" lon="9.4621900934726">
        <ele>1366.1300000000001</ele>
        <time>2020-09-13T12:44:16Z</time>
      </trkpt>
      <trkpt lat="45.858713993802667" lon="9.462125888094306">
        <ele>1367.27</ele>
        <time>2020-09-13T12:44:27Z</time>
      </trkpt>
      <trkpt lat="45.858695805072784" lon="9.462141981348395">
        <ele>1366.79</ele>
        <time>2020-09-13T12:44:36Z</time>
      </trkpt>
      <trkpt lat="45.858683735132217" lon="9.462118344381452">
        <ele>1365.1600000000001</ele>
        <time>2020-09-13T12:44:45Z</time>
      </trkpt>
      <trkpt lat="45.858668312430382" lon="9.462095126509666">
        <ele>1363.21</ele>
        <time>2020-09-13T12:44:58Z</time>
      </trkpt>
      <trkpt lat="45.858689686283469" lon="9.462038045749068">
        <ele>1361.8599999999999</ele>
        <time>2020-09-13T12:45:07Z</time>
      </trkpt>
      <trkpt lat="45.85869899019599" lon="9.462003847584128">
        <ele>1363.0899999999999</ele>
        <time>2020-09-13T12:45:18Z</time>
      </trkpt>
      <trkpt lat="45.858700834214687" lon="9.461999069899321">
        <ele>1362.8099999999999</ele>
        <time>2020-09-13T12:45:29Z</time>
      </trkpt>
      <trkpt lat="45.858715251088142" lon="9.461891362443566">
        <ele>1362.23</ele>
        <time>2020-09-13T12:45:35Z</time>
      </trkpt>
      <trkpt lat="45.85869706235826" lon="9.461744846776128">
        <ele>1363.52</ele>
        <time>2020-09-13T12:45:48Z</time>
      </trkpt>
      <trkpt lat="45.858692033216357" lon="9.46170536801219">
        <ele>1362.47</ele>
        <time>2020-09-13T12:46:00Z</time>
      </trkpt>
      <trkpt lat="45.858666300773621" lon="9.461622973904014">
        <ele>1359.6099999999999</ele>
        <time>2020-09-13T12:46:13Z</time>
      </trkpt>
      <trkpt lat="45.858668480068445" lon="9.461527336388826">
        <ele>1357.95</ele>
        <time>2020-09-13T12:46:26Z</time>
      </trkpt>
      <trkpt lat="45.858669569715858" lon="9.461514679715037">
        <ele>1357.25</ele>
        <time>2020-09-13T12:46:43Z</time>
      </trkpt>
      <trkpt lat="45.85866579785943" lon="9.461504369974136">
        <ele>1356.6400000000001</ele>
        <time>2020-09-13T12:47:04Z</time>
      </trkpt>
      <trkpt lat="45.858667474240065" lon="9.461485343053937">
        <ele>1356.8499999999999</ele>
        <time>2020-09-13T12:47:24Z</time>
      </trkpt>
      <trkpt lat="45.858653644099832" lon="9.461305048316717">
        <ele>1354.4000000000001</ele>
        <time>2020-09-13T12:47:38Z</time>
      </trkpt>
      <trkpt lat="45.858634365722537" lon="9.461205387488008">
        <ele>1352.53</ele>
        <time>2020-09-13T12:47:50Z</time>
      </trkpt>
      <trkpt lat="45.85862472653389" lon="9.461091393604875">
        <ele>1350.7</ele>
        <time>2020-09-13T12:48:00Z</time>
      </trkpt>
      <trkpt lat="45.85865892469883" lon="9.460993660613895">
        <ele>1347.76</ele>
        <time>2020-09-13T12:48:14Z</time>
      </trkpt>
      <trkpt lat="45.858680633828044" lon="9.460903136059642">
        <ele>1344.72</ele>
        <time>2020-09-13T12:48:30Z</time>
      </trkpt>
      <trkpt lat="45.858701001852751" lon="9.460844630375505">
        <ele>1342.8099999999999</ele>
        <time>2020-09-13T12:48:42Z</time>
      </trkpt>
      <trkpt lat="45.858678538352251" lon="9.460814706981182">
        <ele>1341.6800000000001</ele>
        <time>2020-09-13T12:48:52Z</time>
      </trkpt>
      <trkpt lat="45.858680550009012" lon="9.460764331743121">
        <ele>1340.5799999999999</ele>
        <time>2020-09-13T12:49:02Z</time>
      </trkpt>
      <trkpt lat="45.858655739575624" lon="9.460678836330771">
        <ele>1339.1099999999999</ele>
        <time>2020-09-13T12:49:14Z</time>
      </trkpt>
      <trkpt lat="45.858597066253424" lon="9.460642291232944">
        <ele>1337.8900000000001</ele>
        <time>2020-09-13T12:49:25Z</time>
      </trkpt>
      <trkpt lat="45.858530011028051" lon="9.460615888237953">
        <ele>1336.47</ele>
        <time>2020-09-13T12:49:40Z</time>
      </trkpt>
      <trkpt lat="45.858496818691492" lon="9.460607087239623">
        <ele>1335.1900000000001</ele>
        <time>2020-09-13T12:49:52Z</time>
      </trkpt>
      <trkpt lat="45.858467649668455" lon="9.46058202534914">
        <ele>1334.77</ele>
        <time>2020-09-13T12:50:05Z</time>
      </trkpt>
      <trkpt lat="45.858453148975968" lon="9.460560567677021">
        <ele>1334.26</ele>
        <time>2020-09-13T12:50:12Z</time>
      </trkpt>
      <trkpt lat="45.858365474268794" lon="9.460422685369849">
        <ele>1331.9100000000001</ele>
        <time>2020-09-13T12:50:27Z</time>
      </trkpt>
      <trkpt lat="45.858336724340916" lon="9.460353450849652">
        <ele>1330.9100000000001</ele>
        <time>2020-09-13T12:50:39Z</time>
      </trkpt>
      <trkpt lat="45.858352314680815" lon="9.460302237421274">
        <ele>1329.51</ele>
        <time>2020-09-13T12:50:53Z</time>
      </trkpt>
      <trkpt lat="45.858353320509195" lon="9.460266614332795">
        <ele>1327.71</ele>
        <time>2020-09-13T12:51:03Z</time>
      </trkpt>
      <trkpt lat="45.858378298580647" lon="9.460201906040311">
        <ele>1325.28</ele>
        <time>2020-09-13T12:51:16Z</time>
      </trkpt>
      <trkpt lat="45.858381148427725" lon="9.460146585479379">
        <ele>1323.3900000000001</ele>
        <time>2020-09-13T12:51:27Z</time>
      </trkpt>
      <trkpt lat="45.858385087922215" lon="9.460085984319449">
        <ele>1321.74</ele>
        <time>2020-09-13T12:51:39Z</time>
      </trkpt>
      <trkpt lat="45.858386848121881" lon="9.460054049268365">
        <ele>1320.74</ele>
        <time>2020-09-13T12:51:52Z</time>
      </trkpt>
      <trkpt lat="45.858422387391329" lon="9.459914909675717">
        <ele>1318.52</ele>
        <time>2020-09-13T12:52:06Z</time>
      </trkpt>
      <trkpt lat="45.858388859778643" lon="9.459814745932818">
        <ele>1317.23</ele>
        <time>2020-09-13T12:52:19Z</time>
      </trkpt>
      <trkpt lat="45.858362372964621" lon="9.459789851680398">
        <ele>1316.26</ele>
        <time>2020-09-13T12:52:29Z</time>
      </trkpt>
      <trkpt lat="45.858364887535572" lon="9.459805442020297">
        <ele>1315.8699999999999</ele>
        <time>2020-09-13T12:52:54Z</time>
      </trkpt>
      <trkpt lat="45.858368240296841" lon="9.459792282432318">
        <ele>1316.54</ele>
        <time>2020-09-13T12:53:14Z</time>
      </trkpt>
      <trkpt lat="45.858375700190663" lon="9.459783816710115">
        <ele>1316.4100000000001</ele>
        <time>2020-09-13T12:53:30Z</time>
      </trkpt>
      <trkpt lat="45.858376706019044" lon="9.45978700183332">
        <ele>1316.5</ele>
        <time>2020-09-13T12:53:49Z</time>
      </trkpt>
      <trkpt lat="45.858366480097175" lon="9.459786918014288">
        <ele>1316.21</ele>
        <time>2020-09-13T12:54:05Z</time>
      </trkpt>
      <trkpt lat="45.858366312459111" lon="9.459787420928478">
        <ele>1316.3599999999999</ele>
        <time>2020-09-13T12:54:26Z</time>
      </trkpt>
      <trkpt lat="45.858364887535572" lon="9.45978163741529">
        <ele>1316.23</ele>
        <time>2020-09-13T12:54:48Z</time>
      </trkpt>
      <trkpt lat="45.858359942212701" lon="9.459785912185907">
        <ele>1316.1900000000001</ele>
        <time>2020-09-13T12:55:07Z</time>
      </trkpt>
      <trkpt lat="45.858364216983318" lon="9.45979043841362">
        <ele>1316.5599999999999</ele>
        <time>2020-09-13T12:55:20Z</time>
      </trkpt>
      <trkpt lat="45.858371509239078" lon="9.459779290482402">
        <ele>1316.4300000000001</ele>
        <time>2020-09-13T12:55:37Z</time>
      </trkpt>
      <trkpt lat="45.858371760696173" lon="9.459772584959865">
        <ele>1316.53</ele>
        <time>2020-09-13T12:55:55Z</time>
      </trkpt>
      <trkpt lat="45.858368240296841" lon="9.45976747199893">
        <ele>1317.1900000000001</ele>
        <time>2020-09-13T12:56:14Z</time>
      </trkpt>
      <trkpt lat="45.858361450955272" lon="9.45977233350277">
        <ele>1316.47</ele>
        <time>2020-09-13T12:56:35Z</time>
      </trkpt>
      <trkpt lat="45.858358768746257" lon="9.459780715405941">
        <ele>1316.22</ele>
        <time>2020-09-13T12:56:57Z</time>
      </trkpt>
      <trkpt lat="45.858361786231399" lon="9.459786079823971">
        <ele>1316.22</ele>
        <time>2020-09-13T12:57:11Z</time>
      </trkpt>
      <trkpt lat="45.858362205326557" lon="9.459784151986241">
        <ele>1318.53</ele>
        <time>2020-09-13T12:57:14Z</time>
      </trkpt>
      <trkpt lat="45.85836187005043" lon="9.459784403443337">
        <ele>1315.9300000000001</ele>
        <time>2020-09-13T12:57:17Z</time>
      </trkpt>
      <trkpt lat="45.858358601108193" lon="9.459783984348178">
        <ele>1315.76</ele>
        <time>2020-09-13T12:57:35Z</time>
      </trkpt>
      <trkpt lat="45.858362540602684" lon="9.459786750376225">
        <ele>1315.9100000000001</ele>
        <time>2020-09-13T12:58:01Z</time>
      </trkpt>
      <trkpt lat="45.858363630250096" lon="9.459781469777226">
        <ele>1315.6300000000001</ele>
        <time>2020-09-13T12:58:21Z</time>
      </trkpt>
      <trkpt lat="45.858363546431065" lon="9.459781972691417">
        <ele>1315.6199999999999</ele>
        <time>2020-09-13T12:58:44Z</time>
      </trkpt>
      <trkpt lat="45.858365138992667" lon="9.459779877215624">
        <ele>1315.52</ele>
        <time>2020-09-13T12:59:07Z</time>
      </trkpt>
      <trkpt lat="45.858364049345255" lon="9.45977627299726">
        <ele>1315.55</ele>
        <time>2020-09-13T12:59:24Z</time>
      </trkpt>
      <trkpt lat="45.858315099030733" lon="9.459766549989581">
        <ele>1314.3800000000001</ele>
        <time>2020-09-13T12:59:40Z</time>
      </trkpt>
      <trkpt lat="45.858269920572639" lon="9.459660686552525">
        <ele>1312.24</ele>
        <time>2020-09-13T12:59:52Z</time>
      </trkpt>
      <trkpt lat="45.858305040746927" lon="9.45964383892715">
        <ele>1310.8800000000001</ele>
        <time>2020-09-13T13:00:01Z</time>
      </trkpt>
      <trkpt lat="45.858313171193004" lon="9.4595808070153">
        <ele>1308.8199999999999</ele>
        <time>2020-09-13T13:00:15Z</time>
      </trkpt>
      <trkpt lat="45.858370503410697" lon="9.459559768438339">
        <ele>1307.27</ele>
        <time>2020-09-13T13:00:25Z</time>
      </trkpt>
      <trkpt lat="45.858428422361612" lon="9.459500759840012">
        <ele>1304.8399999999999</ele>
        <time>2020-09-13T13:00:38Z</time>
      </trkpt>
      <trkpt lat="45.858500674366951" lon="9.4594581797719">
        <ele>1302.78</ele>
        <time>2020-09-13T13:00:49Z</time>
      </trkpt>
      <trkpt lat="45.858586840331554" lon="9.459450133144856">
        <ele>1300.4000000000001</ele>
        <time>2020-09-13T13:01:01Z</time>
      </trkpt>
      <trkpt lat="45.858649956062436" lon="9.459434794262052">
        <ele>1298.04</ele>
        <time>2020-09-13T13:01:12Z</time>
      </trkpt>
      <trkpt lat="45.85873419418931" lon="9.459428675472736">
        <ele>1294.8599999999999</ele>
        <time>2020-09-13T13:01:25Z</time>
      </trkpt>
      <trkpt lat="45.858790939673781" lon="9.459399254992604">
        <ele>1292.1199999999999</ele>
        <time>2020-09-13T13:01:36Z</time>
      </trkpt>
      <trkpt lat="45.858855815604329" lon="9.459300097078085">
        <ele>1289.6199999999999</ele>
        <time>2020-09-13T13:01:51Z</time>
      </trkpt>
      <trkpt lat="45.85890669375658" lon="9.459256678819656">
        <ele>1287.6500000000001</ele>
        <time>2020-09-13T13:02:02Z</time>
      </trkpt>
      <trkpt lat="45.858933851122856" lon="9.459171183407307">
        <ele>1284.48</ele>
        <time>2020-09-13T13:02:15Z</time>
      </trkpt>
      <trkpt lat="45.858994536101818" lon="9.459109324961901">
        <ele>1282.0999999999999</ele>
        <time>2020-09-13T13:02:28Z</time>
      </trkpt>
      <trkpt lat="45.85905522108078" lon="9.459052076563239">
        <ele>1279.8599999999999</ele>
        <time>2020-09-13T13:02:40Z</time>
      </trkpt>
      <trkpt lat="45.859139626845717" lon="9.458981081843376">
        <ele>1277.5699999999999</ele>
        <time>2020-09-13T13:02:54Z</time>
      </trkpt>
      <trkpt lat="45.859159659594297" lon="9.458978399634361">
        <ele>1277.5599999999999</ele>
        <time>2020-09-13T13:03:05Z</time>
      </trkpt>
      <trkpt lat="45.859150858595967" lon="9.45895099081099">
        <ele>1275.96</ele>
        <time>2020-09-13T13:03:17Z</time>
      </trkpt>
      <trkpt lat="45.859158569946885" lon="9.458948476240039">
        <ele>1275.6600000000001</ele>
        <time>2020-09-13T13:03:33Z</time>
      </trkpt>
      <trkpt lat="45.85916175507009" lon="9.458943447098136">
        <ele>1275.5999999999999</ele>
        <time>2020-09-13T13:03:50Z</time>
      </trkpt>
      <trkpt lat="45.859179524704814" lon="9.458926431834698">
        <ele>1275.52</ele>
        <time>2020-09-13T13:03:54Z</time>
      </trkpt>
      <trkpt lat="45.859218752011657" lon="9.458878906443715">
        <ele>1274.6800000000001</ele>
        <time>2020-09-13T13:03:59Z</time>
      </trkpt>
      <trkpt lat="45.85926434956491" lon="9.4588693510741">
        <ele>1273.48</ele>
        <time>2020-09-13T13:04:11Z</time>
      </trkpt>
      <trkpt lat="45.859325956553221" lon="9.458827525377274">
        <ele>1271.6300000000001</ele>
        <time>2020-09-13T13:04:21Z</time>
      </trkpt>
      <trkpt lat="45.859343726187944" lon="9.458771450445056">
        <ele>1269.3900000000001</ele>
        <time>2020-09-13T13:04:33Z</time>
      </trkpt>
      <trkpt lat="45.859358226880431" lon="9.458740688860416">
        <ele>1267.74</ele>
        <time>2020-09-13T13:04:43Z</time>
      </trkpt>
      <trkpt lat="45.859361495822668" lon="9.458728786557913">
        <ele>1267.3099999999999</ele>
        <time>2020-09-13T13:04:57Z</time>
      </trkpt>
      <trkpt lat="45.859388317912817" lon="9.458699785172939">
        <ele>1266.4300000000001</ele>
        <time>2020-09-13T13:05:12Z</time>
      </trkpt>
      <trkpt lat="45.859434083104134" lon="9.458630131557584">
        <ele>1264.55</ele>
        <time>2020-09-13T13:05:23Z</time>
      </trkpt>
      <trkpt lat="45.859508011490107" lon="9.458541367202997">
        <ele>1262.04</ele>
        <time>2020-09-13T13:05:35Z</time>
      </trkpt>
      <trkpt lat="45.859540784731507" lon="9.458498284220696">
        <ele>1261.02</ele>
        <time>2020-09-13T13:05:40Z</time>
      </trkpt>
      <trkpt lat="45.859630974009633" lon="9.458421925082803">
        <ele>1258.4300000000001</ele>
        <time>2020-09-13T13:05:52Z</time>
      </trkpt>
      <trkpt lat="45.859699621796608" lon="9.458370041102171">
        <ele>1257.01</ele>
        <time>2020-09-13T13:06:02Z</time>
      </trkpt>
      <trkpt lat="45.859725354239345" lon="9.458359815180302">
        <ele>1256.96</ele>
        <time>2020-09-13T13:06:15Z</time>
      </trkpt>
      <trkpt lat="45.859749410301447" lon="9.458361407741904">
        <ele>1255.6700000000001</ele>
        <time>2020-09-13T13:06:29Z</time>
      </trkpt>
      <trkpt lat="45.85979257710278" lon="9.458358893170953">
        <ele>1254.1600000000001</ele>
        <time>2020-09-13T13:06:39Z</time>
      </trkpt>
      <trkpt lat="45.8598468080163" lon="9.458329053595662">
        <ele>1251.8900000000001</ele>
        <time>2020-09-13T13:06:48Z</time>
      </trkpt>
      <trkpt lat="45.859862733632326" lon="9.458269709721208">
        <ele>1248.9100000000001</ele>
        <time>2020-09-13T13:06:59Z</time>
      </trkpt>
      <trkpt lat="45.859900787472725" lon="9.458234254270792">
        <ele>1246.5</ele>
        <time>2020-09-13T13:07:07Z</time>
      </trkpt>
      <trkpt lat="45.859949653968215" lon="9.458162840455771">
        <ele>1243.45</ele>
        <time>2020-09-13T13:07:19Z</time>
      </trkpt>
      <trkpt lat="45.859990809112787" lon="9.458076003938913">
        <ele>1241.02</ele>
        <time>2020-09-13T13:07:30Z</time>
      </trkpt>
      <trkpt lat="45.860083261504769" lon="9.458030071109533">
        <ele>1238.3599999999999</ele>
        <time>2020-09-13T13:07:43Z</time>
      </trkpt>
      <trkpt lat="45.860141683369875" lon="9.457990089431405">
        <ele>1237.0599999999999</ele>
        <time>2020-09-13T13:07:52Z</time>
      </trkpt>
      <trkpt lat="45.86021963506937" lon="9.457874838262796">
        <ele>1235.02</ele>
        <time>2020-09-13T13:08:05Z</time>
      </trkpt>
      <trkpt lat="45.860250648111105" lon="9.457780290395021">
        <ele>1232.77</ele>
        <time>2020-09-13T13:08:16Z</time>
      </trkpt>
      <trkpt lat="45.860314685851336" lon="9.457728322595358">
        <ele>1231.3699999999999</ele>
        <time>2020-09-13T13:08:26Z</time>
      </trkpt>
      <trkpt lat="45.860367994755507" lon="9.45771424099803">
        <ele>1232.95</ele>
        <time>2020-09-13T13:08:37Z</time>
      </trkpt>
      <trkpt lat="45.860365312546492" lon="9.457732848823071">
        <ele>1232.8499999999999</ele>
        <time>2020-09-13T13:08:51Z</time>
      </trkpt>
      <trkpt lat="45.860372353345156" lon="9.457728322595358">
        <ele>1232.73</ele>
        <time>2020-09-13T13:09:06Z</time>
      </trkpt>
      <trkpt lat="45.860371766611934" lon="9.457727400586009">
        <ele>1232.54</ele>
        <time>2020-09-13T13:09:21Z</time>
      </trkpt>
      <trkpt lat="45.860412335023284" lon="9.457702673971653">
        <ele>1233.6099999999999</ele>
        <time>2020-09-13T13:09:40Z</time>
      </trkpt>
      <trkpt lat="45.860509648919106" lon="9.457655651494861">
        <ele>1235.02</ele>
        <time>2020-09-13T13:09:50Z</time>
      </trkpt>
      <trkpt lat="45.860566645860672" lon="9.45764584466815">
        <ele>1235.3099999999999</ele>
        <time>2020-09-13T13:09:57Z</time>
      </trkpt>
      <trkpt lat="45.860656248405576" lon="9.457584405317903">
        <ele>1235.5699999999999</ele>
        <time>2020-09-13T13:10:09Z</time>
      </trkpt>
      <trkpt lat="45.860719783231616" lon="9.457510728389025">
        <ele>1235.9300000000001</ele>
        <time>2020-09-13T13:10:18Z</time>
      </trkpt>
      <trkpt lat="45.860855402424932" lon="9.457364212721586">
        <ele>1233.8699999999999</ele>
        <time>2020-09-13T13:10:34Z</time>
      </trkpt>
      <trkpt lat="45.860946429893374" lon="9.457260863855481">
        <ele>1233.6199999999999</ele>
        <time>2020-09-13T13:10:47Z</time>
      </trkpt>
      <trkpt lat="45.860988590866327" lon="9.457194563001394">
        <ele>1232.53</ele>
        <time>2020-09-13T13:10:54Z</time>
      </trkpt>
      <trkpt lat="45.861085318028927" lon="9.457136727869511">
        <ele>1233.6099999999999</ele>
        <time>2020-09-13T13:11:08Z</time>
      </trkpt>
      <trkpt lat="45.86113141849637" lon="9.457043102011085">
        <ele>1232.4300000000001</ele>
        <time>2020-09-13T13:11:20Z</time>
      </trkpt>
      <trkpt lat="45.861177099868655" lon="9.45695978589356">
        <ele>1232.3299999999999</ele>
        <time>2020-09-13T13:11:31Z</time>
      </trkpt>
      <trkpt lat="45.861202580854297" lon="9.456863477826119">
        <ele>1230.73</ele>
        <time>2020-09-13T13:11:43Z</time>
      </trkpt>
      <trkpt lat="45.861248010769486" lon="9.456860711798072">
        <ele>1232.9300000000001</ele>
        <time>2020-09-13T13:11:55Z</time>
      </trkpt>
      <trkpt lat="45.861293440684676" lon="9.456789968535304">
        <ele>1234.0699999999999</ele>
        <time>2020-09-13T13:12:05Z</time>
      </trkpt>
      <trkpt lat="45.861330153420568" lon="9.456761302426457">
        <ele>1234.71</ele>
        <time>2020-09-13T13:12:11Z</time>
      </trkpt>
      <trkpt lat="45.861410954967141" lon="9.456688547506928">
        <ele>1234.7</ele>
        <time>2020-09-13T13:12:22Z</time>
      </trkpt>
      <trkpt lat="45.861511202529073" lon="9.456595592200756">
        <ele>1236.2</ele>
        <time>2020-09-13T13:12:38Z</time>
      </trkpt>
      <trkpt lat="45.861601056531072" lon="9.456526692956686">
        <ele>1238.04</ele>
        <time>2020-09-13T13:12:53Z</time>
      </trkpt>
      <trkpt lat="45.861638188362122" lon="9.456506911665201">
        <ele>1239.8</ele>
        <time>2020-09-13T13:13:04Z</time>
      </trkpt>
      <trkpt lat="45.861690910533071" lon="9.456492746248841">
        <ele>1241.5999999999999</ele>
        <time>2020-09-13T13:13:16Z</time>
      </trkpt>
      <trkpt lat="45.861706584692001" lon="9.456504732370377">
        <ele>1241.53</ele>
        <time>2020-09-13T13:13:34Z</time>
      </trkpt>
      <trkpt lat="45.86175587028265" lon="9.456483526155353">
        <ele>1240.9400000000001</ele>
        <time>2020-09-13T13:13:46Z</time>
      </trkpt>
      <trkpt lat="45.861791661009192" lon="9.456458128988743">
        <ele>1240.04</ele>
        <time>2020-09-13T13:13:51Z</time>
      </trkpt>
      <trkpt lat="45.861894674599171" lon="9.456420913338661">
        <ele>1239.26</ele>
        <time>2020-09-13T13:14:04Z</time>
      </trkpt>
      <trkpt lat="45.861960891634226" lon="9.456434240564704">
        <ele>1240.0799999999999</ele>
        <time>2020-09-13T13:14:15Z</time>
      </trkpt>
      <trkpt lat="45.862007243558764" lon="9.456391409039497">
        <ele>1238.6400000000001</ele>
        <time>2020-09-13T13:14:26Z</time>
      </trkpt>
      <trkpt lat="45.862065078690648" lon="9.456365089863539">
        <ele>1236.8599999999999</ele>
        <time>2020-09-13T13:14:37Z</time>
      </trkpt>
      <trkpt lat="45.862153340131044" lon="9.456339441239834">
        <ele>1235.3900000000001</ele>
        <time>2020-09-13T13:14:48Z</time>
      </trkpt>
      <trkpt lat="45.862220143899322" lon="9.456338938325644">
        <ele>1234.21</ele>
        <time>2020-09-13T13:14:58Z</time>
      </trkpt>
      <trkpt lat="45.862298682332039" lon="9.456377578899264">
        <ele>1234.98</ele>
        <time>2020-09-13T13:15:09Z</time>
      </trkpt>
      <trkpt lat="45.862369509413838" lon="9.456380847841501">
        <ele>1235.0999999999999</ele>
        <time>2020-09-13T13:15:18Z</time>
      </trkpt>
      <trkpt lat="45.862476881593466" lon="9.456347823143005">
        <ele>1234.78</ele>
        <time>2020-09-13T13:15:32Z</time>
      </trkpt>
      <trkpt lat="45.862588528543711" lon="9.456324521452189">
        <ele>1234.01</ele>
        <time>2020-09-13T13:15:46Z</time>
      </trkpt>
      <trkpt lat="45.863610785454512" lon="9.455189947038889">
        <ele>1220.6800000000001</ele>
        <time>2020-09-13T13:23:52Z</time>
      </trkpt>
      <trkpt lat="45.863630902022123" lon="9.455123394727707">
        <ele>1221.1800000000001</ele>
        <time>2020-09-13T13:23:59Z</time>
      </trkpt>
      <trkpt lat="45.86363123729825" lon="9.455121550709009">
        <ele>1221.6099999999999</ele>
        <time>2020-09-13T13:24:16Z</time>
      </trkpt>
      <trkpt lat="45.863603325560689" lon="9.455132950097323">
        <ele>1217.1099999999999</ele>
        <time>2020-09-13T13:24:35Z</time>
      </trkpt>
      <trkpt lat="45.863600978627801" lon="9.455132531002164">
        <ele>1220.72</ele>
        <time>2020-09-13T13:24:36Z</time>
      </trkpt>
      <trkpt lat="45.863596955314279" lon="9.455135045573115">
        <ele>1223.6099999999999</ele>
        <time>2020-09-13T13:24:39Z</time>
      </trkpt>
      <trkpt lat="45.863590920343995" lon="9.455128507688642">
        <ele>1221.3099999999999</ele>
        <time>2020-09-13T13:24:44Z</time>
      </trkpt>
      <trkpt lat="45.863591926172376" lon="9.455121550709009">
        <ele>1221.45</ele>
        <time>2020-09-13T13:25:03Z</time>
      </trkpt>
      <trkpt lat="45.863595195114613" lon="9.455114426091313">
        <ele>1221.54</ele>
        <time>2020-09-13T13:25:20Z</time>
      </trkpt>
      <trkpt lat="45.86359703913331" lon="9.455132531002164">
        <ele>1221.6500000000001</ele>
        <time>2020-09-13T13:25:39Z</time>
      </trkpt>
      <trkpt lat="45.863599302247167" lon="9.45513429120183">
        <ele>1221.6900000000001</ele>
        <time>2020-09-13T13:25:51Z</time>
      </trkpt>
      <trkpt lat="45.863595111295581" lon="9.455118868499994">
        <ele>1221.4100000000001</ele>
        <time>2020-09-13T13:26:14Z</time>
      </trkpt>
      <trkpt lat="45.863575162366033" lon="9.455113084986806">
        <ele>1221.6900000000001</ele>
        <time>2020-09-13T13:26:38Z</time>
      </trkpt>
      <trkpt lat="45.863561416044831" lon="9.455112749710679">
        <ele>1222.04</ele>
        <time>2020-09-13T13:27:09Z</time>
      </trkpt>
      <trkpt lat="45.863563092425466" lon="9.455101098865271">
        <ele>1222.26</ele>
        <time>2020-09-13T13:27:31Z</time>
      </trkpt>
      <trkpt lat="45.863555297255516" lon="9.455101182684302">
        <ele>1222.49</ele>
        <time>2020-09-13T13:27:53Z</time>
      </trkpt>
      <trkpt lat="45.863547502085567" lon="9.455120712518692">
        <ele>1222.5799999999999</ele>
        <time>2020-09-13T13:28:30Z</time>
      </trkpt>
      <trkpt lat="45.863537862896919" lon="9.455110067501664">
        <ele>1222.6099999999999</ele>
        <time>2020-09-13T13:28:49Z</time>
      </trkpt>
      <trkpt lat="45.863521182909608" lon="9.455107133835554">
        <ele>1222.6600000000001</ele>
        <time>2020-09-13T13:29:10Z</time>
      </trkpt>
      <trkpt lat="45.863527720794082" lon="9.455103781074286">
        <ele>1223.4400000000001</ele>
        <time>2020-09-13T13:29:34Z</time>
      </trkpt>
      <trkpt lat="45.863526547327638" lon="9.455038066953421">
        <ele>1223.48</ele>
        <time>2020-09-13T13:29:46Z</time>
      </trkpt>
      <trkpt lat="45.863527469336987" lon="9.455025494098663">
        <ele>1223.3699999999999</ele>
        <time>2020-09-13T13:29:47Z</time>
      </trkpt>
      <trkpt lat="45.863527301698923" lon="9.454994481056929">
        <ele>1223.24</ele>
        <time>2020-09-13T13:29:49Z</time>
      </trkpt>
      <trkpt lat="45.863540209829807" lon="9.454881157726049">
        <ele>1224.77</ele>
        <time>2020-09-13T13:29:59Z</time>
      </trkpt>
      <trkpt lat="45.863537276163697" lon="9.454837990924716">
        <ele>1224.72</ele>
        <time>2020-09-13T13:30:02Z</time>
      </trkpt>
      <trkpt lat="45.863538784906268" lon="9.454735144972801">
        <ele>1225.0799999999999</ele>
        <time>2020-09-13T13:30:10Z</time>
      </trkpt>
      <trkpt lat="45.863552782684565" lon="9.454656438902021">
        <ele>1224.78</ele>
        <time>2020-09-13T13:30:15Z</time>
      </trkpt>
      <trkpt lat="45.863600308075547" lon="9.454593742266297">
        <ele>1225.2</ele>
        <time>2020-09-13T13:30:26Z</time>
      </trkpt>
      <trkpt lat="45.863610869273543" lon="9.454579157754779">
        <ele>1225.03</ele>
        <time>2020-09-13T13:30:28Z</time>
      </trkpt>
      <trkpt lat="45.863668285310268" lon="9.454511348158121">
        <ele>1224.1199999999999</ele>
        <time>2020-09-13T13:30:35Z</time>
      </trkpt>
      <trkpt lat="45.863762078806758" lon="9.454434402287006">
        <ele>1224.1700000000001</ele>
        <time>2020-09-13T13:30:47Z</time>
      </trkpt>
      <trkpt lat="45.863829888403416" lon="9.454276822507381">
        <ele>1225.5799999999999</ele>
        <time>2020-09-13T13:31:01Z</time>
      </trkpt>
      <trkpt lat="45.863847825676203" lon="9.454240193590522">
        <ele>1225.96</ele>
        <time>2020-09-13T13:31:04Z</time>
      </trkpt>
      <trkpt lat="45.8639498334378" lon="9.454077500849962">
        <ele>1227.03</ele>
        <time>2020-09-13T13:31:19Z</time>
      </trkpt>
      <trkpt lat="45.864021498709917" lon="9.45398454554379">
        <ele>1229.1800000000001</ele>
        <time>2020-09-13T13:31:33Z</time>
      </trkpt>
      <trkpt lat="45.864099618047476" lon="9.453919250518084">
        <ele>1231.5999999999999</ele>
        <time>2020-09-13T13:31:47Z</time>
      </trkpt>
      <trkpt lat="45.864219143986702" lon="9.453861666843295">
        <ele>1232.96</ele>
        <time>2020-09-13T13:32:02Z</time>
      </trkpt>
      <trkpt lat="45.864271279424429" lon="9.453757060691714">
        <ele>1233.3699999999999</ele>
        <time>2020-09-13T13:32:15Z</time>
      </trkpt>
      <trkpt lat="45.864311344921589" lon="9.453636780381203">
        <ele>1234.6400000000001</ele>
        <time>2020-09-13T13:32:28Z</time>
      </trkpt>
      <trkpt lat="45.86437345482409" lon="9.453569473698735">
        <ele>1236.8499999999999</ele>
        <time>2020-09-13T13:32:43Z</time>
      </trkpt>
      <trkpt lat="45.864481832832098" lon="9.453482301905751">
        <ele>1237.8800000000001</ele>
        <time>2020-09-13T13:32:58Z</time>
      </trkpt>
      <trkpt lat="45.864572860300541" lon="9.453296307474375">
        <ele>1237.78</ele>
        <time>2020-09-13T13:33:12Z</time>
      </trkpt>
      <trkpt lat="45.864667156711221" lon="9.453191952779889">
        <ele>1237.1300000000001</ele>
        <time>2020-09-13T13:33:25Z</time>
      </trkpt>
      <trkpt lat="45.864734211936593" lon="9.453124478459358">
        <ele>1237.76</ele>
        <time>2020-09-13T13:33:38Z</time>
      </trkpt>
      <trkpt lat="45.864788359031081" lon="9.453017441555858">
        <ele>1238.46</ele>
        <time>2020-09-13T13:33:48Z</time>
      </trkpt>
      <trkpt lat="45.864828675985336" lon="9.452901519834995">
        <ele>1238.3599999999999</ele>
        <time>2020-09-13T13:34:00Z</time>
      </trkpt>
      <trkpt lat="45.864844936877489" lon="9.452878134325147">
        <ele>1238.0799999999999</ele>
        <time>2020-09-13T13:34:02Z</time>
      </trkpt>
      <trkpt lat="45.86487578228116" lon="9.452833877876401">
        <ele>1237.74</ele>
        <time>2020-09-13T13:34:06Z</time>
      </trkpt>
      <trkpt lat="45.864890534430742" lon="9.452765984460712">
        <ele>1237.53</ele>
        <time>2020-09-13T13:34:10Z</time>
      </trkpt>
      <trkpt lat="45.864878296852112" lon="9.452578984200954">
        <ele>1236.1800000000001</ele>
        <time>2020-09-13T13:34:23Z</time>
      </trkpt>
      <trkpt lat="45.864888606593013" lon="9.452405143529177">
        <ele>1236.8499999999999</ele>
        <time>2020-09-13T13:34:35Z</time>
      </trkpt>
      <trkpt lat="45.864873183891177" lon="9.452211018651724">
        <ele>1237.3499999999999</ele>
        <time>2020-09-13T13:34:47Z</time>
      </trkpt>
      <trkpt lat="45.864888690412045" lon="9.452102724462748">
        <ele>1238.5699999999999</ele>
        <time>2020-09-13T13:35:00Z</time>
      </trkpt>
      <trkpt lat="45.864897323772311" lon="9.451980516314507">
        <ele>1240.4400000000001</ele>
        <time>2020-09-13T13:35:12Z</time>
      </trkpt>
      <trkpt lat="45.864903526380658" lon="9.451841376721859">
        <ele>1242.3199999999999</ele>
        <time>2020-09-13T13:35:26Z</time>
      </trkpt>
      <trkpt lat="45.864914087578654" lon="9.451669631525874">
        <ele>1244.4300000000001</ele>
        <time>2020-09-13T13:35:44Z</time>
      </trkpt>
      <trkpt lat="45.865000337362289" lon="9.45163618773222">
        <ele>1245.02</ele>
        <time>2020-09-13T13:35:59Z</time>
      </trkpt>
      <trkpt lat="45.865119360387325" lon="9.451631996780634">
        <ele>1245.3599999999999</ele>
        <time>2020-09-13T13:36:14Z</time>
      </trkpt>
      <trkpt lat="45.8651655446738" lon="9.451469136402011">
        <ele>1247.79</ele>
        <time>2020-09-13T13:36:30Z</time>
      </trkpt>
      <trkpt lat="45.865185828879476" lon="9.451332930475473">
        <ele>1247.6900000000001</ele>
        <time>2020-09-13T13:36:41Z</time>
      </trkpt>
      <trkpt lat="45.865220027044415" lon="9.451205357909203">
        <ele>1247.6700000000001</ele>
        <time>2020-09-13T13:36:53Z</time>
      </trkpt>
      <trkpt lat="45.865306528285146" lon="9.451096979901195">
        <ele>1248.8499999999999</ele>
        <time>2020-09-13T13:37:09Z</time>
      </trkpt>
      <trkpt lat="45.865375092253089" lon="9.451086418703198">
        <ele>1251.7</ele>
        <time>2020-09-13T13:37:25Z</time>
      </trkpt>
      <trkpt lat="45.865467460826039" lon="9.451034115627408">
        <ele>1253.8699999999999</ele>
        <time>2020-09-13T13:37:41Z</time>
      </trkpt>
      <trkpt lat="45.86556326597929" lon="9.450985919684172">
        <ele>1256.47</ele>
        <time>2020-09-13T13:37:57Z</time>
      </trkpt>
      <trkpt lat="45.865649431943893" lon="9.450910314917564">
        <ele>1257.8699999999999</ele>
        <time>2020-09-13T13:38:13Z</time>
      </trkpt>
      <trkpt lat="45.865709194913507" lon="9.450818952172995">
        <ele>1259.3399999999999</ele>
        <time>2020-09-13T13:38:24Z</time>
      </trkpt>
      <trkpt lat="45.865824362263083" lon="9.450670341029763">
        <ele>1261.2</ele>
        <time>2020-09-13T13:38:41Z</time>
      </trkpt>
      <trkpt lat="45.865894351154566" lon="9.450594820082188">
        <ele>1261.7</ele>
        <time>2020-09-13T13:38:51Z</time>
      </trkpt>
      <trkpt lat="45.866005662828684" lon="9.45048744790256">
        <ele>1263.9100000000001</ele>
        <time>2020-09-13T13:39:08Z</time>
      </trkpt>
      <trkpt lat="45.866139270365238" lon="9.450445873662829">
        <ele>1265.73</ele>
        <time>2020-09-13T13:39:23Z</time>
      </trkpt>
      <trkpt lat="45.866203978657722" lon="9.450397761538625">
        <ele>1266.4100000000001</ele>
        <time>2020-09-13T13:39:35Z</time>
      </trkpt>
      <trkpt lat="45.866210432723165" lon="9.450404969975352">
        <ele>1266.1800000000001</ele>
        <time>2020-09-13T13:39:49Z</time>
      </trkpt>
      <trkpt lat="45.866200206801295" lon="9.450408574193716">
        <ele>1265.46</ele>
        <time>2020-09-13T13:40:11Z</time>
      </trkpt>
      <trkpt lat="45.866216719150543" lon="9.450408574193716">
        <ele>1265.72</ele>
        <time>2020-09-13T13:40:45Z</time>
      </trkpt>
      <trkpt lat="45.866209929808974" lon="9.450402203947306">
        <ele>1266.01</ele>
        <time>2020-09-13T13:41:00Z</time>
      </trkpt>
      <trkpt lat="45.866192998364568" lon="9.450402874499559">
        <ele>1267.4000000000001</ele>
        <time>2020-09-13T13:41:13Z</time>
      </trkpt>
      <trkpt lat="45.866192411631346" lon="9.450405724346638">
        <ele>1268.72</ele>
        <time>2020-09-13T13:41:22Z</time>
      </trkpt>
      <trkpt lat="45.866193920373917" lon="9.450403461232781">
        <ele>1267.8800000000001</ele>
        <time>2020-09-13T13:41:24Z</time>
      </trkpt>
      <trkpt lat="45.866235410794616" lon="9.450360964983702">
        <ele>1267.52</ele>
        <time>2020-09-13T13:41:35Z</time>
      </trkpt>
      <trkpt lat="45.86627472192049" lon="9.450279995799065">
        <ele>1267.96</ele>
        <time>2020-09-13T13:41:46Z</time>
      </trkpt>
      <trkpt lat="45.866279080510139" lon="9.45020061917603">
        <ele>1268.3399999999999</ele>
        <time>2020-09-13T13:41:57Z</time>
      </trkpt>
      <trkpt lat="45.866246726363897" lon="9.450116045773029">
        <ele>1268.8</ele>
        <time>2020-09-13T13:42:05Z</time>
      </trkpt>
      <trkpt lat="45.866146730259061" lon="9.450000626966357">
        <ele>1269.5999999999999</ele>
        <time>2020-09-13T13:42:20Z</time>
      </trkpt>
      <trkpt lat="45.866060312837362" lon="9.449904067441821">
        <ele>1271.1600000000001</ele>
        <time>2020-09-13T13:42:33Z</time>
      </trkpt>
      <trkpt lat="45.865950845181942" lon="9.44980826228857">
        <ele>1272.1600000000001</ele>
        <time>2020-09-13T13:42:48Z</time>
      </trkpt>
      <trkpt lat="45.865832911804318" lon="9.449770376086235">
        <ele>1273.4200000000001</ele>
        <time>2020-09-13T13:43:01Z</time>
      </trkpt>
      <trkpt lat="45.86570693179965" lon="9.449728466570377">
        <ele>1274.73</ele>
        <time>2020-09-13T13:43:14Z</time>
      </trkpt>
      <trkpt lat="45.865592686459422" lon="9.449697369709611">
        <ele>1276.1700000000001</ele>
        <time>2020-09-13T13:43:27Z</time>
      </trkpt>
      <trkpt lat="45.865486906841397" lon="9.449642635881901">
        <ele>1276.98</ele>
        <time>2020-09-13T13:43:40Z</time>
      </trkpt>
      <trkpt lat="45.865423204377294" lon="9.449609778821468">
        <ele>1277.5699999999999</ele>
        <time>2020-09-13T13:43:47Z</time>
      </trkpt>
      <trkpt lat="45.865357909351587" lon="9.449555799365044">
        <ele>1277.98</ele>
        <time>2020-09-13T13:43:55Z</time>
      </trkpt>
      <trkpt lat="45.865253387019038" lon="9.449458317831159">
        <ele>1278.71</ele>
        <time>2020-09-13T13:44:08Z</time>
      </trkpt>
      <trkpt lat="45.865127574652433" lon="9.449304845184088">
        <ele>1279.5799999999999</ele>
        <time>2020-09-13T13:44:25Z</time>
      </trkpt>
      <trkpt lat="45.865025818347931" lon="9.449143409729004">
        <ele>1280.73</ele>
        <time>2020-09-13T13:44:40Z</time>
      </trkpt>
      <trkpt lat="45.864938981831074" lon="9.448991445824504">
        <ele>1281.03</ele>
        <time>2020-09-13T13:44:54Z</time>
      </trkpt>
      <trkpt lat="45.864875111728907" lon="9.44887787103653">
        <ele>1281.3599999999999</ele>
        <time>2020-09-13T13:45:04Z</time>
      </trkpt>
      <trkpt lat="45.864805458113551" lon="9.448740407824516">
        <ele>1282.48</ele>
        <time>2020-09-13T13:45:16Z</time>
      </trkpt>
      <trkpt lat="45.864763967692852" lon="9.448647955432534">
        <ele>1283.3</ele>
        <time>2020-09-13T13:45:25Z</time>
      </trkpt>
      <trkpt lat="45.864689452573657" lon="9.448474198579788">
        <ele>1285.22</ele>
        <time>2020-09-13T13:45:41Z</time>
      </trkpt>
      <trkpt lat="45.86464611813426" lon="9.448317624628544">
        <ele>1286.55</ele>
        <time>2020-09-13T13:45:54Z</time>
      </trkpt>
      <trkpt lat="45.864615524187684" lon="9.448171444237232">
        <ele>1288.0699999999999</ele>
        <time>2020-09-13T13:46:06Z</time>
      </trkpt>
      <trkpt lat="45.864538243040442" lon="9.448027778416872">
        <ele>1289.6600000000001</ele>
        <time>2020-09-13T13:46:20Z</time>
      </trkpt>
      <trkpt lat="45.8645283523947" lon="9.448005734011531">
        <ele>1289.6800000000001</ele>
        <time>2020-09-13T13:46:22Z</time>
      </trkpt>
      <trkpt lat="45.864450233057141" lon="9.447874389588833">
        <ele>1290.77</ele>
        <time>2020-09-13T13:46:34Z</time>
      </trkpt>
      <trkpt lat="45.864343531429768" lon="9.447870282456279">
        <ele>1291.3199999999999</ele>
        <time>2020-09-13T13:46:45Z</time>
      </trkpt>
      <trkpt lat="45.86425669491291" lon="9.447906157001853">
        <ele>1292.6800000000001</ele>
        <time>2020-09-13T13:46:58Z</time>
      </trkpt>
      <trkpt lat="45.864111017435789" lon="9.447970781475306">
        <ele>1294.5899999999999</ele>
        <time>2020-09-13T13:47:14Z</time>
      </trkpt>
      <trkpt lat="45.863988474011421" lon="9.447954269126058">
        <ele>1295.9400000000001</ele>
        <time>2020-09-13T13:47:27Z</time>
      </trkpt>
      <trkpt lat="45.863985205069184" lon="9.447835832834244">
        <ele>1297.6900000000001</ele>
        <time>2020-09-13T13:47:39Z</time>
      </trkpt>
      <trkpt lat="45.864084111526608" lon="9.447727957740426">
        <ele>1299.8399999999999</ele>
        <time>2020-09-13T13:47:56Z</time>
      </trkpt>
      <trkpt lat="45.864182934165001" lon="9.44766073487699">
        <ele>1301.95</ele>
        <time>2020-09-13T13:48:11Z</time>
      </trkpt>
      <trkpt lat="45.864189052954316" lon="9.447657465934753">
        <ele>1302.02</ele>
        <time>2020-09-13T13:48:12Z</time>
      </trkpt>
      <trkpt lat="45.864261304959655" lon="9.447605665773153">
        <ele>1302.27</ele>
        <time>2020-09-13T13:48:21Z</time>
      </trkpt>
      <trkpt lat="45.864376639947295" lon="9.447613712400198">
        <ele>1302.52</ele>
        <time>2020-09-13T13:48:34Z</time>
      </trkpt>
      <trkpt lat="45.864506978541613" lon="9.447628380730748">
        <ele>1303.25</ele>
        <time>2020-09-13T13:48:50Z</time>
      </trkpt>
      <trkpt lat="45.864540673792362" lon="9.447688143700361">
        <ele>1303.46</ele>
        <time>2020-09-13T13:48:58Z</time>
      </trkpt>
      <trkpt lat="45.864615021273494" lon="9.447784787043929">
        <ele>1303.0699999999999</ele>
        <time>2020-09-13T13:49:10Z</time>
      </trkpt>
      <trkpt lat="45.864629270508885" lon="9.447801131755114">
        <ele>1303.21</ele>
        <time>2020-09-13T13:49:12Z</time>
      </trkpt>
      <trkpt lat="45.864716190844774" lon="9.447840442880988">
        <ele>1303.29</ele>
        <time>2020-09-13T13:49:23Z</time>
      </trkpt>
      <trkpt lat="45.864757765084505" lon="9.447853602468967">
        <ele>1302.3599999999999</ele>
        <time>2020-09-13T13:49:40Z</time>
      </trkpt>
      <trkpt lat="45.864768913015723" lon="9.447872042655945">
        <ele>1302.3800000000001</ele>
        <time>2020-09-13T13:49:56Z</time>
      </trkpt>
      <trkpt lat="45.864750053733587" lon="9.447912694886327">
        <ele>1303.3699999999999</ele>
        <time>2020-09-13T13:50:12Z</time>
      </trkpt>
    </trkseg>
  </trk>

</gpx>